[[{"header":{"parameterUnit":"m.s-1","parameterCategory":1,"la1":30.6,"la2":29.2853,"lo1":-89.7004,"lo2":-87.6739,"dy":0.0162,"dx":0.0183,"nx":112,"ny":82,"refTime":"2023-04-04T06:00:00:Z","depth":0,"parameterNumber":2,"parameterNumberName":"U-component_of_WINDS"},"data":[0.0,0.0,0.0,0.0,0.0,0.0,0.0,0.0,0.0,0.0,0.0,0.0,0.0,0.0,0.0,0.0,0.0,0.0,0.0,0.0,0.0,0.0,0.0,0.0,0.0,0.0,0.0,0.0,0.0,0.0,0.0,0.0,0.0,0.0,0.0,0.0,0.0,0.0,0.0,0.0,0.0,0.0,0.0,0.0,0.0,0.0,0.0,0.0,0.0,0.0,0.0,0.0,0.0,0.0,0.0,0.0,0.0,0.0,0.0,0.0,0.0,0.0,0.0,0.0,0.0,0.0,0.0,0.0,0.0,0.0,0.0,0.0,0.0,0.0,0.0,0.0,0.0,0.0,0.0,0.0,0.0,0.0,0.0,0.0,0.0,0.0,0.0,0.0,0.0,0.0,0.0,3.1511,3.1511,3.1511,3.1511,3.1511,3.1511,3.1511,0.0,0.0,0.0,0.0,0.0,0.0,0.0,0.0,0.0,0.0,0.0,0.0,0.0,0.0,0.0,0.0,0.0,0.0,0.0,0.0,0.0,0.0,0.0,0.0,0.0,0.0,0.0,0.0,0.0,0.0,0.0,0.0,0.0,0.0,0.0,0.0,0.0,0.0,0.0,0.0,0.0,0.0,0.0,0.0,0.0,0.0,0.0,0.0,0.0,0.0,0.0,0.0,0.0,0.0,0.0,0.0,0.0,0.0,0.0,0.0,0.0,0.0,0.0,0.0,0.0,0.0,0.0,0.0,0.0,0.0,0.0,0.0,0.0,0.0,0.0,0.0,0.0,0.0,0.0,0.0,0.0,0.0,0.0,0.0,0.0,0.0,0.0,0.0,0.0,0.0,0.0,0.0,0.0,0.0,0.0,0.0,0.0,0.0,0.0,0.0,0.0,0.0,0.0,0.0,3.1511,3.1511,3.1511,3.1511,3.1511,3.1511,3.1511,3.1511,0.0,0.0,0.0,0.0,0.0,0.0,0.0,0.0,0.0,0.0,0.0,0.0,0.0,0.0,0.0,0.0,0.0,0.0,0.0,0.0,0.0,0.0,0.0,0.0,0.0,0.0,0.0,0.0,0.0,0.0,0.0,0.0,0.0,0.0,0.0,0.0,0.0,0.0,0.0,0.0,0.0,0.0,0.0,0.0,0.0,0.0,0.0,0.0,0.0,0.0,0.0,0.0,0.0,0.0,0.0,0.0,0.0,0.0,0.0,0.0,0.0,0.0,0.0,0.0,0.0,0.0,0.0,0.0,0.0,0.0,0.0,0.0,0.0,0.0,0.0,0.0,0.0,0.0,0.0,0.0,0.0,0.0,0.0,0.0,0.0,0.0,0.0,0.0,0.0,0.0,0.0,0.0,0.0,0.0,0.0,0.0,0.0,0.0,0.0,0.0,0.0,0.0,0.0,3.1511,3.1511,3.1511,3.1511,3.1511,3.1511,3.1511,3.1511,3.1511,3.1161,0.0,0.0,0.0,0.0,0.0,0.0,0.0,0.0,0.0,0.0,0.0,0.0,0.0,0.0,0.0,0.0,0.0,0.0,0.0,0.0,0.0,0.0,0.0,0.0,0.0,0.0,0.0,0.0,0.0,0.0,0.0,0.0,0.0,0.0,0.0,0.0,0.0,0.0,0.0,0.0,0.0,0.0,0.0,0.0,0.0,0.0,0.0,0.0,0.0,0.0,0.0,0.0,0.0,0.0,0.0,0.0,0.0,0.0,0.0,0.0,0.0,0.0,0.0,0.0,0.0,0.0,0.0,0.0,0.0,0.0,0.0,0.0,0.0,0.0,0.0,0.0,0.0,0.0,0.0,0.0,0.0,0.0,0.0,0.0,0.0,0.0,0.0,0.0,0.0,0.0,0.0,0.0,0.0,0.0,0.0,0.0,0.0,0.0,0.0,0.0,0.0,0.0,3.1511,3.1511,3.1511,3.1511,3.1511,3.1511,3.1511,3.1511,3.1511,3.1511,0.0,0.0,0.0,0.0,0.0,0.0,0.0,0.0,0.0,0.0,0.0,0.0,0.0,0.0,0.0,0.0,0.0,0.0,0.0,0.0,0.0,0.0,0.0,0.0,0.0,0.0,0.0,0.0,0.0,0.0,0.0,0.0,0.0,0.0,0.0,0.0,0.0,0.0,0.0,0.0,0.0,0.0,0.0,0.0,0.0,0.0,0.0,0.0,0.0,0.0,0.0,0.0,0.0,0.0,0.0,0.0,0.0,0.0,0.0,0.0,0.0,0.0,0.0,0.0,0.0,0.0,0.0,0.0,0.0,0.0,0.0,0.0,0.0,0.0,0.0,0.0,0.0,0.0,0.0,0.0,0.0,0.0,0.0,0.0,0.0,0.0,0.0,0.0,0.0,0.0,0.0,0.0,0.0,0.0,0.0,0.0,0.0,0.0,0.0,0.0,0.0,0.0,3.1511,3.1511,3.1511,3.1511,3.1511,3.1511,3.1511,3.1511,3.1511,3.1511,0.0,0.0,0.0,0.0,0.0,0.0,0.0,0.0,0.0,0.0,0.0,0.0,0.0,0.0,0.0,0.0,0.0,0.0,0.0,0.0,0.0,0.0,0.0,0.0,0.0,0.0,0.0,0.0,0.0,0.0,0.0,0.0,0.0,0.0,0.0,0.0,0.0,0.0,0.0,0.0,0.0,0.0,0.0,0.0,0.0,0.0,0.0,0.0,0.0,0.0,0.0,0.0,0.0,0.0,0.0,0.0,0.0,0.0,0.0,0.0,0.0,0.0,0.0,0.0,0.0,0.0,0.0,0.0,0.0,0.0,0.0,0.0,0.0,0.0,0.0,0.0,0.0,0.0,0.0,0.0,0.0,0.0,0.0,0.0,0.0,0.0,0.0,0.0,0.0,0.0,0.0,0.0,0.0,0.0,0.0,0.0,0.0,0.0,0.0,0.0,0.0,0.0,3.1511,3.1511,0.0,3.1511,3.1511,3.1511,3.1511,3.1511,3.1511,0.0,0.0,0.0,0.0,0.0,0.0,0.0,0.0,0.0,0.0,0.0,0.0,0.0,0.0,0.0,0.0,0.0,0.0,0.0,0.0,0.0,0.0,0.0,0.0,0.0,0.0,0.0,0.0,0.0,0.0,0.0,0.0,0.0,0.0,0.0,0.0,0.0,0.0,0.0,0.0,0.0,0.0,0.0,0.0,0.0,0.0,0.0,0.0,0.0,0.0,0.0,0.0,0.0,0.0,0.0,0.0,0.0,0.0,0.0,0.0,0.0,0.0,0.0,0.0,0.0,0.0,0.0,0.0,0.0,0.0,0.0,0.0,0.0,0.0,0.0,0.0,0.0,0.0,0.0,0.0,0.0,0.0,0.0,0.0,0.0,0.0,0.0,0.0,0.0,0.0,0.0,0.0,0.0,0.0,0.0,0.0,0.0,0.0,0.0,0.0,0.0,0.0,3.1511,3.1511,3.1511,0.0,3.1511,3.1511,3.1511,3.1511,3.1511,3.1511,0.0,0.0,0.0,0.0,0.0,0.0,0.0,0.0,0.0,0.0,0.0,0.0,0.0,0.0,0.0,0.0,0.0,0.0,0.0,0.0,0.0,0.0,0.0,0.0,0.0,0.0,0.0,0.0,0.0,0.0,0.0,0.0,0.0,0.0,0.0,0.0,0.0,0.0,0.0,0.0,0.0,0.0,0.0,0.0,0.0,0.0,0.0,0.0,0.0,0.0,0.0,0.0,0.0,0.0,0.0,0.0,0.0,0.0,0.0,0.0,0.0,0.0,0.0,0.0,0.0,0.0,0.0,0.0,0.0,0.0,0.0,0.0,0.0,0.0,0.0,0.0,0.0,0.0,0.0,0.0,0.0,0.0,0.0,0.0,0.0,0.0,0.0,0.0,0.0,0.0,0.0,0.0,0.0,0.0,0.0,0.0,0.0,0.0,0.0,0.0,0.0,0.0,3.1511,3.1511,3.1511,3.1511,3.1511,3.1511,3.1511,3.1511,3.1511,0.0,0.0,0.0,0.0,0.0,0.0,0.0,0.0,0.0,0.0,0.0,0.0,0.0,0.0,0.0,0.0,0.0,0.0,0.0,0.0,0.0,0.0,0.0,0.0,0.0,0.0,0.0,0.0,0.0,0.0,0.0,0.0,0.0,0.0,0.0,0.0,0.0,0.0,0.0,0.0,0.0,0.0,0.0,0.0,0.0,0.0,0.0,0.0,0.0,0.0,0.0,0.0,0.0,0.0,0.0,0.0,0.0,0.0,0.0,0.0,0.0,0.0,0.0,0.0,0.0,0.0,0.0,0.0,0.0,0.0,0.0,0.0,0.0,0.0,0.0,0.0,0.0,0.0,0.0,0.0,0.0,0.0,0.0,0.0,0.0,0.0,0.0,0.0,0.0,0.0,0.0,0.0,0.0,0.0,0.0,0.0,0.0,0.0,0.0,0.0,0.0,0.0,0.0,3.1511,3.1511,3.1511,3.1511,3.1511,3.1511,3.1511,3.1511,3.1511,3.1511,0.0,0.0,0.0,0.0,0.0,0.0,0.0,0.0,0.0,0.0,0.0,0.0,0.0,0.0,0.0,0.0,0.0,0.0,0.0,0.0,0.0,0.0,0.0,0.0,0.0,0.0,0.0,0.0,0.0,0.0,0.0,0.0,0.0,0.0,0.0,0.0,0.0,0.0,0.0,0.0,0.0,0.0,0.0,0.0,0.0,0.0,0.0,0.0,0.0,0.0,0.0,0.0,0.0,0.0,0.0,0.0,0.0,0.0,0.0,0.0,0.0,0.0,0.0,0.0,0.0,0.0,0.0,0.0,0.0,0.0,0.0,0.0,0.0,0.0,0.0,0.0,0.0,0.0,0.0,0.0,0.0,0.0,0.0,0.0,0.0,0.0,0.0,0.0,0.0,0.0,0.0,0.0,0.0,0.0,0.0,0.0,0.0,0.0,0.0,0.0,0.0,0.0,3.1511,3.1511,3.1511,3.1511,3.1511,3.1511,3.1511,3.1511,3.1511,3.1511,0.0,0.0,0.0,0.0,0.0,0.0,0.0,0.0,0.0,0.0,0.0,0.0,0.0,0.0,0.0,0.0,0.0,0.0,0.0,0.0,0.0,0.0,0.0,0.0,0.0,0.0,0.0,0.0,0.0,0.0,0.0,0.0,0.0,0.0,0.0,0.0,0.0,0.0,0.0,0.0,0.0,0.0,0.0,0.0,0.0,0.0,0.0,0.0,0.0,0.0,0.0,0.0,0.0,0.0,0.0,0.0,0.0,0.0,0.0,0.0,0.0,0.0,0.0,0.0,0.0,0.0,0.0,0.0,0.0,0.0,0.0,0.0,0.0,0.0,0.0,0.0,0.0,0.0,0.0,0.0,0.0,0.0,0.0,0.0,0.0,0.0,0.0,0.0,0.0,0.0,0.0,0.0,0.0,0.0,0.0,0.0,0.0,0.0,0.0,0.0,0.0,0.0,3.1511,3.1511,3.1511,3.1511,3.1511,3.1511,3.1511,3.1511,3.1466,3.1406,0.0,0.0,0.0,0.0,0.0,0.0,0.0,0.0,0.0,0.0,0.0,0.0,0.0,0.0,0.0,0.0,0.0,0.0,0.0,0.0,0.0,0.0,0.0,0.0,0.0,0.0,0.0,0.0,0.0,0.0,0.0,0.0,0.0,0.0,0.0,0.0,0.0,0.0,0.0,0.0,0.0,0.0,0.0,0.0,0.0,0.0,0.0,0.0,0.0,0.0,0.0,0.0,0.0,0.0,0.0,0.0,0.0,0.0,0.0,0.0,2.3441,0.0,0.0,0.0,0.0,0.0,0.0,0.0,0.0,0.0,0.0,0.0,0.0,0.0,0.0,0.0,0.0,0.0,0.0,0.0,0.0,0.0,0.0,0.0,0.0,0.0,0.0,0.0,0.0,0.0,0.0,0.0,0.0,0.0,0.0,0.0,0.0,0.0,0.0,0.0,0.0,0.0,3.1511,3.1511,3.1511,3.1511,3.1511,3.1511,3.1511,3.1511,3.1271,3.0747,3.0427,0.0,0.0,0.0,0.0,0.0,0.0,0.0,0.0,0.0,0.0,0.0,0.0,0.0,0.0,0.0,0.0,0.0,0.0,0.0,0.0,0.0,0.0,0.0,0.0,0.0,0.0,0.0,0.0,0.0,0.0,0.0,0.0,0.0,0.0,0.0,0.0,0.0,0.0,0.0,0.0,0.0,0.0,0.0,0.0,0.0,0.0,0.0,0.0,0.0,0.0,0.0,0.0,0.0,0.0,0.0,0.0,0.0,0.0,0.0,0.0,2.432,0.0,0.0,0.0,0.0,0.0,0.0,0.0,0.0,0.0,0.0,0.0,0.0,0.0,0.0,0.0,0.0,0.0,0.0,0.0,0.0,0.0,0.0,0.0,0.0,0.0,0.0,0.0,0.0,0.0,0.0,0.0,0.0,0.0,0.0,0.0,0.0,0.0,0.0,0.0,0.0,3.1511,3.1511,3.1511,3.1511,3.1511,3.1511,3.1511,3.1511,3.1212,3.0552,2.9872,0.0,0.0,0.0,0.0,0.0,0.0,0.0,0.0,0.0,0.0,0.0,0.0,0.0,0.0,0.0,0.0,0.0,0.0,0.0,0.0,0.0,0.0,0.0,0.0,0.0,0.0,0.0,0.0,0.0,0.0,0.0,0.0,0.0,0.0,0.0,0.0,0.0,0.0,0.0,0.0,0.0,0.0,0.0,0.0,0.0,0.0,0.0,0.0,0.0,0.0,0.0,0.0,0.0,2.7207,2.731,2.7325,2.7679,2.7624,2.728,2.7828,2.6567,2.4178,0.0,0.0,0.0,0.0,0.0,0.0,0.0,0.0,0.0,0.0,0.0,0.0,0.0,0.0,0.0,0.0,0.0,0.0,0.0,0.0,0.0,0.0,0.0,0.0,0.0,3.1511,3.1511,0.0,0.0,0.0,0.0,0.0,0.0,0.0,0.0,0.0,0.0,0.0,0.0,3.1511,3.1511,3.1511,3.1511,3.1511,3.1511,3.1511,3.1391,3.1032,3.0387,2.9148,2.8157,0.0,0.0,0.0,0.0,0.0,0.0,0.0,0.0,0.0,0.0,0.0,0.0,0.0,0.0,0.0,0.0,0.0,0.0,0.0,0.0,0.0,0.0,0.0,0.0,0.0,0.0,0.0,0.0,0.0,0.0,0.0,0.0,2.3446,2.2483,0.0,0.0,0.0,0.0,0.0,0.0,0.0,0.0,0.0,0.0,0.0,0.0,0.0,2.497,2.4956,2.4681,2.4557,2.4571,2.5688,2.6215,2.6271,2.8013,2.9168,2.9812,2.9914,0.0,2.609,2.4507,0.0,0.0,0.0,0.0,0.0,0.0,0.0,0.0,0.0,0.0,0.0,0.0,0.0,0.0,0.0,0.0,0.0,0.0,0.0,0.0,0.0,0.0,2.6814,3.0599,3.1511,3.1511,0.0,3.1511,3.1511,3.1511,3.1511,0.0,0.0,0.0,0.0,0.0,0.0,0.0,3.1511,3.1511,3.1511,3.1511,3.1511,3.1511,3.1511,3.0972,3.0372,2.9758,2.8991,2.828,2.761,2.6177,0.0,0.0,0.0,0.0,0.0,0.0,0.0,0.0,0.0,0.0,0.0,0.0,0.0,0.0,0.0,0.0,0.0,0.0,0.0,0.0,0.0,0.0,0.0,0.0,0.0,0.0,0.0,0.0,0.0,2.1977,2.2138,2.0752,2.1571,2.1773,0.0,0.0,0.0,0.0,0.0,0.0,0.0,0.0,0.0,2.3453,2.4863,2.5604,2.5569,2.6422,2.685,2.6864,2.7417,2.7694,2.7722,2.8598,2.9473,3.0299,3.0299,2.9929,2.9222,2.7634,2.6647,2.6108,0.0,0.0,0.0,0.0,2.5443,2.5353,2.4683,2.4459,0.0,2.4459,0.0,0.0,0.0,0.0,0.0,0.0,0.0,0.0,0.0,0.0,2.8472,3.0913,3.1511,3.1511,3.1511,3.1511,3.1511,0.0,3.1511,3.1511,3.1511,0.0,0.0,0.0,0.0,0.0,3.1511,3.1511,3.1511,3.1511,3.1511,3.1511,3.1511,3.0897,3.0056,2.8987,2.8328,2.7496,2.6404,2.5742,2.5203,0.0,0.0,0.0,0.0,0.0,0.0,0.0,0.0,0.0,0.0,0.0,0.0,0.0,0.0,0.0,0.0,0.0,0.0,0.0,0.0,0.0,0.0,0.0,0.0,0.0,0.0,0.0,0.0,2.1317,2.1405,1.9447,2.0484,2.0989,0.0,0.0,0.0,0.0,0.0,0.0,2.2777,2.3723,2.4217,2.4081,2.5467,2.6182,2.6136,2.7606,2.8363,2.8363,2.8363,2.8363,2.8363,2.8363,2.8828,2.9628,2.9628,3.0103,3.0764,2.9521,2.8228,2.703,2.7028,2.7117,2.7261,2.733,2.7345,2.7255,2.6584,2.6333,2.6333,2.6333,0.0,2.6689,2.7195,0.0,0.0,0.0,0.0,2.5423,2.6752,2.8216,2.9699,3.1152,3.1511,3.1511,3.1511,3.1511,3.1511,0.0,3.1511,3.1511,3.1511,0.0,0.0,0.0,0.0,3.1511,3.1511,3.1511,3.1511,3.1511,3.1511,3.1511,3.1511,3.0732,2.9738,2.8481,2.7853,2.6891,2.5467,2.5398,2.5049,2.4307,0.0,0.0,0.0,0.0,0.0,0.0,0.0,0.0,0.0,0.0,0.0,0.0,0.0,0.0,0.0,0.0,0.0,0.0,0.0,0.0,0.0,0.0,0.0,0.0,0.0,0.0,0.0,0.0,0.0,2.0087,2.1778,0.0,0.0,0.0,0.0,2.3785,2.3396,2.3127,2.3257,2.4231,2.4529,2.4022,2.561,2.6484,2.648,2.6586,2.6624,2.6624,2.6624,2.6624,2.6624,2.6624,2.7061,2.7835,2.7835,2.8314,2.9037,2.7883,2.7735,2.8037,2.6147,2.579,2.6381,2.6582,2.6644,2.6554,2.5872,2.5648,2.5648,2.5648,2.6078,2.6614,2.6644,2.7018,0.0,0.0,2.642,2.6809,2.8143,2.8577,2.9132,3.1047,3.1511,3.1511,3.1511,3.1511,3.1511,0.0,3.1511,3.1511,3.1511,0.0,3.1511,3.1511,3.1511,3.1511,3.1511,3.1511,3.1511,3.1511,3.1511,3.1511,3.1511,3.0357,2.9292,2.8438,2.79,2.6932,2.5453,2.5398,2.5049,2.4307,2.3558,0.0,0.0,0.0,0.0,0.0,0.0,0.0,0.0,0.0,0.0,0.0,0.0,0.0,0.0,0.0,0.0,0.0,0.0,0.0,0.0,0.0,0.0,0.0,0.0,0.0,0.0,0.0,0.0,2.2006,2.2993,0.0,2.1557,2.1488,2.1778,2.2392,2.3197,2.3694,2.3749,2.5117,2.5804,2.5619,2.6185,2.6499,2.6499,2.6499,2.6499,2.6499,2.6499,2.6499,2.6499,2.6499,2.6939,2.7703,2.7703,2.8198,2.8931,2.7956,2.8037,2.8681,2.7965,2.7824,2.8051,2.8121,2.8138,2.8109,2.7868,2.7783,2.7783,2.7783,2.834,2.8748,2.7438,2.7605,2.7801,2.5708,2.6048,2.7028,2.6958,2.7896,2.9034,2.9732,2.9889,2.9889,2.9889,2.9889,2.9889,2.9889,3.0762,3.1511,3.1511,3.1511,3.1511,3.1511,3.1511,3.1511,3.1511,3.1511,3.1511,3.1511,3.1511,3.1331,3.0897,3.0073,2.8893,2.723,2.6957,2.5999,2.399,2.4423,2.4322,2.3531,2.3258,2.3108,0.0,0.0,0.0,0.0,0.0,0.0,0.0,0.0,0.0,0.0,0.0,0.0,0.0,0.0,0.0,0.0,0.0,0.0,0.0,0.0,0.0,0.0,0.0,0.0,0.0,0.0,2.2859,2.2832,2.3512,2.3703,2.2949,2.2548,2.2575,2.314,2.4221,2.4849,2.4849,2.5896,2.6499,2.6499,2.6499,2.6499,2.6499,2.6499,2.6499,2.6499,2.6499,2.6499,2.6499,2.6499,2.6799,2.73,2.73,2.762,2.8117,2.7534,2.7637,2.8182,2.846,2.8556,2.8604,2.8891,2.9002,2.9002,2.9002,2.9002,2.9002,2.9002,2.9395,2.9616,2.8293,2.8283,2.8348,2.6422,2.6863,2.7737,2.7165,2.7999,2.9002,2.9002,2.9002,2.9002,2.9002,2.9002,2.9002,2.9002,3.0118,3.1102,3.1102,3.1322,3.1511,3.1511,3.1511,3.1511,3.1511,3.1511,3.1511,3.1511,3.1511,3.114,3.0213,2.98,2.8569,2.615,2.6312,2.5481,2.3185,2.4105,2.4293,2.3516,2.3499,2.3365,2.3108,0.0,0.0,0.0,0.0,0.0,0.0,0.0,0.0,0.0,0.0,0.0,0.0,0.0,0.0,0.0,0.0,0.0,0.0,0.0,0.0,0.0,0.0,0.0,1.9861,2.2284,2.3615,2.2573,2.3414,2.4079,2.4079,2.4092,2.4786,2.6399,2.6537,2.6549,2.6549,2.6549,2.6549,2.6549,2.6549,2.6549,2.6549,2.6549,2.6549,2.6549,2.6549,2.6537,2.6512,2.6512,2.6512,2.6499,2.6499,2.6499,2.6499,2.6499,2.6499,2.6572,2.7351,2.7653,2.7769,2.8604,2.8923,2.8923,2.8923,2.8923,2.8923,2.8923,2.8939,2.8955,2.8955,2.8987,2.8987,2.8971,2.8955,2.8955,2.8939,2.8923,2.8923,2.8923,2.8923,2.8923,2.8923,2.8923,2.8923,2.8923,2.9613,3.0238,3.0253,3.0925,3.1452,3.1452,3.1467,0.0,3.1467,3.1452,3.1452,3.1452,3.1452,3.0909,2.9523,2.9492,2.8318,2.5393,2.598,2.5425,2.3185,2.4539,2.4993,2.4278,2.4263,2.387,2.3108,0.0,0.0,0.0,0.0,0.0,0.0,0.0,0.0,0.0,0.0,0.0,0.0,0.0,0.0,0.0,0.0,0.0,0.0,0.0,0.0,0.0,0.0,2.3565,2.2937,2.3514,2.433,2.5226,2.5632,2.582,2.582,2.6155,2.6582,2.7052,2.7449,2.7657,2.7657,2.7657,2.7657,2.7657,2.7657,2.7657,2.7657,2.7657,2.7657,2.7657,2.7657,2.7462,2.7072,2.7072,2.6876,2.6499,2.6499,2.6499,2.6499,2.6499,2.6499,2.6521,2.6731,2.6833,2.6867,2.7095,2.7196,2.7196,2.7196,2.7196,2.7196,2.7196,2.7571,2.8068,2.8068,2.8492,2.8876,2.8247,2.8068,2.792,2.7334,2.7196,2.7196,2.7196,2.7196,2.7196,2.7196,2.7196,2.7196,2.7196,2.7838,2.862,2.9254,3.0057,3.0629,3.0629,3.1117,0.0,3.0688,3.0629,3.0629,3.0629,3.0629,3.0338,2.9619,2.9032,2.7767,2.549,2.5074,2.4366,2.314,2.3501,2.3649,2.3439,2.3424,2.332,0.0,0.0,0.0,0.0,0.0,0.0,0.0,0.0,0.0,0.0,0.0,0.0,0.0,0.0,0.0,0.0,0.0,0.0,0.0,0.0,0.0,0.0,2.3891,2.5624,2.5711,2.5724,2.6076,2.7047,2.7173,2.7173,2.7173,2.7462,2.765,2.765,2.7921,2.8109,2.8109,2.8109,2.8109,2.8109,2.8109,2.8109,2.8109,2.8109,2.8109,2.8109,2.8109,2.7946,2.765,2.765,2.7336,0.0,2.6839,2.6713,2.6499,2.6499,2.6499,0.0,0.0,0.0,0.0,0.0,2.6499,2.6499,2.6499,2.6499,2.6499,2.6499,2.6816,2.7196,2.7196,2.7537,2.7838,2.7334,2.7196,2.7078,2.6624,2.6499,2.6499,2.6499,2.6499,2.6499,2.6499,2.6499,2.6499,2.6499,2.6871,0.0,2.7871,2.8955,2.9766,2.9766,3.0148,3.0284,2.9827,2.9766,2.9766,2.9766,2.9766,2.933,2.8225,2.7982,0.0,0.0,0.0,2.4089,2.3619,2.359,0.0,0.0,0.0,2.3439,2.3108,0.0,0.0,0.0,2.3108,2.3108,0.0,0.0,0.0,0.0,0.0,0.0,0.0,0.0,0.0,0.0,0.0,0.0,0.0,0.0,0.0,0.0,2.4854,2.659,2.8084,2.8298,2.8247,2.8122,2.8109,2.8109,2.8109,2.8141,2.8197,2.8197,2.826,2.8298,2.8298,0.0,0.0,0.0,0.0,2.8298,2.8298,2.8298,2.8298,2.8298,2.8298,2.826,2.8197,2.8197,2.7896,2.7386,2.7386,2.7102,2.6587,2.6587,2.6549,2.6499,2.6499,2.6499,2.6499,2.6499,2.6499,2.6499,2.6499,0.0,0.0,2.6499,2.6499,2.6499,2.6499,2.6499,2.6499,2.6499,2.6499,2.6499,2.6499,2.6499,2.6499,2.6499,2.6499,2.6499,2.6499,2.6499,2.6499,2.6499,2.6499,2.6499,2.6499,2.7819,2.886,2.886,2.8939,2.8955,2.8876,2.886,2.886,2.886,0.0,0.0,2.6378,2.6758,2.5975,2.3411,2.3811,2.4162,2.4162,2.4162,2.4162,2.4162,2.4162,2.3811,2.3108,2.3108,2.3108,2.3108,2.3108,2.3108,0.0,0.0,0.0,0.0,0.0,0.0,0.0,0.0,0.0,0.0,0.0,0.0,0.0,0.0,0.0,2.4352,2.7,2.9101,2.9428,2.9465,2.9126,2.821,2.8109,2.8109,2.8109,2.8493,2.8756,2.8756,2.9202,2.9465,2.9465,2.9465,2.9465,2.9465,2.9465,2.9465,2.9465,2.9465,2.9465,2.9465,0.0,0.0,2.8756,2.8756,2.8442,2.7946,2.7946,2.7632,2.7148,2.7148,2.6901,2.6499,2.6499,2.6499,2.6499,2.6499,2.6499,2.6499,2.6499,2.6499,2.6499,2.6499,2.6499,2.6499,2.6499,2.6499,0.0,2.6499,2.6499,2.6499,2.6499,2.6499,2.6499,2.6499,2.6499,2.6499,2.6499,2.6499,2.6499,2.6499,2.6499,2.6499,2.6499,2.73,2.7953,2.7953,2.8556,2.8748,2.8035,2.7953,2.7953,2.7953,2.7953,2.7683,2.7049,2.6577,2.5673,2.4154,2.359,2.3335,2.3335,2.3335,2.3335,2.3335,2.3335,2.3273,2.3108,2.3108,2.3108,2.3108,2.3108,2.3108,0.0,0.0,0.0,0.0,0.0,0.0,0.0,0.0,0.0,0.0,0.0,2.0778,0.0,0.0,2.5737,2.6013,2.816,2.9792,2.9792,2.9792,2.9578,2.9013,2.895,2.895,2.895,2.9202,2.9346,2.9346,2.9628,2.9792,2.9792,2.9792,2.9792,2.9792,2.9792,2.9792,2.9792,2.9792,2.9792,2.9792,2.9792,2.9641,2.9346,2.9346,2.9032,2.8493,2.8493,2.821,2.767,2.7412,2.6989,2.6499,2.6499,2.6499,2.6499,2.6499,2.6499,2.6499,2.6499,2.6499,2.6499,2.6499,2.6499,2.6499,2.6499,2.6499,2.6499,2.6499,2.6499,2.6499,2.6499,2.6499,2.6499,2.6499,2.6499,2.6499,2.6499,2.6499,2.6499,2.6499,2.6499,2.6499,2.6499,2.6833,2.7095,2.7095,2.7467,2.7587,2.7162,2.7095,2.7095,2.7095,2.7095,2.6797,2.6066,2.5144,2.4344,2.3732,2.332,2.3108,2.3108,2.3108,2.3108,2.3108,2.3108,2.3108,2.3108,2.3108,2.3108,2.3095,2.2819,2.2694,0.0,0.0,0.0,0.0,0.0,0.0,0.0,0.0,2.0952,2.2732,2.3574,2.4004,2.4004,2.5816,2.7298,2.7298,2.8718,2.9792,2.9792,2.9792,2.9792,2.9792,2.9792,2.9792,2.9792,2.9792,2.9792,2.9792,2.9792,2.9792,2.9792,2.9792,2.9792,2.9792,2.9792,2.9792,2.9792,2.9792,2.9792,2.9792,2.9792,2.9792,2.9792,2.9792,2.9541,2.907,2.8938,2.8656,2.821,2.7557,2.7052,2.665,2.6537,2.6499,2.6499,2.6499,2.6499,2.6499,2.6499,2.6499,2.6499,2.6499,2.6499,2.6499,2.6499,2.6499,2.6499,2.6499,2.6499,2.6499,2.6499,2.6499,2.6499,2.6499,2.6499,2.6499,2.6499,2.6499,2.6499,2.6499,2.6499,2.6499,2.6499,2.6499,2.6499,2.6499,2.6499,2.6499,2.6499,2.6499,2.6499,2.6499,2.6499,2.6047,2.4904,2.386,2.3221,2.3108,2.3108,2.3108,2.3108,2.3108,2.3108,2.3108,2.3108,2.3108,2.3108,2.3108,2.3045,2.2932,2.2508,2.2295,1.6143,1.7461,1.9391,1.9088,2.0876,2.2732,0.0,0.0,2.2807,2.3058,2.3574,2.4004,2.4004,2.5816,2.7298,2.7298,2.8718,2.9792,2.9792,2.9792,2.9792,2.9792,2.9792,2.9792,2.9792,2.9792,2.9792,2.9792,2.9792,2.9792,2.9792,2.9792,2.9792,2.9792,2.9792,2.9792,2.9792,2.9792,2.9792,2.9792,2.9792,2.9792,2.9792,2.9792,2.9754,2.9666,2.9132,2.8881,2.8731,2.7708,2.7261,2.716,2.6688,2.6499,2.6499,2.6499,2.6499,2.6499,2.6499,2.6499,2.6499,2.6499,2.6499,2.6499,2.6499,2.6499,2.6499,2.6499,2.6499,2.6499,2.6499,2.6499,2.6499,2.6499,2.6499,2.6499,2.6499,2.6499,2.6499,2.6499,2.6499,2.6499,2.6499,2.6499,2.6499,2.6499,2.6499,2.6499,2.6499,2.6499,2.6499,2.6499,2.6499,2.6047,2.4904,2.4239,2.3662,2.3133,2.3108,2.3108,2.3108,2.3108,2.3108,2.3108,2.3108,2.3108,2.3108,2.3108,2.2857,2.2383,2.232,2.2295,2.0994,2.1033,0.0,0.0,2.4222,2.4895,2.4232,2.4099,2.4268,2.4936,2.5773,2.6202,2.5579,2.672,2.7555,0.0,2.7947,2.8916,2.9232,2.9856,3.0112,2.974,3.0295,3.0502,2.9854,2.9792,2.9792,2.9792,3.0093,3.0269,3.0269,3.0557,3.0583,3.0281,3.0269,3.0118,2.9792,2.9792,2.9792,2.9792,2.9792,2.9792,2.9792,2.9792,2.9792,2.9798,2.9528,2.922,2.8881,2.8417,2.7858,2.7273,2.7047,2.6776,2.6499,2.6499,2.6499,2.6499,2.6499,2.6499,2.6499,2.6499,2.6499,2.6499,2.6499,2.6499,2.6499,2.6499,2.6499,2.6499,2.6499,2.6499,2.6499,2.6499,2.6499,2.6499,2.6499,2.6499,2.6499,2.6499,2.6499,2.6499,2.6499,2.6499,2.6499,2.6499,2.6499,2.6499,2.6499,2.6499,2.6499,2.6499,2.6197,2.5665,2.4879,2.4302,2.3738,2.3145,2.3108,2.3108,2.3108,2.3108,2.3108,2.3108,2.3108,2.3108,2.3108,2.3108,2.2819,2.2297,2.2341,2.1995,2.2296,0.0,0.0,2.4701,2.6003,2.6444,2.5623,2.5521,2.5831,2.6655,2.7447,2.7756,2.6968,2.7467,2.7736,2.6948,2.7488,2.8131,2.8514,2.9272,2.9613,2.9129,2.9843,3.0064,2.9302,2.9831,3.0231,3.0231,3.0595,3.0834,3.0834,3.1185,3.1223,3.0834,3.0487,3.0086,2.9561,2.9221,2.9135,2.9326,2.9326,2.9495,2.9792,2.9792,2.9624,2.9326,2.9326,2.8924,2.8222,2.8064,2.7521,2.6803,2.6548,2.6212,2.5859,2.5718,2.6013,2.6499,2.6499,2.6499,2.6499,2.6499,2.6499,2.6499,2.6499,2.6499,2.6499,2.6499,2.6499,2.6499,2.6499,2.6499,2.6499,2.6499,2.6499,2.6499,2.6499,2.6499,2.6499,2.6499,2.6499,2.6499,2.6499,2.6499,2.6499,2.6499,2.6499,2.6499,2.6499,2.6499,2.6499,2.6499,2.6105,2.5561,2.4867,2.444,2.3901,2.3145,2.3108,2.3108,2.3108,2.3108,2.3108,2.3108,2.3108,2.3108,2.3108,2.3108,2.2819,2.2311,2.2559,2.2053,0.0,0.0,2.0689,2.2006,2.4723,2.7077,2.7046,2.7339,2.762,2.7654,2.7687,2.7709,2.7665,2.7687,2.7709,2.7665,2.7687,2.772,2.7731,2.7775,2.7786,2.7753,2.7797,2.7808,0.0,2.9941,3.1356,3.1356,3.1381,3.1381,3.1381,3.1386,3.1386,3.1381,3.024,2.9401,2.8939,2.7777,2.7515,2.8156,2.8156,2.8727,2.9792,2.9792,2.9197,2.8156,2.8156,2.7542,2.6519,2.5943,2.5679,2.5556,2.4654,2.4273,2.4205,2.3749,2.4838,2.6499,2.6499,2.6499,2.6499,2.6499,2.6499,2.6499,2.6499,2.6499,2.6499,2.6499,2.6499,2.6499,2.6499,2.6499,2.6499,2.6499,2.6499,2.6499,2.6499,2.6499,2.6499,2.6499,2.6499,2.6499,2.6499,2.6499,2.6499,2.6499,2.6499,2.6499,2.6499,2.6499,2.6499,2.6499,2.6474,2.6017,2.4904,2.4791,2.4299,2.317,2.3108,2.3108,2.3108,2.3108,2.3108,2.3108,2.3108,2.3108,2.3108,2.3108,2.2819,2.2324,2.3032,2.2692,0.0,0.0,2.2956,2.5266,2.6674,2.7303,2.6604,2.6534,2.6429,2.5665,2.5186,2.4689,2.398,2.443,2.4679,2.398,2.5417,2.6759,2.7114,2.782,2.8132,2.7687,2.8348,0.0,0.0,0.0,0.0,2.8951,2.932,2.9539,2.9539,2.9887,2.9922,2.9551,2.9147,2.8551,2.7695,2.7295,2.7068,2.7046,2.7046,2.7241,2.7617,2.7617,2.7403,2.7046,2.7046,2.6821,2.6481,2.6272,2.5963,2.5543,2.4965,2.4507,2.4141,2.3668,2.3927,2.4505,2.4505,2.4505,2.4624,2.5288,2.5494,2.5629,2.6297,2.6499,2.6499,2.6499,2.6499,2.6499,2.6499,2.6499,2.6499,2.6499,2.6499,2.6499,2.6499,2.6499,2.6499,2.6499,2.6499,2.6499,2.6499,2.6499,2.6499,2.6499,2.6499,2.6499,2.6499,2.6499,2.6499,2.6499,2.6499,2.6047,2.4904,2.4804,2.4311,2.317,2.3108,2.3108,2.3108,2.3108,2.3108,2.3108,2.3108,2.3108,2.3108,2.3108,2.2819,2.2324,2.3002,2.2676,0.0,2.2293,2.3691,2.5962,2.6647,2.6594,2.591,2.5837,2.575,2.5024,2.4061,2.3153,2.2451,2.2402,2.23,2.1743,2.3164,2.469,2.5667,2.6415,2.6881,2.6914,2.7602,2.7757,0.0,0.0,0.0,2.8244,2.8679,2.8891,2.8891,2.9216,2.9238,2.8903,2.8461,2.7862,2.7042,2.6421,2.6055,2.5912,2.6307,2.6504,2.6504,2.6504,2.6286,2.588,2.588,2.5662,2.5295,2.5295,2.506,2.4678,2.426,2.381,2.3321,2.2851,2.2582,2.2563,2.3257,2.3496,2.3617,2.4246,2.4463,2.4654,2.5652,2.596,2.6042,2.6401,2.6499,2.6499,2.6499,2.6499,2.6499,2.6499,2.6499,2.6499,2.6499,2.6499,2.6499,2.6499,2.6499,2.6499,2.6499,2.6499,2.6499,2.6499,2.6499,2.6499,2.6499,2.6499,2.6499,2.6499,2.6499,2.6122,2.5172,2.4904,2.4415,2.3471,2.3221,2.3108,2.3108,2.3108,2.3108,2.3108,2.3108,2.3108,2.3108,2.3108,2.292,2.2598,2.3327,2.3089,2.1747,2.2586,2.2947,2.4157,2.4795,2.5121,2.5121,2.543,2.5664,2.5601,2.4153,2.2906,0.0,0.0,2.0693,2.1074,2.1298,2.201,2.3662,2.3887,2.4355,0.0,0.0,0.0,0.0,0.0,0.0,2.9039,0.0,2.9223,2.9223,2.9223,2.9223,2.9223,2.8085,2.7275,2.6804,2.5191,2.4476,2.4723,2.5808,2.6338,2.6338,2.6338,2.5745,2.4702,2.4702,2.4103,2.3091,2.3091,2.3091,2.3052,2.2654,2.2256,2.1836,2.1376,2.0947,2.0867,2.2702,2.3349,2.3349,2.3404,2.3423,2.3617,2.4618,2.4915,2.5123,2.6077,2.6349,2.6366,2.6401,2.6418,2.6448,2.6499,2.6499,2.6499,2.6499,2.6499,2.6499,2.6499,2.6499,2.6499,2.6499,2.6499,2.6499,2.6499,2.6499,2.6499,2.6499,2.6499,2.6499,2.6499,2.6499,2.626,2.5649,2.5105,2.4566,2.4029,2.3421,2.3108,2.3108,2.3108,2.3108,2.3108,2.3108,2.3108,2.3108,2.3108,2.3108,2.3123,2.3884,2.3826,2.2752,2.3903,2.4967,2.5298,2.5454,2.5542,2.5542,2.563,2.5323,2.4027,2.2147,2.0332,0.0,0.0,0.0,2.0215,2.2674,0.0,2.5152,2.522,0.0,0.0,0.0,2.5693,2.5693,2.5693,0.0,0.0,2.6634,2.6634,2.6634,2.6634,2.6634,2.6634,2.6332,2.5978,2.5554,2.45,2.3806,2.3529,2.3822,2.3973,2.3973,2.3973,2.381,2.3529,2.3529,2.3365,2.3091,2.3091,2.3091,2.3052,2.2654,2.2256,2.1836,2.1376,2.0947,2.0673,2.1184,2.1346,2.1451,2.217,2.2384,2.2571,2.358,2.3872,2.3945,2.4199,2.4271,2.4433,2.5182,2.5388,2.5564,2.6314,2.6499,2.6499,2.6499,2.6499,2.6499,2.6499,2.6499,2.6499,2.6499,2.6499,2.6499,2.6499,2.6499,2.6499,2.6499,2.6499,2.6499,2.6499,2.6499,2.626,2.5649,2.5105,2.4566,2.4029,2.3421,2.3108,2.3108,2.3108,2.3108,2.3108,2.3108,2.3108,2.3108,2.3108,2.3108,2.3108,2.3305,2.329,2.4059,2.4967,2.5693,2.5693,2.5693,2.5513,2.4729,2.443,2.3806,2.2059,1.9991,0.0,0.0,0.0,0.0,0.0,0.0,0.0,2.4752,2.4859,2.5074,0.0,2.5693,0.0,2.5693,2.5693,2.5693,0.0,2.5693,2.5693,2.5693,2.5693,2.5693,2.5693,2.5693,2.5406,2.4785,2.4307,2.3728,2.3091,2.3091,2.3091,2.3091,2.3091,2.3091,2.3091,0.0,2.3091,2.3091,2.3091,2.3091,2.3071,2.2859,2.2412,2.1876,2.1591,2.1113,2.0605,2.0605,2.0605,2.0702,2.1202,2.1394,2.1574,2.2553,2.285,2.2925,2.3386,2.3496,2.3727,2.4743,2.4987,2.5247,2.6263,2.6499,2.6499,2.6499,2.6499,2.6499,2.6499,2.6499,2.6499,2.6499,2.6499,2.6499,2.6499,2.6499,2.6499,2.6499,2.6499,2.6499,2.6499,2.6499,2.6361,2.6017,2.5272,2.4678,2.4365,2.3559,2.3108,2.3108,2.3108,2.3108,2.3108,2.3108,2.3108,2.3108,2.3108,2.3108,2.3108,2.3108,2.3108,2.5308,2.5693,2.5693,2.5693,2.5693,2.5259,2.3523,2.2791,2.1932,1.9962,0.0,1.6541,1.6317,1.683,1.7507,1.8086,0.0,2.2069,2.3809,2.4043,2.4463,2.5581,2.5693,2.5693,2.5693,2.5693,2.5693,2.5693,2.5693,2.5693,2.5693,2.5693,2.5693,2.5693,2.5693,2.5289,2.4401,2.4391,2.3962,2.3091,2.3091,2.3091,2.3091,2.3091,2.3091,2.3091,2.3091,0.0,2.3091,2.3091,2.3091,2.3091,2.3091,2.2635,2.1963,2.1925,2.1378,2.0664,2.0625,2.0605,2.0605,2.0605,2.0605,2.075,2.1574,2.1811,2.2,2.2869,2.3121,2.3379,2.451,2.4808,2.5093,2.6228,2.6499,2.6499,2.6499,2.6499,2.6499,2.6499,2.6499,2.6499,2.6499,2.6499,2.6499,2.6499,2.6499,2.6499,2.6499,2.6499,2.6499,2.6499,2.6499,2.6499,2.6499,2.5448,2.4804,2.4804,2.3735,2.3108,2.3108,2.3108,2.3108,2.3108,2.3108,2.3108,2.3108,2.3108,2.3108,2.3108,2.3108,2.3108,2.5606,2.5693,2.5693,2.5693,2.5693,2.5259,2.3577,2.2822,0.0,0.0,0.0,1.5757,1.4313,1.5571,0.0,1.8828,0.0,0.0,0.0,0.0,2.5464,0.0,0.0,0.0,0.0,0.0,0.0,0.0,0.0,2.5693,2.5693,2.5693,2.5693,2.5693,2.5693,2.5289,2.4401,2.4391,2.3962,2.3091,2.3091,2.3091,2.3091,2.3091,2.3091,2.3091,2.3091,0.0,2.3091,2.3091,2.3091,2.3091,2.3091,2.281,2.2363,2.2012,2.1562,2.1045,2.0713,2.0605,2.0605,2.0605,2.0605,2.0625,2.0789,2.0847,2.0876,2.1049,2.1097,2.1508,2.3294,2.3763,2.4217,2.6047,2.6499,2.6499,2.6499,2.6499,2.6499,2.6499,2.6499,2.6499,2.6499,2.6499,2.6499,2.6499,2.6499,2.6499,2.6499,2.6499,2.6499,2.6499,2.6499,2.6499,2.6499,2.5448,2.4804,2.4804,2.3735,2.3108,2.3108,2.3108,2.3108,2.3108,2.3108,2.3108,2.3108,2.3108,2.3108,2.3108,2.3108,2.3108,2.5693,2.5693,2.5693,2.5693,2.5693,2.5025,2.2433,0.0,0.0,0.0,1.5352,1.4736,1.3688,0.0,0.0,0.0,0.0,0.0,0.0,0.0,0.0,0.0,0.0,0.0,0.0,0.0,0.0,0.0,0.0,2.5693,2.5693,2.5693,2.5693,2.5693,2.5693,2.5289,2.4401,2.4391,2.3962,2.3091,2.3091,2.3091,2.3091,2.3091,2.3091,2.3091,2.3091,0.0,2.3091,2.3091,2.3091,2.3091,2.3091,2.2859,2.244,2.2041,2.1611,2.1152,2.0742,2.0605,2.0605,2.0605,2.0605,2.0605,2.0605,2.0605,2.0605,2.0605,2.0605,2.0934,2.2357,2.311,2.3891,2.537,2.6112,2.6499,2.6499,2.6499,2.6499,2.6499,2.6499,2.6499,2.6499,2.6499,2.6499,2.6499,2.6499,2.6499,2.6499,2.6499,2.6499,2.6499,2.6499,2.6499,2.6499,2.5716,2.5093,2.4829,2.4026,2.3436,2.3108,2.3108,2.3108,2.3108,2.3108,2.3108,2.3108,2.3108,2.3108,2.3108,2.3108,2.3108,2.561,2.5693,2.5693,2.5693,2.5693,2.4801,2.1378,2.0244,0.0,0.0,1.4172,1.4007,1.3688,0.0,0.0,0.0,0.0,0.0,0.0,0.0,0.0,0.0,0.0,0.0,0.0,0.0,0.0,0.0,0.0,0.0,2.5693,2.5693,2.5693,2.5693,2.5693,2.5289,2.4401,2.4391,2.3962,2.3091,2.3091,2.3091,2.3091,2.3091,2.3091,2.3091,2.3091,0.0,0.0,2.3091,2.3091,2.3091,2.3091,2.2918,2.2566,2.207,2.167,2.1279,2.0772,2.0605,2.0605,2.0605,2.0605,2.0605,2.0605,2.0605,2.0605,2.0605,2.0605,2.0828,2.1754,2.2758,2.3818,2.504,2.5908,2.6499,2.6499,2.6499,2.6499,2.6499,2.6499,2.6499,2.6499,2.6499,2.6499,2.6499,2.6499,2.6499,2.6499,2.6499,2.6499,2.6499,2.6499,2.6499,2.6499,2.5954,2.5372,2.4842,2.4305,2.3725,2.3118,2.3108,2.3108,2.3108,2.3108,2.3108,2.3108,2.3108,2.3108,2.3108,2.3108,2.3108,2.5289,2.5693,2.5693,2.5693,2.5693,2.4801,2.1378,0.0,0.0,1.5454,1.44,1.4094,1.4055,1.459,0.0,0.0,0.0,1.958,0.0,0.0,0.0,0.0,0.0,0.0,0.0,0.0,0.0,0.0,0.0,0.0,2.5693,2.5693,2.5693,2.5693,2.5693,2.5289,2.4401,2.4391,2.3962,2.3091,2.3091,2.3091,2.3091,2.3091,2.3091,2.3091,2.3091,0.0,0.0,2.3091,2.3091,2.3091,2.3091,2.3071,2.2945,2.2178,2.1865,2.1729,2.0899,2.0605,2.0605,2.0605,2.0605,2.0605,2.0605,2.0605,2.0605,2.0605,2.0605,2.0828,2.1754,2.2758,2.397,2.5908,2.6435,2.6499,2.6499,2.6499,2.6499,2.6499,2.6499,2.6499,2.6499,2.6499,2.6499,2.6499,2.6499,2.6499,2.6499,2.6499,2.6499,2.6499,2.6499,2.6499,2.6499,2.5954,2.5372,2.4842,2.4305,2.3725,2.3118,2.3108,2.3108,2.3108,2.3108,2.3108,2.3108,2.3108,2.3108,2.3108,2.3108,2.3108,2.524,2.5693,2.5693,2.5693,2.4928,2.3555,2.1163,0.0,1.7991,1.5356,1.483,1.481,1.457,1.4873,1.5391,0.0,0.0,0.0,0.0,0.0,0.0,0.0,0.0,0.0,0.0,0.0,0.0,0.0,0.0,0.0,2.5693,2.5693,2.5693,2.5693,2.5693,2.5289,2.4401,2.4391,2.3962,2.3091,2.3091,2.3091,2.3091,2.3091,2.3091,2.3091,2.3091,0.0,0.0,2.3091,2.3091,2.3091,2.3091,2.3091,2.2994,2.2197,2.1905,2.1778,2.0909,2.0605,2.0605,2.0605,2.0605,2.0605,2.0605,2.0605,2.0605,2.0605,2.0605,2.0702,2.1059,2.232,2.3854,2.5252,2.606,2.6499,2.6499,2.6499,2.6499,2.6499,2.6499,2.6499,2.6499,2.6499,2.6499,2.6499,2.6499,2.6499,2.6499,2.6499,2.6499,2.6499,2.6499,2.6499,2.6499,2.6285,2.5766,2.4854,2.4603,2.4076,2.3145,2.3108,2.3108,2.3108,2.3108,2.3108,2.3108,2.3108,2.3108,2.3108,2.3108,2.3108,2.4479,2.5328,2.5693,2.5693,2.441,2.2726,0.0,0.0,1.7432,1.5405,1.5205,1.5308,1.5029,1.5215,1.5396,1.5396,0.0,1.7444,0.0,0.0,0.0,0.0,0.0,0.0,0.0,0.0,0.0,0.0,0.0,0.0,2.5693,2.5693,2.5693,2.5693,2.5693,2.5289,2.4401,2.4391,2.377,2.2558,2.2938,2.2906,2.2589,2.2928,2.3091,2.3069,2.2721,0.0,0.0,2.2183,2.2041,2.2072,2.2425,2.2567,2.2506,2.2062,2.1905,2.1778,2.0909,2.0605,2.0605,2.0605,2.0605,2.0605,2.0605,2.0605,2.0605,2.0605,2.0605,2.0654,2.0934,2.2245,2.3763,2.4761,2.5769,2.6499,2.6499,2.6499,2.6499,2.6499,2.6499,2.6499,2.6499,2.6499,2.6499,2.6499,2.6499,2.6499,2.6499,2.6499,2.6499,2.6499,2.6499,2.6499,2.6499,2.6499,2.6005,2.4879,2.4804,2.4286,2.3158,2.3108,2.3108,2.3108,2.3108,2.3108,2.3108,2.3108,2.3108,2.3108,2.3108,2.3108,2.2736,2.4443,2.5693,2.5693,2.4378,2.2664,0.0,0.0,1.7493,1.5747,1.541,1.5396,1.5386,1.541,1.5396,1.5396,1.5415,0.0,0.0,0.0,0.0,0.0,0.0,0.0,0.0,0.0,0.0,0.0,0.0,0.0,2.5693,2.5693,2.5693,2.5693,2.5693,2.5289,2.4401,2.4391,2.3364,2.1337,2.2536,2.247,2.136,2.2558,2.3091,0.0,0.0,0.0,0.0,2.0034,1.9542,1.9648,2.0845,2.1315,2.1358,2.1757,2.1905,2.1778,2.0909,2.0605,2.0605,2.0605,2.0605,2.0605,2.0605,2.0605,2.0605,2.0605,2.0605,2.0809,2.1735,2.2739,2.3763,2.4761,2.5769,2.6499,2.6499,2.6499,2.6499,2.6499,2.6499,2.6499,2.6499,2.6499,2.6499,2.6499,2.6499,2.6499,2.6499,2.6499,2.6499,2.6499,2.6499,2.6499,2.6499,2.6499,2.6005,2.4879,2.4804,2.4286,2.3158,2.3108,2.3108,2.3108,2.3108,2.3108,2.3108,2.3108,2.3108,2.3108,2.3108,2.3108,2.0938,2.1808,2.2197,2.2197,2.0908,1.9474,1.8945,0.0,1.6074,1.5513,1.5396,1.5396,1.5396,1.5396,1.5508,1.5825,1.5889,0.0,0.0,0.0,0.0,0.0,0.0,0.0,0.0,0.0,0.0,0.0,0.0,0.0,2.4378,2.4328,2.4741,2.5659,2.4623,2.3782,2.3186,2.2035,2.098,2.0079,2.1302,2.1235,2.0102,2.1324,2.1422,0.0,0.0,0.0,0.0,1.9648,1.9988,2.0778,2.1159,2.1293,2.1358,2.1748,2.1349,2.0595,2.0593,2.0605,2.0605,2.0605,2.0605,2.0605,2.0605,2.0605,2.0605,2.0605,2.0605,2.0673,2.0972,2.1764,2.2553,2.2869,2.3715,2.4642,2.5335,2.5476,2.5681,2.6366,2.6499,2.6499,2.6499,2.6499,2.6499,2.6499,2.6499,2.6499,2.6499,2.6499,2.6499,2.6499,2.6499,2.6499,2.6499,2.6499,2.6172,2.5398,2.5005,2.4478,2.3738,2.3308,2.3108,2.3108,2.3108,2.3108,2.3108,2.3108,2.3108,2.3108,2.3108,2.2808,0.0,2.0087,2.0605,2.0605,1.9296,0.0,0.0,0.0,1.5396,1.5396,1.5396,1.5396,1.5396,1.5396,1.5498,1.5786,0.0,0.0,0.0,0.0,0.0,0.0,0.0,0.0,0.0,0.0,0.0,0.0,0.0,0.0,2.3001,2.2951,2.3263,2.3975,2.3028,2.2296,2.1862,2.0678,1.9657,1.8841,2.0034,1.9988,1.8864,2.0079,2.0215,0.0,0.0,0.0,0.0,1.8311,1.8549,1.9267,1.9761,1.9943,1.9994,2.0415,2.0328,2.0003,1.9998,2.0265,2.0605,2.0605,2.0605,2.0605,2.0605,2.0605,2.0605,2.0605,2.0605,2.0605,2.0605,2.1298,2.1989,2.1989,2.3054,2.4246,2.4862,2.53,2.5751,2.6383,2.6499,2.6499,2.6499,2.6499,2.6499,2.6499,2.6499,2.6499,2.6499,2.6499,2.6499,2.6499,2.6499,2.6499,2.6499,2.6499,2.6248,2.5636,2.5093,2.4396,2.3552,2.3256,2.2959,2.2656,2.2957,2.2944,2.2656,2.2326,2.2172,2.2172,2.2172,2.1881,0.0,1.8948,0.0,0.0,0.0,0.0,0.0,0.0,0.0,1.5308,1.5308,1.5337,1.5381,1.5396,1.5405,1.5435,0.0,0.0,0.0,0.0,0.0,0.0,0.0,0.0,0.0,0.0,0.0,0.0,0.0,0.0,2.155,2.1525,2.1327,2.0941,2.0876,2.072,2.044,2.0,1.9035,1.7575,1.8795,1.8749,1.7622,1.8818,1.9306,0.0,0.0,0.0,0.0,1.6292,1.5849,1.6062,1.7248,1.7692,1.7772,1.8227,1.9008,1.9793,1.9207,1.9697,2.0605,2.0605,2.0605,2.0605,2.0605,2.0605,2.0605,2.0605,2.0605,2.0605,2.0605,2.1251,2.1905,2.1905,2.3386,2.4808,2.488,2.5681,2.6418,2.6499,2.6499,2.6499,2.6499,2.6499,2.6499,2.6499,2.6499,2.6499,2.6499,2.6499,2.6499,2.6499,2.6499,2.6499,2.6499,2.6499,2.626,2.5703,2.5056,2.4119,2.2814,2.292,2.2628,2.1815,2.2537,2.2552,2.1799,2.0989,2.0606,2.0606,2.0606,2.0574,1.5148,0.0,1.6621,1.6621,1.6303,1.5849,0.0,0.0,0.0,0.0,0.0,1.4673,1.5294,1.5396,1.5518,0.0,0.0,0.0,0.0,0.0,0.0,0.0,0.0,0.0,0.0,0.0,0.0,0.0,0.0,2.1219,2.0161,1.989,1.9267,1.8169,1.7683,1.7897,1.8827,1.7479,1.6614,1.6251,1.7514,1.7451,1.6292,1.7544,1.7584,0.0,0.0,0.0,1.6221,1.592,1.6362,1.7271,1.7575,1.7692,1.7772,1.8227,1.8501,1.865,1.8904,1.9697,2.0605,2.0605,2.0605,2.0605,2.0605,2.0605,2.0605,2.0605,2.0605,2.0605,2.0605,2.077,2.0934,2.0934,2.184,2.2925,2.369,2.4636,2.5581,2.6349,2.6499,2.6499,2.6499,2.6499,2.6499,2.6499,2.6499,2.6499,2.6499,2.6499,2.6499,2.6499,2.6499,2.6499,2.6499,2.6499,2.6436,2.6298,2.4729,2.3652,2.3335,2.2571,2.1772,2.091,2.1085,2.1085,2.091,2.0703,2.0606,2.0606,2.0606,2.0236,1.387,1.451,1.5308,1.4947,1.5133,1.5294,1.4859,0.0,0.0,0.0,0.0,1.4228,1.4288,0.0,0.0,0.0,0.0,0.0,0.0,0.0,0.0,0.0,0.0,0.0,0.0,0.0,0.0,0.0,0.0,1.9431,1.8553,1.8363,1.782,1.6829,1.6464,1.6655,1.7392,1.6324,1.5808,1.5808,1.6504,1.648,1.5825,1.6504,1.6457,0.0,0.0,0.0,1.5808,1.5808,1.6204,1.6833,1.6833,1.6833,1.691,1.7602,1.8011,1.829,1.9018,1.9856,2.0605,2.0605,2.0605,2.0605,2.0605,2.0605,2.0605,2.0605,2.0605,2.0605,2.0605,2.0605,2.0605,2.0605,2.1317,2.2272,2.3276,2.4301,2.53,2.6297,2.6499,2.6349,2.5891,2.5804,2.5804,2.5804,2.5804,2.5804,2.5804,2.6198,2.6314,2.5856,2.5804,2.5804,2.5804,2.5394,2.5323,2.5786,2.392,2.2655,2.2292,2.164,2.108,2.0606,2.0204,1.9993,1.9993,1.9612,1.9414,1.9414,1.9414,1.916,1.3174,1.4128,1.5125,1.4387,1.4614,1.5035,1.5035,0.0,0.0,0.0,0.0,0.0,0.0,0.0,0.0,0.0,0.0,0.0,0.0,0.0,0.0,0.0,0.0,0.0,0.0,0.0,0.0,0.0,0.0,1.7434,1.7213,1.7119,1.6837,1.631,1.625,1.623,1.623,1.5928,1.5808,1.5808,1.5808,1.5808,1.5808,1.5808,1.5808,1.5808,0.0,0.0,1.5808,1.5808,1.5808,1.5808,1.5808,1.5808,1.588,1.6656,1.7353,1.8099,1.9144,1.9988,2.0605,2.0605,2.0605,2.0605,2.0605,2.0605,2.0605,2.0605,2.0605,2.0605,2.0605,2.0605,2.0605,2.0605,2.1317,2.2272,2.3276,2.4301,2.5247,2.6112,2.628,2.5943,2.4951,2.4761,2.4761,2.4761,2.4761,2.4761,2.4761,2.5511,2.5721,2.4862,2.4761,2.4761,2.4761,2.3854,2.3624,2.4492,2.2874,2.152,2.0695,2.0371,2.0268,2.0398,1.9546,1.9094,1.9094,1.8361,1.7991,1.7991,1.7991,1.7991,1.2971,1.3933,1.4773,1.4309,1.3771,1.3373,1.3373,0.0,0.0,0.0,0.0,0.0,0.0,0.0,0.0,0.0,0.0,0.0,0.0,0.0,0.0,0.0,0.0,0.0,0.0,0.0,0.0,0.0,0.0,1.7246,1.7206,1.673,1.6391,1.6304,1.6025,1.5875,1.5875,1.5828,1.5808,1.5808,1.5808,1.5808,1.5808,1.5808,1.5808,1.5808,0.0,1.5808,1.5808,1.5808,1.5808,1.5808,1.5808,1.5808,1.5792,1.57,1.6173,1.7065,1.8571,1.9753,2.0605,2.0605,2.0605,2.0605,2.0605,2.0605,2.0605,2.0605,2.0605,2.0605,2.0605,2.0605,2.0605,2.0605,2.1317,2.2272,2.3276,2.4301,2.5052,2.5211,2.5229,2.4915,2.3909,2.3727,2.3727,2.3727,2.3727,2.3727,2.3727,2.3872,2.3897,2.3763,2.3727,2.3727,2.3727,2.2813,2.2309,2.2459,2.1846,2.1055,2.0083,1.8978,1.8754,1.9497,1.8637,1.8202,1.8202,1.8076,1.7991,1.7991,1.7991,1.7991,1.1526,1.1966,1.2747,1.3608,1.436,1.4887,0.0,0.0,0.0,0.0,0.0,0.0,0.0,0.0,0.0,0.0,0.0,0.0,0.0,0.0,0.0,0.0,0.0,0.0,0.0,0.0,0.0,0.0,0.0,0.0,1.6712,1.6444,1.6223,1.6039,1.5875,1.5808,1.5808,1.5808,1.5808,1.5808,1.5808,1.5808,1.5808,1.5808,1.5808,1.5808,0.0,1.5808,1.5808,1.5808,1.5808,1.5808,1.5808,1.5808,1.5839,1.6148,1.7182,1.8517,1.9032,1.9816,2.0605,2.0605,2.0605,2.0605,2.0605,2.0605,2.0605,2.0605,2.0605,2.0605,2.0605,2.0605,2.0605,2.0605,2.0934,2.1508,2.2478,2.3054,2.3533,2.4072,2.4192,2.3872,2.2869,2.2683,2.2683,2.2683,2.2683,2.2683,2.2683,2.3165,2.3294,2.2758,2.2683,2.2683,2.2683,2.1792,2.114,2.0878,2.0491,1.9937,1.9228,1.8429,1.8185,1.8596,1.8202,1.7991,1.7991,1.7991,1.7991,1.7991,1.7484,1.7242,1.0383,1.0599,1.1258,1.2749,1.4134,0.0,0.0,0.0,0.0,0.0,0.0,0.0,0.0,0.0,0.0,0.0,0.0,0.0,0.0,0.0,0.0,0.0,0.0,0.0,0.0,0.0,0.0,0.0,0.0,0.0,1.631,1.623,1.6066,1.5815,1.5808,1.5808,1.5808,1.5808,1.5808,1.5808,1.5808,1.5808,1.5808,1.5808,1.5808,1.5808,1.5808,1.5808,1.5808,1.5808,1.5808,1.5808,1.5808,1.5808,1.5863,1.6418,1.7877,1.953,1.9152,1.9714,2.0605,2.0605,2.0605,2.0605,2.0605,2.0605,2.0605,2.0605,2.0605,2.0605,2.0605,2.0605,2.0605,2.0605,2.0605,2.0867,2.1792,2.1989,2.2234,2.2999,2.3147,2.2832,2.183,2.1659,2.1659,2.1659,2.1659,2.1659,2.1659,2.2339,2.2526,2.1754,2.1659,2.1659,2.1659,2.1001,2.0439,2.0088,1.957,1.9141,1.8781,1.8264,1.7991,1.7991,1.7991,1.7991,1.7991,1.7991,1.7889,1.7647,1.6922,1.648,1.0564,1.1309,1.185,1.1984,1.1519,0.0,1.4718,1.3949,0.0,1.3898,0.0,0.0,0.0,0.0,0.0,0.0,0.0,0.0,0.0,0.0,0.0,0.0,0.0,0.0,0.0,0.0,0.0,0.0,0.0,0.0,1.6297,1.6012,1.5828,1.5808,1.5808,1.5808,1.5808,1.5808,1.5808,1.5808,1.5808,1.5808,1.5808,1.5808,1.5808,1.5808,1.5808,1.5808,1.5808,1.5808,1.5808,1.5808,1.5808,1.5808,1.5768,1.5591,1.6705,1.828,1.8011,1.91,2.0605,2.0605,2.0605,2.0605,2.0605,2.0605,2.0605,2.0605,2.0605,2.0605,2.0605,2.0605,2.0605,2.0605,2.0605,2.0867,2.1792,2.1989,2.2008,2.2084,2.2103,2.1811,2.0857,2.0692,2.0692,2.0692,2.0692,2.0692,2.0692,2.075,2.0789,2.0712,2.0692,2.0692,2.0692,2.0644,2.0595,2.0556,1.9765,1.9277,1.9256,1.8447,1.7991,1.7991,1.7991,1.7991,1.7991,1.7991,1.7552,1.6706,1.6636,1.6123,0.9729,1.0703,1.1637,1.1841,1.1651,0.0,0.0,1.4903,1.4547,0.0,0.0,0.0,0.0,0.0,0.0,0.0,0.0,0.0,0.0,0.0,0.0,0.0,0.0,0.0,0.0,0.0,0.0,0.0,0.0,0.0,1.5999,1.5868,1.5808,1.5808,1.5808,1.5808,1.5808,1.5808,1.5808,1.5808,1.5808,1.5808,1.5808,1.5808,1.5808,1.5808,1.5808,1.5808,1.5808,1.5808,1.5808,1.5808,1.5808,1.5808,1.5788,1.5681,1.6723,1.8183,1.8074,1.9173,2.0605,2.0605,2.0605,2.0605,2.0605,2.0605,2.0605,2.0605,2.0605,2.0605,2.0605,2.0605,2.0605,2.0605,2.0605,2.0692,2.1039,2.1136,2.1136,2.1136,2.1136,2.103,2.0663,2.0605,2.0605,2.0605,2.0605,2.0605,2.0605,2.0605,2.0605,2.0605,2.0605,2.0605,2.0605,2.0605,2.0605,2.0605,2.0029,1.9561,1.9315,1.8693,1.8264,1.8001,1.7991,1.7991,1.7991,1.7415,1.694,1.6558,1.5367,1.4611,0.9078,0.987,1.0859,0.0,0.0,0.0,1.4623,1.5108,1.5241,0.0,0.0,0.0,0.0,0.0,0.0,0.0,0.0,0.0,0.0,0.0,0.0,0.0,0.0,0.0,0.0,0.0,0.0,0.0,0.0,0.0,0.0,1.5808,1.5808,1.5808,1.5808,1.5808,1.5808,1.5808,1.5808,1.5808,1.5808,1.5808,1.5808,1.5808,1.5808,1.5808,1.5808,1.5808,1.5808,1.5808,1.5808,1.5808,1.5808,1.5808,1.5808,1.5808,1.6825,1.82,1.82,1.9256,2.0605,2.0605,2.0605,2.0605,2.0605,2.0605,2.0605,2.0605,2.0605,2.0605,2.0605,2.0605,2.0605,2.0605,2.0605,2.0605,2.0605,2.0605,2.0605,2.0605,2.0605,2.0605,2.0605,2.0605,2.0605,2.0605,2.0605,2.0605,2.0605,2.0605,2.0605,2.0605,2.0605,2.0605,2.0605,2.0605,2.0605,2.0605,1.9985,1.9383,1.8876,1.841,1.7964,1.7562,1.7278,1.726,1.7562,1.6628,1.5983,1.5649,1.4325,1.3546,0.8791,0.9004,0.0,0.0,0.0,0.0,1.4115,1.4047,1.4193,0.0,0.0,0.0,0.0,0.0,0.0,0.0,0.0,0.0,0.0,0.0,0.0,0.0,0.0,0.0,0.0,0.0,0.0,0.0,0.0,0.0,0.0,1.5808,1.5808,1.5808,1.5808,1.5808,1.5808,1.5808,1.5808,1.5808,1.5808,1.5808,1.5808,1.5808,1.5808,1.5808,1.5808,1.5808,1.5808,1.5808,1.5808,1.5808,1.5808,1.5808,1.5808,1.5801,1.6825,1.82,1.82,1.9256,2.0605,2.0605,2.0605,2.0605,2.0605,2.0605,2.0605,2.0605,2.0605,2.0605,2.0605,2.0605,2.0605,2.0605,2.0605,2.0605,2.0605,2.0605,2.0605,2.0605,2.0605,2.0605,2.0605,2.0605,2.0605,2.0605,2.0605,2.0605,2.0605,2.0605,2.0605,2.0605,2.0605,2.0605,2.0605,2.0605,2.0605,2.0586,1.9579,1.8664,1.7933,1.7442,1.6991,1.6593,1.5675,1.5649,1.6584,1.564,1.4665,1.3709,1.3691,1.3189,0.8791,1.0058,0.0,0.0,0.0,0.0,0.0,1.4549,0.0,0.0,0.0,0.0,0.0,0.0,0.0,0.0,0.0,0.0,0.0,0.0,0.0,0.0,0.0,0.0,0.0,0.0,0.0,0.0,0.0,0.0,0.0,1.5808,1.5808,1.5808,1.5808,1.5808,1.5808,1.5808,1.5808,1.5808,1.5808,1.5808,1.5808,1.5808,1.5808,1.5808,1.5808,1.5808,1.5808,1.5808,1.5808,1.5808,1.5808,1.5808,1.5781,1.5598,1.6659,1.8167,1.7978,1.9096,2.0605,2.0605,2.0605,2.0605,2.0605,2.0605,2.0605,2.0605,2.0605,2.0605,2.0605,2.0605,2.0605,2.0605,2.0605,2.0605,2.0605,2.0605,2.0605,2.0605,2.0605,2.0605,2.0605,2.0605,2.0605,2.0605,2.0605,2.0605,2.0605,2.0605,2.0605,2.0605,2.0605,2.0605,2.0605,2.0605,2.0284,1.952,1.9175,1.8742,1.8208,1.7091,1.6314,1.5897,1.543,1.534,1.5614,1.4629,1.3991,1.3673,1.3025,1.2574,0.9393,0.0,0.0,0.0,0.0,0.0,0.0,0.0,0.0,0.0,0.0,0.0,0.0,0.0,0.0,0.0,0.0,0.0,0.0,0.0,0.0,0.0,0.0,0.0,0.0,0.0,0.0,0.0,0.0,0.0,0.0,1.5808,1.5808,1.5808,1.5808,1.5808,1.5808,1.5808,1.5808,1.5808,1.5808,1.5808,1.5808,1.5808,1.5808,1.5808,1.5808,1.5808,1.5808,1.5808,1.5808,1.5795,1.5681,1.5635,1.5601,1.5331,1.6433,1.8027,1.7856,1.9039,2.0605,2.0605,2.0605,2.0605,2.0605,2.0605,2.0605,2.0605,2.0605,2.0605,2.0605,2.0605,2.0605,2.0605,2.0605,2.0605,2.0605,2.0605,2.0605,2.0605,2.0605,2.0605,2.0605,2.0605,2.0605,2.0605,2.0605,2.045,2.0021,2.0343,2.044,2.0001,2.0343,2.043,2.0001,1.9962,1.95,1.839,1.792,1.7557,1.729,1.6218,1.544,1.5043,1.4387,1.4235,1.4593,1.3611,1.3135,1.3127,1.2556,1.2305,1.0305,0.0,0.0,0.0,0.0,0.0,0.0,0.0,0.0,0.0,0.0,0.0,0.0,0.0,0.0,0.0,0.0,0.0,0.0,0.0,0.0,0.0,0.0,0.0,0.0,0.0,0.0,0.0,0.0,0.0,0.0,1.5808,1.5808,1.5808,1.5808,1.5808,1.5808,1.5808,1.5808,1.5808,1.5808,1.5808,1.5808,1.5808,1.5808,1.5808,1.5808,1.5788,1.5768,1.5768,1.5748,1.5701,1.5464,1.5357,1.5317,1.5053,1.6169,1.7803,1.777,1.9012,2.0605,2.0605,2.0605,2.0605,2.0605,2.0605,2.0605,2.0605,2.0605,2.0605,2.0605,2.0605,2.0605,2.0605,2.0605,2.0605,2.0605,2.0605,2.0605,2.0605,2.0605,2.0605,2.0605,2.0605,2.0566,2.0469,2.044,2.006,1.8977,1.9697,1.9942,1.8957,1.9717,1.9894,1.8937,1.8858,1.835,1.7232,1.6232,1.5662,1.5559,1.4976,1.4474,1.4129,1.2924,1.2714,1.3564,1.2714,1.2305,1.2305,1.2305,1.2305,0.0,1.1935,0.0,0.0,0.0,0.0,0.0,0.0,0.0,0.0,0.0,0.0,0.0,0.0,0.0,0.0,0.0,0.0,0.0,0.0,0.0,0.0,0.0,0.0,0.0,0.0,0.0,0.0,0.0,0.0,1.5808,1.5808,1.5808,1.5808,1.5808,1.5808,1.5808,1.5808,1.5808,0.0,1.5808,1.5808,1.5808,1.5808,1.5808,1.5808,1.5808,1.5675,1.5491,1.5491,1.5357,1.5166,1.5106,1.5079,1.5046,1.4723,1.595,1.7762,1.7495,1.882,2.0605,2.0605,2.0605,2.0605,2.0605,2.0605,2.0605,2.0605,2.0605,2.0605,2.0605,2.0605,2.0605,2.0605,2.0605,2.0605,2.0605,2.0605,2.0605,2.0605,2.0605,2.0605,2.0605,2.0605,2.0304,1.9481,1.9342,1.8937,1.7807,1.7868,1.792,1.7686,1.7859,1.792,1.7686,1.7666,1.7192,1.6108,1.582,1.5317,1.4468,1.3851,1.3501,1.342,1.2685,1.239,1.2611,1.239,1.2305,1.2305,1.2305,1.2305,0.0,0.0,0.0,0.0,0.0,0.0,0.0,0.0,0.0,0.0,0.0,0.0,0.0,0.0,0.0,0.0,0.0,0.0,0.0,0.0,0.0,0.0,0.0,0.0,0.0,0.0,0.0,0.0,0.0,1.5418,1.5418,1.5545,1.5601,1.5601,1.5735,1.5808,1.5808,1.5808,1.5808,1.5808,1.5808,1.5735,1.5601,1.5741,1.5728,1.5601,1.5601,1.5458,1.5213,1.5213,1.5126,1.4972,1.4832,1.475,1.4716,1.4422,1.5368,1.6763,1.6582,1.7971,1.9835,1.9835,2.0187,2.0605,2.0605,2.0245,1.9835,1.9835,1.9432,1.9155,1.9697,1.9835,1.9962,2.0479,2.0605,2.0605,2.0605,2.0206,1.9835,1.9835,1.9835,1.9835,1.9835,1.9835,1.9461,1.835,1.8189,1.7787,1.6683,1.6989,1.709,1.658,1.6989,1.709,1.658,1.6519,1.6075,1.4998,1.4936,1.4671,1.413,1.3634,1.3333,1.3193,1.2771,1.2464,1.2305,1.2305,1.2305,1.228,1.1805,1.1583,0.0,0.0,0.0,0.0,0.0,0.0,0.0,0.0,0.0,0.0,0.0,0.0,0.0,0.0,0.0,0.0,0.0,0.0,0.0,0.0,0.0,0.0,0.0,0.0,0.0,0.0,0.0,0.0,0.0,1.5008,1.5008,1.5213,1.5317,1.5317,1.5558,1.5655,1.5655,1.5655,1.5655,1.5655,1.5655,1.5558,1.5331,1.5571,1.5545,1.5317,1.5317,1.518,1.4905,1.4905,1.4879,1.4812,1.4543,1.4421,1.4394,1.4175,1.4776,1.5696,1.5696,1.7021,1.8718,1.8718,1.9313,2.004,2.004,1.9421,1.8718,1.8718,1.8169,1.7767,1.851,1.8858,1.9175,1.9883,2.004,2.0079,2.0284,1.9481,1.8718,1.8718,1.8718,1.8718,1.8718,1.8718,1.831,1.7192,1.7009,1.6642,1.5559,1.6198,1.6404,1.5525,1.6219,1.6383,1.5504,1.5421,1.5061,1.4166,1.4109,1.4109,1.4109,1.3827,1.354,1.3267,1.2965,1.2636,1.2305,1.2305,1.2206,1.2015,1.1186,1.0708,0.0,0.0,0.0,0.0,0.0,0.0,0.0,0.0,0.0,0.0,0.0,0.0,0.0,0.0,0.0,0.0,0.0,0.0,0.0,0.0,0.0,0.0,0.0,0.0,0.0,0.0,0.0,0.0,1.5008,1.5008,1.5008,1.5019,1.5046,1.5046,1.5079,1.5099,1.5099,1.5099,1.5099,1.5099,1.5099,1.5079,1.5046,1.5086,1.5079,1.5046,1.5046,1.4872,1.4583,1.4583,1.4429,1.4223,1.4162,1.4142,1.4142,1.4102,1.4776,1.5696,1.5696,1.6498,1.7536,1.7536,1.7617,1.7738,1.7738,1.7646,1.7536,1.7536,1.8129,1.8579,1.7738,1.825,1.8798,1.794,1.7738,1.8,1.8997,1.833,1.7536,1.7536,1.7536,1.7536,1.7536,1.7536,1.7151,1.6088,1.5902,1.5525,1.4454,1.4433,1.4475,1.4334,1.4433,1.4475,1.4334,1.4307,1.425,1.4109,1.4109,1.4109,1.4109,1.4048,1.3888,1.3553,1.3052,1.2636,1.2305,1.2305,1.1848,1.0994,1.0858,1.0321,1.2059,0.0,0.0,0.0,0.0,0.0,0.0,0.0,0.0,0.0,0.0,0.0,0.0,0.0,0.0,0.0,0.0,0.0,0.0,0.0,0.0,0.0,0.0,0.0,0.0,0.0,0.0,0.0,1.4497,1.4497,1.4497,1.4651,1.4716,1.4716,1.4899,1.5008,1.5008,1.5008,1.5008,1.5008,1.5008,1.4899,1.4716,1.4716,1.4716,1.4716,1.4716,1.4549,1.4282,1.4282,1.4202,1.4109,1.4109,1.4109,1.4109,1.4109,1.4391,1.4796,1.4796,1.5504,1.6396,1.6396,1.6805,1.7302,1.7302,1.6887,1.6396,1.6396,1.6342,1.6281,1.6375,1.6785,1.7184,1.7281,1.6846,1.6539,1.7041,1.6764,1.6396,1.6396,1.6396,1.6396,1.6396,1.6396,1.6034,1.4957,1.4796,1.4629,1.4166,1.4109,1.4109,1.4109,1.4109,1.4109,1.4109,1.4109,1.4109,1.4109,1.4109,1.4109,1.4109,1.4109,1.3948,1.3613,1.322,1.2872,1.2589,1.1826,1.1236,1.0764,0.9645,0.8874,0.0,0.0,0.0,0.0,0.0,0.0,0.0,0.0,0.0,0.0,0.0,0.0,0.0,0.0,0.0,0.0,0.0,0.0,0.0,0.0,0.0,0.0,0.0,0.0,0.0,0.0,0.0,0.0,1.4109,1.4109,1.4109,1.4295,1.4387,1.4387,1.4651,1.4765,1.4765,1.4765,1.4765,1.4765,1.4765,1.4651,1.4387,1.4387,1.4387,1.4387,1.4387,1.4282,1.4109,1.4109,1.4109,1.4109,1.4109,1.4109,1.4109,1.4109,1.4109,1.4109,1.4109,1.4615,1.5296,1.5296,1.5835,1.6486,1.6486,1.5938,1.5296,1.5296,1.4915,1.4636,1.5158,1.5496,1.5827,1.6363,1.5876,1.5296,1.5296,1.5296,1.5296,1.5296,1.5296,1.5296,1.5296,1.5296,1.5019,1.4229,1.4109,1.4109,1.4109,1.4109,1.4109,1.4109,1.4109,1.4109,1.4109,1.4109,1.4109,1.4109,1.4109,1.4109,1.4109,1.38,1.3521,1.3266,1.2719,1.2423,1.2395,1.105,1.0278,0.9997,0.8499,0.7668,0.0,0.0,0.0,0.0,0.0,0.0,0.0,0.0,0.0,0.0,0.0,0.0,0.0,0.0,0.0,0.0,0.0,0.0,0.0,0.0,0.0,0.0,0.0,0.0,0.0,0.0,0.0,0.0,1.4109,1.4109,1.4109,1.4102,1.4129,1.4129,1.4143,1.4156,1.4156,1.4156,1.4156,1.4156,1.4156,1.4143,1.4129,1.4129,1.4129,1.4129,1.4129,1.4102,1.4109,1.4109,1.4109,1.4109,1.4109,1.4109,1.4109,1.4109,1.4109,1.4109,1.4109,1.4152,1.4187,1.4187,1.4229,1.4271,1.4271,1.4229,1.4187,1.4187,1.4873,1.54,1.4433,1.4936,1.5455,1.4496,1.4229,1.4187,1.4187,1.4187,1.4187,1.4187,1.4187,1.4187,1.4187,1.4187,1.4166,1.4109,1.4109,1.4109,1.4109,1.4109,1.4109,1.4109,1.4109,1.4109,1.4109,1.4109,1.4109,1.4109,1.4109,1.4109,1.4109,1.3006,1.2386,1.2374,1.1052,1.0667,1.1291,1.0,0.8879,0.795,0.784,0.7288,0.0,0.0,0.0,0.0,0.0,0.0,0.0,0.0,0.0,0.0,0.0,0.0,0.0,0.0,0.0,0.0,0.0,0.0,0.0,0.0,0.0,0.0,0.0,0.0,0.0,0.0,0.0,0.0,0.0,1.4109,1.4109,1.4109,1.4109,1.4109,1.4109,1.4109,1.4109,1.4109,1.4109,1.4109,1.4109,1.4109,1.4109,1.4109,1.4109,1.4109,1.4109,1.4109,1.4109,1.4109,1.4109,1.4109,1.4109,1.4109,1.4109,1.4109,1.4109,1.4109,1.4109,1.4109,1.4109,1.4109,1.4109,1.4109,1.4109,1.4109,1.4109,1.4109,1.437,1.4573,1.4208,1.4391,1.4573,1.4187,1.4109,1.4109,1.4109,1.4109,1.4109,1.4109,1.4109,1.4109,1.4109,1.4109,1.4109,1.4109,1.4109,1.4109,1.4109,1.4109,1.4109,1.4109,1.4109,1.4109,1.4109,1.4109,1.4109,1.4109,1.3379,1.2942,1.2942,1.1836,1.1209,1.1209,0.9906,0.9614,1.0366,0.908,0.8237,0.7783,0.7138,0.6644,0.0,0.0,0.0,0.0,0.0,0.0,0.0,0.0,0.0,0.0,0.0,0.0,0.0,0.0,0.0,0.0,0.0,0.0,0.0,0.0,0.0,0.0,0.0,0.0,0.0,0.0,0.0,0.0,0.0,0.0,1.4109,1.4109,1.4109,1.4109,1.4109,1.4109,1.4109,1.4109,1.4109,1.4109,1.4109,1.4109,1.4109,1.4109,1.4109,1.4109,1.4109,1.4109,1.4109,1.4109,1.4109,1.4109,1.4109,1.4109,1.4109,1.4109,1.4109,1.4109,1.4109,1.4109,1.4109,1.4109,1.4109,1.4109,1.4109,1.4109,1.4109,1.4109,1.4109,1.4109,1.4109,1.4109,1.4109,1.4109,1.4109,1.4109,1.4109,1.4109,1.4109,1.4109,1.4109,1.4109,1.4109,1.4109,1.4109,1.4109,1.4109,1.4109,1.4109,1.4109,1.4109,1.4109,1.4109,1.4109,1.4109,1.373,1.3491,1.3491,1.2376,1.1724,1.1724,1.0632,1.0031,1.0031,0.8802,0.8395,0.8888,0.7946,0.7458,0.7352,0.6627,0.63,0.0,0.0,0.0,0.0,0.0,0.0,0.0,0.0,0.0,0.0,0.0,0.0,0.0,0.0,0.0,0.0,0.0,0.0,0.0,0.0,0.0,0.0,0.0,0.0,0.0,0.0,0.0,0.0,1.4109,1.4109,1.4109,1.4109,1.4109,1.4109,1.4109,1.4109,1.4109,1.4109,1.4109,1.4109,1.4109,1.4109,1.4109,1.4109,1.4109,1.4109,1.4109,1.4109,1.4109,1.4109,1.4109,1.4109,1.4109,1.4109,1.4109,1.4109,1.4109,1.4109,1.4109,1.4109,1.4109,1.4109,1.4109,1.4109,1.4109,1.4109,1.4109,1.4109,1.4109,1.4109,1.4109,1.4109,1.4109,1.4109,1.4109,1.4109,1.4109,1.4109,1.4109,1.4109,1.4109,1.4109,1.4109,1.4067,1.4039,1.4039,1.4018,1.4004,1.4004,1.4025,1.4025,1.4004,1.4025,1.4025,1.4004,1.2921,1.2258,1.2258,1.1187,1.0546,1.0546,0.9449,0.8846,0.8846,0.7687,0.7028,0.6911,0.663,0.6501,0.6488,0.6364,0.63,0.7994,0.0,0.0,0.0,0.0,0.0,0.0,0.0,0.0,0.0,0.0,0.0,0.0,0.0,0.0,0.0,0.0,0.0,0.0,0.0,0.0,0.0,0.0,0.0,0.0,0.0,0.0,0.0,1.4109,1.4109,1.4109,1.4109,1.4109,1.4109,1.4109,1.4109,1.4109,1.4109,1.4109,1.4109,1.4109,1.4109,1.4109,1.4109,1.4109,1.4109,1.4109,1.4109,1.4109,1.4109,1.4109,1.4109,1.4109,1.4109,1.4109,1.4109,1.4109,1.4109,1.4109,1.4109,1.4109,1.4109,1.4109,1.4109,1.4109,1.4109,1.4109,1.4109,1.4109,1.4109,1.4109,1.4109,1.4109,1.4109,1.4109,1.4109,1.4109,1.4109,1.4109,1.4109,1.4109,1.4109,1.4109,1.3379,1.2808,1.2808,1.2099,1.1563,1.1563,1.2291,1.2483,1.1649,1.2312,1.2467,1.1649,1.1257,1.1058,1.1058,1.0009,0.9362,0.9362,0.8233,0.7599,0.7599,0.7272,0.7078,0.7038,0.6874,0.6688,0.6488,0.6364,0.63,0.0,0.0,0.0,0.0,0.0,0.0,0.8418,0.8612,0.0,0.0,0.0,0.0,0.0,0.0,0.0,0.0,0.0,0.0,0.0,0.0,0.0,0.0,0.0,0.0,0.0,1.265,1.265,1.265,1.3082,1.3582,1.4067,1.3625,1.3582,1.4088,1.4109,1.4109,1.4109,1.4109,1.3843,1.3358,1.3358,1.3103,1.265,1.265,1.265,1.2671,1.3145,1.3358,1.3379,1.3891,1.4109,1.4109,1.4109,1.4109,1.4109,1.4109,1.4109,1.4109,1.4109,1.4109,1.4109,1.4109,1.4109,1.4109,1.4109,1.4109,1.4109,1.4109,1.4109,1.4109,1.4109,1.4109,1.4109,1.4109,1.4109,1.3955,1.347,1.3358,1.3358,1.3358,1.3358,1.3209,1.2714,1.2056,1.1595,1.1595,1.1037,1.0611,1.0611,1.1187,1.1338,1.0675,1.1193,1.1316,1.0654,1.0161,0.9879,0.9879,0.8798,0.8149,0.8149,0.747,0.7095,0.7095,0.7095,0.7095,0.7095,0.6975,0.677,0.6491,0.6426,0.6358,0.0,0.0,0.0,0.0,0.0,0.0,0.8013,0.787,0.7445,0.0,0.0,0.0,0.0,0.0,0.0,0.0,0.0,0.0,0.0,0.0,0.0,0.0,0.0,0.0,1.0999,1.0869,1.0778,1.0778,1.1617,1.2574,1.3646,1.2681,1.2595,1.3673,1.3716,1.3716,1.3716,1.3716,1.3167,1.2114,1.2114,1.1574,1.0611,1.0611,1.0611,1.0654,1.1815,1.2306,1.2392,1.3603,1.4109,1.4109,1.4109,1.4109,1.4109,1.4109,1.4109,1.4109,1.4109,1.4109,1.4109,1.4109,1.4109,1.4109,1.4109,1.4018,1.3906,1.3906,1.3997,1.4109,1.4109,1.3997,1.3906,1.3906,1.38,1.3428,1.2349,1.2114,1.2072,1.1959,1.2023,1.1788,1.0762,1.0503,1.0416,1.0416,1.0308,1.0221,1.0221,1.033,1.0351,1.0221,1.033,1.0351,1.0221,0.9274,0.8693,0.8693,0.7687,0.7095,0.7095,0.7095,0.7095,0.7095,0.7095,0.7095,0.7095,0.6975,0.6769,0.6542,0.6525,0.645,0.0,0.0,0.0,0.0,0.0,0.0,0.5404,0.5396,0.5437,0.0,0.0,0.0,0.0,0.0,0.0,0.0,0.0,0.0,0.0,0.0,0.0,0.0,0.0,0.0,1.3413,1.2531,1.1965,1.1965,1.1316,1.1042,1.1262,1.1063,1.1042,1.1284,1.1279,1.1279,1.1279,1.1279,1.1149,1.0929,1.0929,1.0826,1.0611,1.0611,1.0611,1.0654,1.1815,1.2306,1.2392,1.3603,1.4109,1.4109,1.4109,1.4109,1.4109,1.4109,1.4109,1.4109,1.4109,1.4109,1.4109,1.4109,1.4109,1.4109,1.4109,1.3421,1.2653,1.2653,1.3358,1.4109,1.4109,1.3379,1.2653,1.2653,1.1949,1.1214,1.0977,1.0929,1.0654,0.9749,1.0308,1.0864,1.0632,0.9836,0.9235,0.9235,0.8404,0.779,0.779,0.8623,0.8864,0.7881,0.8645,0.8842,0.7859,0.7577,0.7445,0.7445,0.7228,0.7095,0.7095,0.7095,0.7095,0.7095,0.7095,0.7095,0.7095,0.6975,0.6877,0.6816,0.6712,0.6641,0.0,0.0,0.0,0.4728,0.0,0.0,0.0,0.4984,0.5192,0.0,0.0,0.0,0.0,0.0,0.0,0.0,0.0,0.0,0.0,0.0,0.0,0.0,0.0,0.0,1.0611,1.0611,1.0848,1.1402,0.9848,0.9353,1.0546,1.0053,1.0009,1.0589,1.0611,1.0611,1.0611,1.0611,1.0308,0.9753,0.9753,0.9444,0.8856,0.8856,0.8856,0.8921,1.0091,1.0611,1.0697,1.1863,1.2345,1.2473,1.3652,1.4109,1.4109,1.4109,1.4109,1.4109,1.4109,1.3709,1.3203,1.3203,1.2814,1.2345,1.2345,1.1928,1.1445,1.1445,1.1885,1.2345,1.2345,1.1906,1.1445,1.1445,1.102,1.0438,0.9879,0.9753,0.9405,0.8233,0.8466,0.8856,0.8856,0.8382,0.7995,0.7995,0.7489,0.7095,0.7095,0.7621,0.7775,0.7161,0.7643,0.7753,0.7161,0.7095,0.7095,0.7095,0.7095,0.7095,0.7095,0.7095,0.7095,0.7095,0.7095,0.6827,0.6248,0.6186,0.6409,0.6883,0.6223,0.5859,0.0,0.0,0.0,0.0,0.0,0.4638,0.0,0.0,0.0,0.0,0.0,0.0,0.0,0.0,0.0,0.0,0.0,0.0,0.0,0.0,0.0,0.0,0.0,0.0,0.0,0.8369,0.9109,0.9865,0.8123,0.7879,0.9826,0.9056,0.8969,0.9896,0.9918,0.9918,0.9918,0.9918,0.9466,0.8562,0.8562,0.8039,0.7095,0.7095,0.7095,0.7161,0.8364,0.889,0.8999,1.0139,1.0611,1.0783,1.2693,1.3434,1.3434,1.3434,1.3434,1.3434,1.3434,1.2793,1.1965,1.1965,1.1338,1.0567,1.033,1.0438,1.0546,1.033,1.0438,1.0611,1.0611,1.0438,1.0269,1.0269,1.0091,0.9684,0.8755,0.8562,0.8255,0.7294,0.7095,0.7095,0.7095,0.7095,0.7095,0.7095,0.7095,0.7095,0.7095,0.7095,0.7095,0.7095,0.7095,0.7095,0.7095,0.7095,0.7095,0.7095,0.7095,0.7095,0.7095,0.7095,0.7095,0.7095,0.6874,0.6315,0.5403,0.5156,0.5467,0.6248,0.5262,0.4763,0.0,0.0,0.0,0.0,0.4604,0.0,0.0,0.0,0.0,0.0,0.0,0.0,0.0,0.0,0.0,0.0,0.0,0.0,0.0,0.0,0.0,0.0,0.0,0.0,0.0,0.9,0.8187,0.7555,0.7023,0.6967,0.7474,0.7379,0.736,0.7489,0.7489,0.7489,0.7489,0.7489,0.7423,0.7316,0.7316,0.7228,0.7095,0.7095,0.7095,0.7161,0.8364,0.889,0.8999,1.0139,1.0611,1.0632,1.0891,1.0999,1.0999,1.0999,1.0999,1.0999,1.0999,1.0913,1.0778,1.0778,1.0718,1.0416,0.9405,0.9797,1.0394,0.9388,0.9814,1.0611,1.0611,0.9857,0.9082,0.9082,0.8273,0.7467,0.7338,0.7316,0.7272,0.7117,0.7095,0.7095,0.7095,0.7095,0.7095,0.7095,0.7095,0.7095,0.7095,0.7095,0.7095,0.7095,0.7095,0.7095,0.7095,0.7095,0.7095,0.7095,0.7095,0.7095,0.7095,0.7095,0.7095,0.7095,0.6115,0.5536,0.5403,0.433,0.3855,0.3979,0.3824,0.3752,0.0,0.0,0.0,0.0,0.0,0.0,0.0,0.0,0.5117,0.0,0.0,0.0,0.0,0.0,0.0,0.0,0.0,0.0,0.0,0.0,0.0,0.0,0.0,0.0,0.0,0.0,0.0,0.0,0.7246,0.6806,0.7082,0.7095,0.7095,0.7095,0.7095,0.7095,0.7095,0.7095,0.7095,0.7095,0.7095,0.7095,0.7095,0.7095,0.7095,0.7117,0.7643,0.7863,0.7885,0.8378,0.8571,0.8571,0.8571,0.9396,1.0611,1.0611,1.0611,1.0611,1.0611,1.0161,0.9492,0.879,0.8571,0.8488,0.7991,0.8185,0.8466,0.7991,0.8207,0.8571,0.8571,0.8207,0.7863,0.7863,0.747,0.7095,0.7095,0.7095,0.7095,0.7095,0.7095,0.7095,0.7095,0.7095,0.7095,0.7095,0.7095,0.7095,0.7095,0.7095,0.7095,0.7095,0.7095,0.7095,0.7095,0.7095,0.7095,0.7095,0.7095,0.6805,0.6138,0.6115,0.5777,0.5085,0.4596,0.4018,0.3306,0.2793,0.2191,0.1522,0.2236,0.2547,0.5308,0.0,0.0,0.0,0.0,0.0,0.0,0.0,0.0,0.0,0.0,0.0,0.0,0.0,0.0,0.0,0.0,0.0,0.0,0.0,0.0,0.0,0.0,0.0,0.0,0.0,0.0,0.8215,0.7242,0.6746,0.7078,0.7095,0.7095,0.7095,0.7095,0.7095,0.7095,0.7095,0.7095,0.7095,0.7095,0.7095,0.7095,0.7095,0.7095,0.7095,0.7095,0.7095,0.7095,0.7095,0.7095,0.7095,0.7095,0.8141,0.9636,0.9636,0.9636,0.9636,0.9636,0.91,0.8255,0.7382,0.7095,0.7095,0.7095,0.7095,0.7095,0.7095,0.7095,0.7095,0.7095,0.7095,0.7095,0.7095,0.7095,0.7095,0.7095,0.7095,0.7095,0.7095,0.7095,0.7095,0.7095,0.7095,0.7095,0.7095,0.7095,0.7095,0.7095,0.7095,0.7095,0.7095,0.7095,0.7095,0.7095,0.7095,0.6962,0.665,0.6334,0.5777,0.4932,0.491,0.4485,0.3614,0.3282,0.2681,0.179,0.1478,0.0852,0.0022,0.0897,0.1299,0.0,0.0,0.0,0.4848,0.0,0.0,0.0,0.0,0.5388,0.0,0.0,0.0,0.0,0.0,0.0,0.0,0.0,0.0,0.0,0.0,0.0,0.0,0.0,0.0,0.0,0.0,0.0,0.673,0.648,0.6549,0.7065,0.7095,0.7095,0.7095,0.7095,0.7095,0.7095,0.7095,0.7095,0.7095,0.7095,0.7095,0.7095,0.7095,0.7095,0.7095,0.7095,0.7095,0.7095,0.7095,0.7095,0.7095,0.7095,0.7139,0.7205,0.7205,0.7205,0.7205,0.7205,0.7183,0.7161,0.7117,0.7095,0.7095,0.7095,0.7095,0.7095,0.7095,0.7095,0.7095,0.7095,0.7095,0.7095,0.7095,0.7095,0.7095,0.7095,0.7095,0.7095,0.7095,0.7095,0.7095,0.7095,0.7095,0.7095,0.7095,0.7095,0.7095,0.7095,0.7095,0.7095,0.7095,0.7095,0.7095,0.7095,0.7095,0.6628,0.5514,0.435,0.3703,0.3659,0.3659,0.3636,0.3592,0.2458,0.1835,0.179,0.0628,0.0045,0.0,0.0045,0.0067,0.0,0.0,0.4944,0.4168,0.0,0.0,0.0,0.0,0.0,0.0,0.0,0.0,0.0,0.0,0.0,0.0,0.0,0.0,0.0,0.0,0.0,0.0,0.0,0.0,0.0,0.0,0.0,0.6671,0.6607,0.6722,0.7075,0.7095,0.7095,0.7095,0.7095,0.7095,0.7095,0.7095,0.7095,0.7095,0.7095,0.7095,0.7095,0.7095,0.7095,0.7095,0.7095,0.7095,0.7095,0.7095,0.7095,0.7095,0.7095,0.7095,0.7095,0.7095,0.7095,0.7095,0.7095,0.7095,0.7095,0.7095,0.7095,0.7095,0.7095,0.7095,0.7095,0.7095,0.7095,0.7095,0.7095,0.7095,0.7095,0.7095,0.7095,0.7095,0.7095,0.7095,0.7095,0.7095,0.7095,0.7095,0.7095,0.7095,0.7095,0.7095,0.7095,0.7095,0.7095,0.7095,0.7095,0.7095,0.7095,0.6786,0.6049,0.5243,0.4616,0.4239,0.3816,0.3237,0.2436,0.2413,0.2035,0.1232,0.0807,0.0606,0.0606,0.0202,0.0,0.0,0.0,0.0,0.4999,0.4495,0.0,0.3389,0.3495,0.0,0.4563,0.0,0.0,0.0,0.0,0.0,0.0,0.0,0.0,0.0,0.0,0.0,0.0,0.0,0.0,0.0,0.0,0.0,0.0,0.0,0.6146,0.6535,0.6563,0.6671,0.0,0.0,0.7095,0.7095,0.7095,0.7095,0.7095,0.7095,0.7095,0.7095,0.7095,0.7095,0.7095,0.7095,0.7095,0.7095,0.7095,0.7095,0.7095,0.7095,0.7095,0.7095,0.7095,0.7095,0.7095,0.7095,0.7095,0.7095,0.7095,0.7095,0.7095,0.7095,0.7095,0.7095,0.7095,0.7095,0.7095,0.7095,0.7095,0.7095,0.7095,0.7095,0.7095,0.7095,0.7095,0.7095,0.7095,0.7095,0.7095,0.7095,0.6782,0.6495,0.6495,0.6135,0.6132,0.6985,0.7095,0.6962,0.6539,0.6495,0.6337,0.591,0.5866,0.5553,0.4821,0.366,0.297,0.297,0.2547,0.1969,0.1188,0.1165,0.0785,0.0022,0.0,0.0,0.0,0.0,0.0,0.0,0.0,0.0]},{"header":{"parameterUnit":"m.s-1","parameterCategory":1,"la1":30.6,"la2":29.2853,"lo1":-89.7004,"lo2":-87.6739,"dy":0.0162,"dx":0.0183,"nx":112,"ny":82,"refTime":"2023-04-04T06:00:00:Z","depth":0,"parameterNumber":3,"parameterNumberName":"V-component_of_WINDS"},"data":[0.0,0.0,0.0,0.0,0.0,0.0,0.0,0.0,0.0,0.0,0.0,0.0,0.0,0.0,0.0,0.0,0.0,0.0,0.0,0.0,0.0,0.0,0.0,0.0,0.0,0.0,0.0,0.0,0.0,0.0,0.0,0.0,0.0,0.0,0.0,0.0,0.0,0.0,0.0,0.0,0.0,0.0,0.0,0.0,0.0,0.0,0.0,0.0,0.0,0.0,0.0,0.0,0.0,0.0,0.0,0.0,0.0,0.0,0.0,0.0,0.0,0.0,0.0,0.0,0.0,0.0,0.0,0.0,0.0,0.0,0.0,0.0,0.0,0.0,0.0,0.0,0.0,0.0,0.0,0.0,0.0,0.0,0.0,0.0,0.0,0.0,0.0,0.0,0.0,0.0,0.0,2.6499,2.6499,2.6499,2.6499,2.6499,2.6499,2.6499,0.0,0.0,0.0,0.0,0.0,0.0,0.0,0.0,0.0,0.0,0.0,0.0,0.0,0.0,0.0,0.0,0.0,0.0,0.0,0.0,0.0,0.0,0.0,0.0,0.0,0.0,0.0,0.0,0.0,0.0,0.0,0.0,0.0,0.0,0.0,0.0,0.0,0.0,0.0,0.0,0.0,0.0,0.0,0.0,0.0,0.0,0.0,0.0,0.0,0.0,0.0,0.0,0.0,0.0,0.0,0.0,0.0,0.0,0.0,0.0,0.0,0.0,0.0,0.0,0.0,0.0,0.0,0.0,0.0,0.0,0.0,0.0,0.0,0.0,0.0,0.0,0.0,0.0,0.0,0.0,0.0,0.0,0.0,0.0,0.0,0.0,0.0,0.0,0.0,0.0,0.0,0.0,0.0,0.0,0.0,0.0,0.0,0.0,0.0,0.0,0.0,0.0,0.0,0.0,2.6499,2.6499,2.6499,2.6499,2.6499,2.6499,2.6499,2.6499,0.0,0.0,0.0,0.0,0.0,0.0,0.0,0.0,0.0,0.0,0.0,0.0,0.0,0.0,0.0,0.0,0.0,0.0,0.0,0.0,0.0,0.0,0.0,0.0,0.0,0.0,0.0,0.0,0.0,0.0,0.0,0.0,0.0,0.0,0.0,0.0,0.0,0.0,0.0,0.0,0.0,0.0,0.0,0.0,0.0,0.0,0.0,0.0,0.0,0.0,0.0,0.0,0.0,0.0,0.0,0.0,0.0,0.0,0.0,0.0,0.0,0.0,0.0,0.0,0.0,0.0,0.0,0.0,0.0,0.0,0.0,0.0,0.0,0.0,0.0,0.0,0.0,0.0,0.0,0.0,0.0,0.0,0.0,0.0,0.0,0.0,0.0,0.0,0.0,0.0,0.0,0.0,0.0,0.0,0.0,0.0,0.0,0.0,0.0,0.0,0.0,0.0,0.0,2.6499,2.6499,2.6499,2.6499,2.6499,2.6499,2.6499,2.6499,2.6499,2.685,0.0,0.0,0.0,0.0,0.0,0.0,0.0,0.0,0.0,0.0,0.0,0.0,0.0,0.0,0.0,0.0,0.0,0.0,0.0,0.0,0.0,0.0,0.0,0.0,0.0,0.0,0.0,0.0,0.0,0.0,0.0,0.0,0.0,0.0,0.0,0.0,0.0,0.0,0.0,0.0,0.0,0.0,0.0,0.0,0.0,0.0,0.0,0.0,0.0,0.0,0.0,0.0,0.0,0.0,0.0,0.0,0.0,0.0,0.0,0.0,0.0,0.0,0.0,0.0,0.0,0.0,0.0,0.0,0.0,0.0,0.0,0.0,0.0,0.0,0.0,0.0,0.0,0.0,0.0,0.0,0.0,0.0,0.0,0.0,0.0,0.0,0.0,0.0,0.0,0.0,0.0,0.0,0.0,0.0,0.0,0.0,0.0,0.0,0.0,0.0,0.0,0.0,2.6499,2.6499,2.6499,2.6499,2.6499,2.6499,2.6499,2.6499,2.6499,2.6499,0.0,0.0,0.0,0.0,0.0,0.0,0.0,0.0,0.0,0.0,0.0,0.0,0.0,0.0,0.0,0.0,0.0,0.0,0.0,0.0,0.0,0.0,0.0,0.0,0.0,0.0,0.0,0.0,0.0,0.0,0.0,0.0,0.0,0.0,0.0,0.0,0.0,0.0,0.0,0.0,0.0,0.0,0.0,0.0,0.0,0.0,0.0,0.0,0.0,0.0,0.0,0.0,0.0,0.0,0.0,0.0,0.0,0.0,0.0,0.0,0.0,0.0,0.0,0.0,0.0,0.0,0.0,0.0,0.0,0.0,0.0,0.0,0.0,0.0,0.0,0.0,0.0,0.0,0.0,0.0,0.0,0.0,0.0,0.0,0.0,0.0,0.0,0.0,0.0,0.0,0.0,0.0,0.0,0.0,0.0,0.0,0.0,0.0,0.0,0.0,0.0,0.0,2.6499,2.6499,2.6499,2.6499,2.6499,2.6499,2.6499,2.6499,2.6499,2.6499,0.0,0.0,0.0,0.0,0.0,0.0,0.0,0.0,0.0,0.0,0.0,0.0,0.0,0.0,0.0,0.0,0.0,0.0,0.0,0.0,0.0,0.0,0.0,0.0,0.0,0.0,0.0,0.0,0.0,0.0,0.0,0.0,0.0,0.0,0.0,0.0,0.0,0.0,0.0,0.0,0.0,0.0,0.0,0.0,0.0,0.0,0.0,0.0,0.0,0.0,0.0,0.0,0.0,0.0,0.0,0.0,0.0,0.0,0.0,0.0,0.0,0.0,0.0,0.0,0.0,0.0,0.0,0.0,0.0,0.0,0.0,0.0,0.0,0.0,0.0,0.0,0.0,0.0,0.0,0.0,0.0,0.0,0.0,0.0,0.0,0.0,0.0,0.0,0.0,0.0,0.0,0.0,0.0,0.0,0.0,0.0,0.0,0.0,0.0,0.0,0.0,0.0,2.6499,2.6499,0.0,2.6499,2.6499,2.6499,2.6499,2.6499,2.6499,0.0,0.0,0.0,0.0,0.0,0.0,0.0,0.0,0.0,0.0,0.0,0.0,0.0,0.0,0.0,0.0,0.0,0.0,0.0,0.0,0.0,0.0,0.0,0.0,0.0,0.0,0.0,0.0,0.0,0.0,0.0,0.0,0.0,0.0,0.0,0.0,0.0,0.0,0.0,0.0,0.0,0.0,0.0,0.0,0.0,0.0,0.0,0.0,0.0,0.0,0.0,0.0,0.0,0.0,0.0,0.0,0.0,0.0,0.0,0.0,0.0,0.0,0.0,0.0,0.0,0.0,0.0,0.0,0.0,0.0,0.0,0.0,0.0,0.0,0.0,0.0,0.0,0.0,0.0,0.0,0.0,0.0,0.0,0.0,0.0,0.0,0.0,0.0,0.0,0.0,0.0,0.0,0.0,0.0,0.0,0.0,0.0,0.0,0.0,0.0,0.0,0.0,2.6499,2.6499,2.6499,0.0,2.6499,2.6499,2.6499,2.6499,2.6499,2.6499,0.0,0.0,0.0,0.0,0.0,0.0,0.0,0.0,0.0,0.0,0.0,0.0,0.0,0.0,0.0,0.0,0.0,0.0,0.0,0.0,0.0,0.0,0.0,0.0,0.0,0.0,0.0,0.0,0.0,0.0,0.0,0.0,0.0,0.0,0.0,0.0,0.0,0.0,0.0,0.0,0.0,0.0,0.0,0.0,0.0,0.0,0.0,0.0,0.0,0.0,0.0,0.0,0.0,0.0,0.0,0.0,0.0,0.0,0.0,0.0,0.0,0.0,0.0,0.0,0.0,0.0,0.0,0.0,0.0,0.0,0.0,0.0,0.0,0.0,0.0,0.0,0.0,0.0,0.0,0.0,0.0,0.0,0.0,0.0,0.0,0.0,0.0,0.0,0.0,0.0,0.0,0.0,0.0,0.0,0.0,0.0,0.0,0.0,0.0,0.0,0.0,0.0,2.6499,2.6499,2.6499,2.6499,2.6499,2.6499,2.6499,2.6499,2.6499,0.0,0.0,0.0,0.0,0.0,0.0,0.0,0.0,0.0,0.0,0.0,0.0,0.0,0.0,0.0,0.0,0.0,0.0,0.0,0.0,0.0,0.0,0.0,0.0,0.0,0.0,0.0,0.0,0.0,0.0,0.0,0.0,0.0,0.0,0.0,0.0,0.0,0.0,0.0,0.0,0.0,0.0,0.0,0.0,0.0,0.0,0.0,0.0,0.0,0.0,0.0,0.0,0.0,0.0,0.0,0.0,0.0,0.0,0.0,0.0,0.0,0.0,0.0,0.0,0.0,0.0,0.0,0.0,0.0,0.0,0.0,0.0,0.0,0.0,0.0,0.0,0.0,0.0,0.0,0.0,0.0,0.0,0.0,0.0,0.0,0.0,0.0,0.0,0.0,0.0,0.0,0.0,0.0,0.0,0.0,0.0,0.0,0.0,0.0,0.0,0.0,0.0,0.0,2.6499,2.6499,2.6499,2.6499,2.6499,2.6499,2.6499,2.6499,2.6499,2.6499,0.0,0.0,0.0,0.0,0.0,0.0,0.0,0.0,0.0,0.0,0.0,0.0,0.0,0.0,0.0,0.0,0.0,0.0,0.0,0.0,0.0,0.0,0.0,0.0,0.0,0.0,0.0,0.0,0.0,0.0,0.0,0.0,0.0,0.0,0.0,0.0,0.0,0.0,0.0,0.0,0.0,0.0,0.0,0.0,0.0,0.0,0.0,0.0,0.0,0.0,0.0,0.0,0.0,0.0,0.0,0.0,0.0,0.0,0.0,0.0,0.0,0.0,0.0,0.0,0.0,0.0,0.0,0.0,0.0,0.0,0.0,0.0,0.0,0.0,0.0,0.0,0.0,0.0,0.0,0.0,0.0,0.0,0.0,0.0,0.0,0.0,0.0,0.0,0.0,0.0,0.0,0.0,0.0,0.0,0.0,0.0,0.0,0.0,0.0,0.0,0.0,0.0,2.6499,2.6499,2.6499,2.6499,2.6499,2.6499,2.6499,2.6499,2.6499,2.6499,0.0,0.0,0.0,0.0,0.0,0.0,0.0,0.0,0.0,0.0,0.0,0.0,0.0,0.0,0.0,0.0,0.0,0.0,0.0,0.0,0.0,0.0,0.0,0.0,0.0,0.0,0.0,0.0,0.0,0.0,0.0,0.0,0.0,0.0,0.0,0.0,0.0,0.0,0.0,0.0,0.0,0.0,0.0,0.0,0.0,0.0,0.0,0.0,0.0,0.0,0.0,0.0,0.0,0.0,0.0,0.0,0.0,0.0,0.0,0.0,0.0,0.0,0.0,0.0,0.0,0.0,0.0,0.0,0.0,0.0,0.0,0.0,0.0,0.0,0.0,0.0,0.0,0.0,0.0,0.0,0.0,0.0,0.0,0.0,0.0,0.0,0.0,0.0,0.0,0.0,0.0,0.0,0.0,0.0,0.0,0.0,0.0,0.0,0.0,0.0,0.0,0.0,2.6499,2.6499,2.6499,2.6499,2.6499,2.6499,2.6499,2.6499,2.6491,2.6411,0.0,0.0,0.0,0.0,0.0,0.0,0.0,0.0,0.0,0.0,0.0,0.0,0.0,0.0,0.0,0.0,0.0,0.0,0.0,0.0,0.0,0.0,0.0,0.0,0.0,0.0,0.0,0.0,0.0,0.0,0.0,0.0,0.0,0.0,0.0,0.0,0.0,0.0,0.0,0.0,0.0,0.0,0.0,0.0,0.0,0.0,0.0,0.0,0.0,0.0,0.0,0.0,0.0,0.0,0.0,0.0,0.0,0.0,0.0,0.0,1.9647,0.0,0.0,0.0,0.0,0.0,0.0,0.0,0.0,0.0,0.0,0.0,0.0,0.0,0.0,0.0,0.0,0.0,0.0,0.0,0.0,0.0,0.0,0.0,0.0,0.0,0.0,0.0,0.0,0.0,0.0,0.0,0.0,0.0,0.0,0.0,0.0,0.0,0.0,0.0,0.0,0.0,2.6499,2.6499,2.6499,2.6499,2.6499,2.6499,2.6499,2.6499,2.6298,2.5829,2.5844,0.0,0.0,0.0,0.0,0.0,0.0,0.0,0.0,0.0,0.0,0.0,0.0,0.0,0.0,0.0,0.0,0.0,0.0,0.0,0.0,0.0,0.0,0.0,0.0,0.0,0.0,0.0,0.0,0.0,0.0,0.0,0.0,0.0,0.0,0.0,0.0,0.0,0.0,0.0,0.0,0.0,0.0,0.0,0.0,0.0,0.0,0.0,0.0,0.0,0.0,0.0,0.0,0.0,0.0,0.0,0.0,0.0,0.0,0.0,0.0,2.0362,0.0,0.0,0.0,0.0,0.0,0.0,0.0,0.0,0.0,0.0,0.0,0.0,0.0,0.0,0.0,0.0,0.0,0.0,0.0,0.0,0.0,0.0,0.0,0.0,0.0,0.0,0.0,0.0,0.0,0.0,0.0,0.0,0.0,0.0,0.0,0.0,0.0,0.0,0.0,0.0,2.6499,2.6499,2.6499,2.6499,2.6499,2.6499,2.6499,2.6499,2.6248,2.5636,2.5683,0.0,0.0,0.0,0.0,0.0,0.0,0.0,0.0,0.0,0.0,0.0,0.0,0.0,0.0,0.0,0.0,0.0,0.0,0.0,0.0,0.0,0.0,0.0,0.0,0.0,0.0,0.0,0.0,0.0,0.0,0.0,0.0,0.0,0.0,0.0,0.0,0.0,0.0,0.0,0.0,0.0,0.0,0.0,0.0,0.0,0.0,0.0,0.0,0.0,0.0,0.0,0.0,0.0,2.3599,2.3688,2.3701,2.4008,2.3803,2.3274,2.3715,2.2515,2.0288,0.0,0.0,0.0,0.0,0.0,0.0,0.0,0.0,0.0,0.0,0.0,0.0,0.0,0.0,0.0,0.0,0.0,0.0,0.0,0.0,0.0,0.0,0.0,0.0,0.0,2.6499,2.6499,0.0,0.0,0.0,0.0,0.0,0.0,0.0,0.0,0.0,0.0,0.0,0.0,2.6499,2.6499,2.6499,2.6499,2.6499,2.6499,2.6499,2.6399,2.6097,2.5498,2.5534,2.5325,0.0,0.0,0.0,0.0,0.0,0.0,0.0,0.0,0.0,0.0,0.0,0.0,0.0,0.0,0.0,0.0,0.0,0.0,0.0,0.0,0.0,0.0,0.0,0.0,0.0,0.0,0.0,0.0,0.0,0.0,0.0,0.0,2.4897,2.2705,0.0,0.0,0.0,0.0,0.0,0.0,0.0,0.0,0.0,0.0,0.0,0.0,0.0,2.5189,2.5038,2.4789,2.4664,2.4678,2.5604,2.6044,2.6099,2.7559,2.777,2.699,2.7053,0.0,2.1868,2.0564,0.0,0.0,0.0,0.0,0.0,0.0,0.0,0.0,0.0,0.0,0.0,0.0,0.0,0.0,0.0,0.0,0.0,0.0,0.0,0.0,0.0,0.0,2.2525,2.5732,2.6499,2.6499,0.0,2.6499,2.6499,2.6499,2.6499,0.0,0.0,0.0,0.0,0.0,0.0,0.0,2.6499,2.6499,2.6499,2.6499,2.6499,2.6499,2.6499,2.6017,2.5485,2.4942,2.4488,2.3967,2.3399,2.4679,0.0,0.0,0.0,0.0,0.0,0.0,0.0,0.0,0.0,0.0,0.0,0.0,0.0,0.0,0.0,0.0,0.0,0.0,0.0,0.0,0.0,0.0,0.0,0.0,0.0,0.0,0.0,0.0,0.0,2.4759,2.5216,2.2972,2.3361,2.3146,0.0,0.0,0.0,0.0,0.0,0.0,0.0,0.0,0.0,2.397,2.6029,2.6834,2.6162,2.6858,2.7204,2.7218,2.7687,2.7907,2.7934,2.8661,2.8524,2.7703,2.7703,2.6537,2.4547,2.3188,2.2359,2.1907,0.0,0.0,0.0,0.0,2.1302,2.1227,2.0689,2.0501,0.0,2.0501,0.0,0.0,0.0,0.0,0.0,0.0,0.0,0.0,0.0,0.0,2.3891,2.5996,2.6499,2.6499,2.6499,2.6499,2.6499,0.0,2.6499,2.6499,2.6499,0.0,0.0,0.0,0.0,0.0,2.6499,2.6499,2.6499,2.6499,2.6499,2.6499,2.6499,2.5954,2.5557,2.5421,2.4898,2.4541,2.4408,2.5049,2.5591,0.0,0.0,0.0,0.0,0.0,0.0,0.0,0.0,0.0,0.0,0.0,0.0,0.0,0.0,0.0,0.0,0.0,0.0,0.0,0.0,0.0,0.0,0.0,0.0,0.0,0.0,0.0,0.0,2.4713,2.551,2.3201,2.4064,2.4145,0.0,0.0,0.0,0.0,0.0,0.0,2.3483,2.5946,2.6895,2.5881,2.7976,2.8699,2.7783,2.9027,2.9628,2.9628,2.9628,2.9628,2.9628,2.9628,2.9176,2.8363,2.8363,2.7887,2.7009,2.5521,2.4269,2.3265,2.3238,2.3314,2.3386,2.3034,2.2895,2.2819,2.2282,2.2096,2.2096,2.2096,0.0,2.237,2.2769,0.0,0.0,0.0,0.0,2.1356,2.2447,2.365,2.4921,2.6197,2.6499,2.6499,2.6499,2.6499,2.6499,0.0,2.6499,2.6499,2.6499,0.0,0.0,0.0,0.0,2.6499,2.6499,2.6499,2.6499,2.6499,2.6499,2.6499,2.6499,2.5816,2.5539,2.587,2.5079,2.483,2.5384,2.5398,2.5742,2.6497,0.0,0.0,0.0,0.0,0.0,0.0,0.0,0.0,0.0,0.0,0.0,0.0,0.0,0.0,0.0,0.0,0.0,0.0,0.0,0.0,0.0,0.0,0.0,0.0,0.0,0.0,0.0,0.0,0.0,2.3939,2.4752,0.0,0.0,0.0,0.0,2.6127,2.6943,2.684,2.5604,2.8029,2.9135,2.8439,3.0319,3.1319,3.1245,3.1335,3.138,3.138,3.138,3.138,3.138,3.138,3.0925,3.0178,3.0178,2.9675,2.8691,2.6201,2.547,2.5748,2.4196,2.3892,2.4173,2.2829,2.2332,2.2257,2.1733,2.1545,2.1545,2.1545,2.1882,2.2307,2.2332,2.2646,0.0,0.0,2.2144,2.247,2.3615,2.3979,2.4472,2.6109,2.6499,2.6499,2.6499,2.6499,2.6499,0.0,2.6499,2.6499,2.6499,0.0,2.6499,2.6499,2.6499,2.6499,2.6499,2.6499,2.6499,2.6499,2.6499,2.6499,2.6499,2.5473,2.5129,2.586,2.42,2.3853,2.5342,2.5398,2.5742,2.6497,2.719,0.0,0.0,0.0,0.0,0.0,0.0,0.0,0.0,0.0,0.0,0.0,0.0,0.0,0.0,0.0,0.0,0.0,0.0,0.0,0.0,0.0,0.0,0.0,0.0,0.0,0.0,0.0,0.0,2.6255,2.6981,0.0,2.5663,2.5159,2.5219,2.5901,2.7371,2.8051,2.7593,2.9636,3.0717,3.0464,3.1137,3.1511,3.1511,3.1511,3.1511,3.1511,3.1511,3.1511,3.1511,3.1511,3.1058,3.0299,3.0299,2.9812,2.8963,2.8636,2.8283,2.791,2.7302,2.7194,2.7297,2.6802,2.6614,2.6587,2.6388,2.6336,2.6336,2.6336,2.6083,2.5574,2.4489,2.3944,2.3536,2.282,2.3377,2.439,2.536,2.6415,2.7372,2.7969,2.8117,2.8117,2.8117,2.8117,2.8117,2.8117,2.7246,2.6499,2.6499,2.6499,2.6499,2.6499,2.6499,2.6499,2.6499,2.6499,2.6499,2.6499,2.6499,2.6348,2.5954,2.5234,2.5172,2.6038,2.4701,2.4753,2.6731,2.6363,2.6456,2.7188,2.7473,2.76,0.0,0.0,0.0,0.0,0.0,0.0,0.0,0.0,0.0,0.0,0.0,0.0,0.0,0.0,0.0,0.0,0.0,0.0,0.0,0.0,0.0,0.0,0.0,0.0,0.0,0.0,2.7273,2.727,2.8051,2.8248,2.735,2.6871,2.6874,2.7547,2.8833,2.9581,2.9581,3.0793,3.1511,3.1511,3.1511,3.1511,3.1511,3.1511,3.1511,3.1511,3.1511,3.1511,3.1511,3.1511,3.1205,3.0688,3.0688,3.0374,2.9889,3.0479,3.0359,2.9827,2.9535,2.9442,2.9395,2.9113,2.9002,2.9002,2.9002,2.9002,2.9002,2.9002,2.8604,2.7921,2.682,2.6116,2.5581,2.5046,2.5659,2.661,2.7194,2.8183,2.9002,2.9002,2.9002,2.9002,2.9002,2.9002,2.9002,2.9002,2.7871,2.6888,2.6888,2.6692,2.6499,2.6499,2.6499,2.6499,2.6499,2.6499,2.6499,2.6499,2.6499,2.6362,2.6005,2.5255,2.5304,2.6495,2.5133,2.5287,2.7509,2.6654,2.6483,2.7201,2.7242,2.7357,2.76,0.0,0.0,0.0,0.0,0.0,0.0,0.0,0.0,0.0,0.0,0.0,0.0,0.0,0.0,0.0,0.0,0.0,0.0,0.0,0.0,0.0,0.0,0.0,2.367,2.6557,2.8143,2.6901,2.7904,2.8697,2.8697,2.8712,2.9506,3.1391,3.1555,3.157,3.157,3.157,3.157,3.157,3.157,3.157,3.157,3.157,3.157,3.157,3.157,3.1555,3.1525,3.1525,3.1525,3.1511,3.1511,3.1511,3.1511,3.1511,3.1511,3.1423,3.0644,3.0344,3.0238,2.9395,2.9081,2.9081,2.9081,2.9081,2.9081,2.9081,2.9066,2.905,2.905,2.9018,2.9018,2.9034,2.905,2.905,2.9066,2.9081,2.9081,2.9081,2.9081,2.9081,2.9081,2.9081,2.9081,2.9081,2.8379,2.7769,2.7753,2.7061,2.6538,2.6538,2.6521,0.0,2.6521,2.6538,2.6538,2.6538,2.6538,2.6574,2.6641,2.5525,2.5526,2.7141,2.542,2.5342,2.7509,2.6229,2.5796,2.6523,2.6537,2.6891,2.76,0.0,0.0,0.0,0.0,0.0,0.0,0.0,0.0,0.0,0.0,0.0,0.0,0.0,0.0,0.0,0.0,0.0,0.0,0.0,0.0,0.0,0.0,2.8083,2.7335,2.8023,2.8996,3.0029,3.0479,3.0703,3.0703,3.1136,3.1645,3.2168,3.2677,3.2961,3.2961,3.2961,3.2961,3.2961,3.2961,3.2961,3.2961,3.2961,3.2961,3.2961,3.2961,3.2691,3.2228,3.2228,3.1959,3.1511,3.1511,3.1511,3.1511,3.1511,3.1511,3.1467,3.1263,3.1175,3.1146,3.0896,3.0807,3.0807,3.0807,3.0807,3.0807,3.0807,3.0419,2.9935,2.9935,2.9504,2.9129,2.9766,2.9935,3.0072,3.0659,3.0807,3.0807,3.0807,3.0807,3.0807,3.0807,3.0807,3.0807,3.0807,3.0148,2.938,2.8748,2.7937,2.7367,2.7367,2.6871,0.0,2.73,2.7367,2.7367,2.7367,2.7367,2.6812,2.5437,2.5488,2.5695,2.5911,2.5908,2.6416,2.7547,2.7214,2.7086,2.7293,2.7306,2.7395,0.0,0.0,0.0,0.0,0.0,0.0,0.0,0.0,0.0,0.0,0.0,0.0,0.0,0.0,0.0,0.0,0.0,0.0,0.0,0.0,0.0,0.0,2.8472,3.0537,3.0642,3.0657,3.1076,3.2198,3.2347,3.2347,3.2347,3.2691,3.2916,3.2916,3.3275,3.3499,3.3499,3.3499,3.3499,3.3499,3.3499,3.3499,3.3499,3.3499,3.3499,3.3499,3.3499,3.3305,3.2916,3.2916,3.2542,0.0,3.1914,3.1765,3.1511,3.1511,3.1511,0.0,0.0,0.0,0.0,0.0,3.1511,3.1511,3.1511,3.1511,3.1511,3.1511,3.119,3.0807,3.0807,3.045,3.0148,3.0659,3.0807,3.0911,3.138,3.1511,3.1511,3.1511,3.1511,3.1511,3.1511,3.1511,3.1511,3.1511,3.1117,0.0,3.0118,2.905,2.8247,2.8247,2.7838,2.772,2.8182,2.8247,2.8247,2.8247,2.8247,2.7712,2.6378,2.6381,0.0,0.0,0.0,2.6695,2.7111,2.7137,0.0,0.0,0.0,2.7293,2.76,0.0,0.0,0.0,2.76,2.76,0.0,0.0,0.0,0.0,0.0,0.0,0.0,0.0,0.0,0.0,0.0,0.0,0.0,0.0,0.0,0.0,2.9653,3.1689,3.3469,3.3724,3.3664,3.3514,3.3499,3.3499,3.3499,3.3575,3.3604,3.3604,3.3679,3.3724,3.3724,0.0,0.0,0.0,0.0,3.3724,3.3724,3.3724,3.3724,3.3724,3.3724,3.3679,3.3604,3.3604,3.3245,3.2602,3.2602,3.2228,3.1615,3.1615,3.157,3.1511,3.1511,3.1511,3.1511,3.1511,3.1511,3.1511,3.1511,0.0,0.0,3.1511,3.1511,3.1511,3.1511,3.1511,3.1511,3.1511,3.1511,3.1511,3.1511,3.1511,3.1511,3.1511,3.1511,3.1511,3.1511,3.1511,3.1511,3.1511,3.1511,3.1511,3.1511,3.0193,2.9144,2.9144,2.9066,2.905,2.9129,2.9144,2.9144,2.9144,0.0,0.0,2.8225,2.7648,2.7371,2.7471,2.6943,2.6629,2.6629,2.6629,2.6629,2.6629,2.6629,2.6943,2.76,2.76,2.76,2.76,2.76,2.76,0.0,0.0,0.0,0.0,0.0,0.0,0.0,0.0,0.0,0.0,0.0,0.0,0.0,0.0,0.0,2.9054,3.2212,3.4681,3.507,3.5115,3.4711,3.3619,3.3499,3.3499,3.3499,3.3994,3.4308,3.4308,3.4801,3.5115,3.5115,3.5115,3.5115,3.5115,3.5115,3.5115,3.5115,3.5115,3.5115,3.5115,0.0,0.0,3.4308,3.4308,3.3934,3.3305,3.3305,3.2931,3.2318,3.2318,3.1989,3.1511,3.1511,3.1511,3.1511,3.1511,3.1511,3.1511,3.1511,3.1511,3.1511,3.1511,3.1511,3.1511,3.1511,3.1511,0.0,3.1511,3.1511,3.1511,3.1511,3.1511,3.1511,3.1511,3.1511,3.1511,3.1511,3.1511,3.1511,3.1511,3.1511,3.1511,3.1511,3.0688,3.0042,3.0042,2.9442,2.9254,2.9965,3.0042,3.0042,3.0042,3.0042,2.9331,2.7556,2.7823,2.7682,2.6767,2.7137,2.7382,2.7382,2.7382,2.7382,2.7382,2.7382,2.7461,2.76,2.76,2.76,2.76,2.76,2.76,0.0,0.0,0.0,0.0,0.0,0.0,0.0,0.0,0.0,0.0,0.0,2.4762,0.0,0.0,3.0672,3.1001,3.3559,3.5504,3.5504,3.5504,3.525,3.4577,3.4502,3.4502,3.4502,3.4801,3.5012,3.5012,3.531,3.5504,3.5504,3.5504,3.5504,3.5504,3.5504,3.5504,3.5504,3.5504,3.5504,3.5504,3.5504,3.5325,3.5012,3.5012,3.4637,3.3994,3.3994,3.3619,3.2976,3.2632,3.2093,3.1511,3.1511,3.1511,3.1511,3.1511,3.1511,3.1511,3.1511,3.1511,3.1511,3.1511,3.1511,3.1511,3.1511,3.1511,3.1511,3.1511,3.1511,3.1511,3.1511,3.1511,3.1511,3.1511,3.1511,3.1511,3.1511,3.1511,3.1511,3.1511,3.1511,3.1511,3.1511,3.1175,3.0896,3.0896,3.0539,3.0404,3.0837,3.0896,3.0896,3.0896,3.0896,3.0222,2.854,2.811,2.7697,2.7091,2.7395,2.76,2.76,2.76,2.76,2.76,2.76,2.76,2.76,2.76,2.76,2.7585,2.7255,2.7106,0.0,0.0,0.0,0.0,0.0,0.0,0.0,0.0,2.4998,2.7151,2.8126,2.8607,2.8607,3.0732,3.2497,3.2497,3.4187,3.5504,3.5504,3.5504,3.5504,3.5504,3.5504,3.5504,3.5504,3.5504,3.5504,3.5504,3.5504,3.5504,3.5504,3.5504,3.5504,3.5504,3.5504,3.5504,3.5504,3.5504,3.5504,3.5504,3.5504,3.5504,3.5504,3.5504,3.5205,3.4682,3.4563,3.4188,3.3619,3.2841,3.2168,3.169,3.1555,3.1511,3.1511,3.1511,3.1511,3.1511,3.1511,3.1511,3.1511,3.1511,3.1511,3.1511,3.1511,3.1511,3.1511,3.1511,3.1511,3.1511,3.1511,3.1511,3.1511,3.1511,3.1511,3.1511,3.1511,3.1511,3.1511,3.1511,3.1511,3.1511,3.1511,3.1511,3.1511,3.1511,3.1511,3.1511,3.1511,3.1511,3.1511,3.1511,3.1511,3.0972,2.9713,2.8498,2.7735,2.76,2.76,2.76,2.76,2.76,2.76,2.76,2.76,2.76,2.76,2.76,2.7525,2.739,2.6854,2.6599,2.2816,2.333,2.468,2.4322,2.5694,2.7151,0.0,0.0,2.724,2.754,2.8126,2.8607,2.8607,3.0732,3.2497,3.2497,3.4187,3.5504,3.5504,3.5504,3.5504,3.5504,3.5504,3.5504,3.5504,3.5504,3.5504,3.5504,3.5504,3.5504,3.5504,3.5504,3.5504,3.5504,3.5504,3.5504,3.5504,3.5504,3.5504,3.5504,3.5504,3.5504,3.5504,3.5504,3.5459,3.5355,3.4757,3.4458,3.4278,3.3021,3.2452,3.2333,3.1735,3.1511,3.1511,3.1511,3.1511,3.1511,3.1511,3.1511,3.1511,3.1511,3.1511,3.1511,3.1511,3.1511,3.1511,3.1511,3.1511,3.1511,3.1511,3.1511,3.1511,3.1511,3.1511,3.1511,3.1511,3.1511,3.1511,3.1511,3.1511,3.1511,3.1511,3.1511,3.1511,3.1511,3.1511,3.1511,3.1511,3.1511,3.1511,3.1511,3.1511,3.0972,2.9713,2.8919,2.8231,2.763,2.76,2.76,2.76,2.76,2.76,2.76,2.76,2.76,2.76,2.76,2.73,2.6704,2.6629,2.6599,2.7955,2.7288,0.0,0.0,2.9188,3.0,3.0464,3.0569,3.1131,3.3129,3.3399,3.3387,3.3867,3.447,3.5032,0.0,3.5891,3.6271,3.6668,3.6339,3.6407,3.7263,3.6914,3.6311,3.5579,3.5504,3.5504,3.5504,3.5863,3.6073,3.6073,3.6417,3.6447,3.6088,3.6073,3.5893,3.5504,3.5504,3.5504,3.5504,3.5504,3.5504,3.5504,3.5504,3.5504,3.5473,3.519,3.4862,3.4458,3.3904,3.32,3.2467,3.2198,3.1839,3.1511,3.1511,3.1511,3.1511,3.1511,3.1511,3.1511,3.1511,3.1511,3.1511,3.1511,3.1511,3.1511,3.1511,3.1511,3.1511,3.1511,3.1511,3.1511,3.1511,3.1511,3.1511,3.1511,3.1511,3.1511,3.1511,3.1511,3.1511,3.1511,3.1511,3.1511,3.1511,3.1511,3.1511,3.1511,3.1511,3.1511,3.1511,3.1152,3.0553,2.9683,2.8994,2.8321,2.7645,2.76,2.76,2.76,2.76,2.76,2.76,2.76,2.76,2.76,2.76,2.7255,2.6572,2.5842,2.547,3.0443,0.0,0.0,3.1759,3.2948,3.3694,3.4274,3.4569,3.5431,3.7892,3.7951,3.7725,3.8292,3.7936,3.774,3.8307,3.7921,3.7715,3.8185,3.7805,3.7861,3.892,3.8499,3.7754,3.6838,3.6309,3.6028,3.6028,3.6462,3.6746,3.6746,3.7165,3.721,3.6746,3.6984,3.6782,3.6101,3.6327,3.6221,3.5814,3.5814,3.5701,3.5504,3.5504,3.5619,3.5814,3.5814,3.5638,3.5401,3.5202,3.456,3.3659,3.3263,3.2806,3.2364,3.2151,3.1838,3.1511,3.1511,3.1511,3.1511,3.1511,3.1511,3.1511,3.1511,3.1511,3.1511,3.1511,3.1511,3.1511,3.1511,3.1511,3.1511,3.1511,3.1511,3.1511,3.1511,3.1511,3.1511,3.1511,3.1511,3.1511,3.1511,3.1511,3.1511,3.1511,3.1511,3.1511,3.1511,3.1511,3.1511,3.1511,3.1076,3.0462,2.9668,2.9159,2.8515,2.7645,2.76,2.76,2.76,2.76,2.76,2.76,2.76,2.76,2.76,2.76,2.7255,2.656,2.5443,2.4899,0.0,0.0,3.1557,3.3846,3.6567,3.867,3.8715,3.9272,3.9814,3.991,3.9911,3.9896,3.9926,3.9911,3.9896,3.9926,3.9911,3.9912,3.9928,3.9897,3.9913,3.996,3.993,3.9898,0.0,3.8323,3.7327,3.7327,3.7357,3.7357,3.7357,3.7404,3.7404,3.7357,3.8188,3.8272,3.7544,3.8363,3.8046,3.6569,3.6569,3.6196,3.5504,3.5504,3.5894,3.6569,3.6569,3.7009,3.7654,3.7008,3.6716,3.654,3.5168,3.4625,3.4529,3.3799,3.2664,3.1511,3.1511,3.1511,3.1511,3.1511,3.1511,3.1511,3.1511,3.1511,3.1511,3.1511,3.1511,3.1511,3.1511,3.1511,3.1511,3.1511,3.1511,3.1511,3.1511,3.1511,3.1511,3.1511,3.1511,3.1511,3.1511,3.1511,3.1511,3.1511,3.1511,3.1511,3.1511,3.1511,3.1511,3.1511,3.1481,3.0972,2.9713,2.9578,2.9022,2.7675,2.76,2.76,2.76,2.76,2.76,2.76,2.76,2.76,2.76,2.76,2.7255,2.6575,2.5833,2.5508,0.0,0.0,3.5349,3.7591,3.8901,3.9772,4.029,4.0616,4.0941,4.1424,3.9534,3.7972,3.8516,3.8163,3.8002,3.8516,3.9849,4.096,4.1404,4.1004,4.1028,4.2079,4.1684,0.0,0.0,0.0,0.0,3.9125,3.9533,3.9783,3.9783,4.0206,4.0253,3.9799,4.0071,3.9659,3.847,3.8755,3.8389,3.7397,3.7397,3.728,3.7026,3.7026,3.716,3.7397,3.7397,3.7559,3.7775,3.7564,3.7208,3.6692,3.5737,3.5081,3.4597,3.388,3.3313,3.2891,3.2891,3.2891,3.2826,3.2367,3.223,3.2148,3.1654,3.1511,3.1511,3.1511,3.1511,3.1511,3.1511,3.1511,3.1511,3.1511,3.1511,3.1511,3.1511,3.1511,3.1511,3.1511,3.1511,3.1511,3.1511,3.1511,3.1511,3.1511,3.1511,3.1511,3.1511,3.1511,3.1511,3.1511,3.1511,3.0972,2.9713,2.9593,2.9037,2.7675,2.76,2.76,2.76,2.76,2.76,2.76,2.76,2.76,2.76,2.76,2.7255,2.6575,2.5885,2.5574,0.0,3.6069,3.8052,4.0266,4.1033,4.1346,4.187,4.2213,4.254,4.3017,4.0342,3.8062,3.8593,3.7375,3.6569,3.7378,3.8694,4.0144,4.1629,4.1414,4.1742,4.3545,4.3275,4.3152,0.0,0.0,0.0,4.0761,4.11,4.1357,4.1357,4.1773,4.1805,4.1373,4.1654,4.1258,4.0092,4.0107,3.9459,3.8191,3.7921,3.7807,3.7807,3.7807,3.7935,3.8189,3.8189,3.836,3.8627,3.8627,3.836,3.791,3.7179,3.6447,3.574,3.502,3.4566,3.4252,3.3761,3.3595,3.3534,3.3106,3.2946,3.2828,3.2104,3.188,3.1839,3.1568,3.1511,3.1511,3.1511,3.1511,3.1511,3.1511,3.1511,3.1511,3.1511,3.1511,3.1511,3.1511,3.1511,3.1511,3.1511,3.1511,3.1511,3.1511,3.1511,3.1511,3.1511,3.1511,3.1511,3.1511,3.1511,3.1062,2.9998,2.9713,2.9129,2.8034,2.7735,2.76,2.76,2.76,2.76,2.76,2.76,2.76,2.76,2.76,2.7375,2.6931,2.625,2.6069,3.7714,3.9169,3.9795,4.1894,4.2946,4.3457,4.3457,4.4045,4.4564,4.4398,4.1941,3.9774,0.0,0.0,3.5797,3.6547,3.6981,3.8171,4.0984,4.1373,4.2185,0.0,0.0,0.0,0.0,0.0,0.0,4.2252,0.0,4.2125,4.2125,4.2125,4.2125,4.2125,4.2939,4.302,4.2277,4.2238,4.1141,3.8948,3.8262,3.7923,3.7923,3.7923,3.8304,3.8962,3.8962,3.9381,4.0096,4.0096,4.0096,4.0028,3.9288,3.8548,3.7821,3.7071,3.6282,3.5424,3.4137,3.3697,3.3697,3.3659,3.3646,3.3534,3.2855,3.2654,3.252,3.181,3.1611,3.1596,3.1568,3.1553,3.1554,3.1511,3.1511,3.1511,3.1511,3.1511,3.1511,3.1511,3.1511,3.1511,3.1511,3.1511,3.1511,3.1511,3.1511,3.1511,3.1511,3.1511,3.1511,3.1511,3.1511,3.1227,3.0567,2.9952,2.9309,2.8637,2.7974,2.76,2.76,2.76,2.76,2.76,2.76,2.76,2.76,2.76,2.76,2.7587,2.6878,2.693,3.9457,4.1454,4.3298,4.3873,4.4144,4.4296,4.4296,4.4448,4.3972,4.1721,3.8408,3.5261,0.0,0.0,0.0,3.5058,3.9322,0.0,4.3619,4.3738,0.0,0.0,0.0,4.4615,4.4615,4.4615,0.0,0.0,4.3946,4.3946,4.3946,4.3946,4.3946,4.3946,4.415,4.3883,4.3113,4.2011,4.0923,3.9795,3.9597,3.9506,3.9506,3.9506,3.9627,3.9795,3.9795,3.9914,4.0096,4.0096,4.0096,4.0028,3.9288,3.8548,3.7821,3.7071,3.6282,3.5538,3.5213,3.5091,3.5005,3.4508,3.4346,3.4223,3.3559,3.3352,3.33,3.3116,3.3064,3.2944,3.2449,3.2313,3.2174,3.164,3.1511,3.1511,3.1511,3.1511,3.1511,3.1511,3.1511,3.1511,3.1511,3.1511,3.1511,3.1511,3.1511,3.1511,3.1511,3.1511,3.1511,3.1511,3.1511,3.1227,3.0567,2.9952,2.9309,2.8637,2.7974,2.76,2.76,2.76,2.76,2.76,2.76,2.76,2.76,2.76,2.76,2.76,2.7408,2.742,4.1724,4.3298,4.4615,4.4615,4.4615,4.4245,4.2939,4.2367,4.1284,3.8256,3.4669,0.0,0.0,0.0,0.0,0.0,0.0,0.0,4.2926,4.3112,4.3484,0.0,4.4615,0.0,4.4615,4.4615,4.4615,0.0,4.4615,4.4615,4.4615,4.4615,4.4615,4.4615,4.4615,4.4059,4.2929,4.21,4.1149,4.0096,4.0096,4.0096,4.0096,4.0096,4.0096,4.0096,0.0,4.0096,4.0096,4.0096,4.0096,4.0062,3.9643,3.8819,3.7843,3.7444,3.6569,3.56,3.56,3.56,3.5543,3.5156,3.504,3.4906,3.4235,3.4037,3.3987,3.3671,3.3595,3.3456,3.2761,3.26,3.2424,3.1683,3.1511,3.1511,3.1511,3.1511,3.1511,3.1511,3.1511,3.1511,3.1511,3.1511,3.1511,3.1511,3.1511,3.1511,3.1511,3.1511,3.1511,3.1511,3.1511,3.1346,3.0972,3.0118,2.9443,2.9069,2.8139,2.76,2.76,2.76,2.76,2.76,2.76,2.76,2.76,2.76,2.76,2.76,2.76,2.76,4.389,4.4615,4.4615,4.4615,4.4615,4.3805,4.0794,3.9525,3.8036,3.4618,0.0,2.8722,2.8333,2.9187,3.0284,3.1326,0.0,3.8273,4.1238,4.1644,4.2371,4.4364,4.4615,4.4615,4.4615,4.4615,4.4615,4.4615,4.4615,4.4615,4.4615,4.4615,4.4615,4.4615,4.4615,4.3856,4.2317,4.23,4.1555,4.0096,4.0096,4.0096,4.0096,4.0096,4.0096,4.0096,4.0096,0.0,4.0096,4.0096,4.0096,4.0096,4.0096,3.9254,3.8041,3.7927,3.698,3.5746,3.5633,3.56,3.56,3.56,3.56,3.5492,3.4906,3.4736,3.4616,3.4025,3.3878,3.37,3.2935,3.2736,3.2518,3.1711,3.1511,3.1511,3.1511,3.1511,3.1511,3.1511,3.1511,3.1511,3.1511,3.1511,3.1511,3.1511,3.1511,3.1511,3.1511,3.1511,3.1511,3.1511,3.1511,3.1511,3.1511,3.0328,2.9593,2.9593,2.8349,2.76,2.76,2.76,2.76,2.76,2.76,2.76,2.76,2.76,2.76,2.76,2.76,2.76,4.4462,4.4615,4.4615,4.4615,4.4615,4.3805,4.0785,3.9529,0.0,0.0,0.0,2.7258,2.4821,2.7004,0.0,3.2611,0.0,0.0,0.0,0.0,4.4161,0.0,0.0,0.0,0.0,0.0,0.0,0.0,0.0,4.4615,4.4615,4.4615,4.4615,4.4615,4.4615,4.3856,4.2317,4.23,4.1555,4.0096,4.0096,4.0096,4.0096,4.0096,4.0096,4.0096,4.0096,0.0,4.0096,4.0096,4.0096,4.0096,4.0096,3.9559,3.8734,3.8125,3.7347,3.6496,3.5831,3.56,3.56,3.56,3.56,3.5588,3.547,3.5436,3.5396,3.5293,3.5242,3.497,3.3735,3.343,3.3103,3.1809,3.1511,3.1511,3.1511,3.1511,3.1511,3.1511,3.1511,3.1511,3.1511,3.1511,3.1511,3.1511,3.1511,3.1511,3.1511,3.1511,3.1511,3.1511,3.1511,3.1511,3.1511,3.0328,2.9593,2.9593,2.8349,2.76,2.76,2.76,2.76,2.76,2.76,2.76,2.76,2.76,2.76,2.76,2.76,2.76,4.4615,4.4615,4.4615,4.4615,4.4615,4.3399,3.8807,0.0,0.0,0.0,2.659,2.5524,2.3739,0.0,0.0,0.0,0.0,0.0,0.0,0.0,0.0,0.0,0.0,0.0,0.0,0.0,0.0,0.0,0.0,4.4615,4.4615,4.4615,4.4615,4.4615,4.4615,4.3856,4.2317,4.23,4.1555,4.0096,4.0096,4.0096,4.0096,4.0096,4.0096,4.0096,4.0096,0.0,4.0096,4.0096,4.0096,4.0096,4.0096,3.9643,3.8916,3.8176,3.7432,3.6682,3.5881,3.56,3.56,3.56,3.56,3.56,3.56,3.56,3.56,3.56,3.56,3.5362,3.4386,3.3862,3.3339,3.2327,3.1782,3.1511,3.1511,3.1511,3.1511,3.1511,3.1511,3.1511,3.1511,3.1511,3.1511,3.1511,3.1511,3.1511,3.1511,3.1511,3.1511,3.1511,3.1511,3.1511,3.1511,3.0613,2.9937,2.9623,2.8665,2.7961,2.76,2.76,2.76,2.76,2.76,2.76,2.76,2.76,2.76,2.76,2.76,2.76,4.4415,4.4615,4.4615,4.4615,4.4615,4.301,3.698,3.5019,0.0,0.0,2.4609,2.4321,2.3739,0.0,0.0,0.0,0.0,0.0,0.0,0.0,0.0,0.0,0.0,0.0,0.0,0.0,0.0,0.0,0.0,0.0,4.4615,4.4615,4.4615,4.4615,4.4615,4.3856,4.2317,4.23,4.1555,4.0096,4.0096,4.0096,4.0096,4.0096,4.0096,4.0096,4.0096,0.0,0.0,4.0096,4.0096,4.0096,4.0096,3.9745,3.9136,3.8227,3.7533,3.6902,3.5932,3.56,3.56,3.56,3.56,3.56,3.56,3.56,3.56,3.56,3.56,3.5447,3.4771,3.4099,3.3391,3.2559,3.1923,3.1511,3.1511,3.1511,3.1511,3.1511,3.1511,3.1511,3.1511,3.1511,3.1511,3.1511,3.1511,3.1511,3.1511,3.1511,3.1511,3.1511,3.1511,3.1511,3.1511,3.0897,3.0238,2.9638,2.8966,2.8306,2.7642,2.76,2.76,2.76,2.76,2.76,2.76,2.76,2.76,2.76,2.76,2.76,4.3856,4.4615,4.4615,4.4615,4.4615,4.301,3.698,0.0,0.0,2.6733,2.4974,2.4474,2.4406,2.527,0.0,0.0,0.0,3.3914,0.0,0.0,0.0,0.0,0.0,0.0,0.0,0.0,0.0,0.0,0.0,0.0,4.4615,4.4615,4.4615,4.4615,4.4615,4.3856,4.2317,4.23,4.1555,4.0096,4.0096,4.0096,4.0096,4.0096,4.0096,4.0096,4.0096,0.0,0.0,4.0096,4.0096,4.0096,4.0096,4.0062,3.9842,3.8413,3.7872,3.7589,3.6107,3.56,3.56,3.56,3.56,3.56,3.56,3.56,3.56,3.56,3.56,3.5447,3.4771,3.4099,3.3258,3.1923,3.1539,3.1511,3.1511,3.1511,3.1511,3.1511,3.1511,3.1511,3.1511,3.1511,3.1511,3.1511,3.1511,3.1511,3.1511,3.1511,3.1511,3.1511,3.1511,3.1511,3.1511,3.0897,3.0238,2.9638,2.8966,2.8306,2.7642,2.76,2.76,2.76,2.76,2.76,2.76,2.76,2.76,2.76,2.76,2.76,4.3772,4.4615,4.4615,4.4615,4.323,4.0798,3.6563,0.0,3.12,2.6564,2.5718,2.5684,2.5236,2.5761,2.6657,0.0,0.0,0.0,0.0,0.0,0.0,0.0,0.0,0.0,0.0,0.0,0.0,0.0,0.0,0.0,4.4615,4.4615,4.4615,4.4615,4.4615,4.3856,4.2317,4.23,4.1555,4.0096,4.0096,4.0096,4.0096,4.0096,4.0096,4.0096,4.0096,0.0,0.0,4.0096,4.0096,4.0096,4.0096,4.0096,3.9926,3.8447,3.7893,3.7674,3.6124,3.56,3.56,3.56,3.56,3.56,3.56,3.56,3.56,3.56,3.56,3.5543,3.5265,3.4411,3.3365,3.2394,3.1824,3.1511,3.1511,3.1511,3.1511,3.1511,3.1511,3.1511,3.1511,3.1511,3.1511,3.1511,3.1511,3.1511,3.1511,3.1511,3.1511,3.1511,3.1511,3.1511,3.1511,3.1256,3.0673,2.9653,2.9353,2.8725,2.7645,2.76,2.76,2.76,2.76,2.76,2.76,2.76,2.76,2.76,2.76,2.76,4.2452,4.3924,4.4615,4.4615,4.2333,3.9314,0.0,0.0,3.0192,2.6649,2.6336,2.6547,2.6031,2.6353,2.67,2.67,0.0,3.0253,0.0,0.0,0.0,0.0,0.0,0.0,0.0,0.0,0.0,0.0,0.0,0.0,4.4615,4.4615,4.4615,4.4615,4.4615,4.3856,4.2317,4.23,4.1642,4.0331,4.0184,4.0179,4.0336,4.0167,4.0096,4.0108,4.0262,0.0,0.0,4.0538,4.0594,4.0599,4.0405,4.0348,4.0136,3.8502,3.7893,3.7674,3.6124,3.56,3.56,3.56,3.56,3.56,3.56,3.56,3.56,3.56,3.56,3.5549,3.5362,3.4459,3.343,3.2747,3.2035,3.1511,3.1511,3.1511,3.1511,3.1511,3.1511,3.1511,3.1511,3.1511,3.1511,3.1511,3.1511,3.1511,3.1511,3.1511,3.1511,3.1511,3.1511,3.1511,3.1511,3.1511,3.0957,2.9683,2.9593,2.9007,2.766,2.76,2.76,2.76,2.76,2.76,2.76,2.76,2.76,2.76,2.76,2.76,3.9331,4.2337,4.4615,4.4615,4.233,3.9305,0.0,0.0,3.0337,2.7309,2.6691,2.67,2.6683,2.6691,2.67,2.67,2.6733,0.0,0.0,0.0,0.0,0.0,0.0,0.0,0.0,0.0,0.0,0.0,0.0,0.0,4.4615,4.4615,4.4615,4.4615,4.4615,4.3856,4.2317,4.23,4.1827,4.088,4.0343,4.038,4.0868,4.0331,4.0096,0.0,0.0,0.0,0.0,4.1534,4.1789,4.1718,4.1133,4.0891,4.0648,3.8653,3.7893,3.7674,3.6124,3.56,3.56,3.56,3.56,3.56,3.56,3.56,3.56,3.56,3.56,3.5458,3.4783,3.4112,3.343,3.2747,3.2035,3.1511,3.1511,3.1511,3.1511,3.1511,3.1511,3.1511,3.1511,3.1511,3.1511,3.1511,3.1511,3.1511,3.1511,3.1511,3.1511,3.1511,3.1511,3.1511,3.1511,3.1511,3.0957,2.9683,2.9593,2.9007,2.766,2.76,2.76,2.76,2.76,2.76,2.76,2.76,2.76,2.76,2.76,2.76,3.6219,3.7724,3.8447,3.8447,3.6214,3.3772,3.2814,0.0,2.7841,2.6903,2.67,2.67,2.67,2.67,2.686,2.7376,2.7452,0.0,0.0,0.0,0.0,0.0,0.0,0.0,0.0,0.0,0.0,0.0,0.0,0.0,4.5192,4.5218,4.5039,4.4612,4.4479,4.3915,4.2927,4.2784,4.231,4.1512,4.092,4.0955,4.1501,4.0909,4.0879,0.0,0.0,0.0,0.0,4.1718,4.1556,4.1167,4.0972,4.0903,4.0648,3.8635,3.812,3.8178,3.6259,3.56,3.56,3.56,3.56,3.56,3.56,3.56,3.56,3.56,3.56,3.5538,3.5339,3.4788,3.4235,3.4025,3.344,3.2812,3.2355,3.2244,3.2106,3.1596,3.1511,3.1511,3.1511,3.1511,3.1511,3.1511,3.1511,3.1511,3.1511,3.1511,3.1511,3.1511,3.1511,3.1511,3.1511,3.1511,3.1122,3.0268,2.9832,2.9204,2.8321,2.7839,2.76,2.76,2.76,2.76,2.76,2.76,2.76,2.76,2.76,2.7823,0.0,3.4748,3.56,3.56,3.3379,0.0,0.0,0.0,2.67,2.67,2.67,2.67,2.67,2.67,2.6843,2.7308,0.0,0.0,0.0,0.0,0.0,0.0,0.0,0.0,0.0,0.0,0.0,0.0,0.0,0.0,4.582,4.5845,4.5534,4.4854,4.4711,4.4295,4.3551,4.311,4.264,4.2131,4.1534,4.1556,4.2121,4.1512,4.1446,0.0,0.0,0.0,0.0,4.2364,4.2218,4.1852,4.1664,4.1578,4.1336,3.9268,3.8586,3.8425,3.6546,3.5772,3.56,3.56,3.56,3.56,3.56,3.56,3.56,3.56,3.56,3.56,3.56,3.5098,3.46,3.46,3.3899,3.3106,3.2695,3.2382,3.2049,3.1582,3.1511,3.1511,3.1511,3.1511,3.1511,3.1511,3.1511,3.1511,3.1511,3.1511,3.1511,3.1511,3.1511,3.1511,3.1511,3.1511,3.1212,3.0552,2.9937,2.9399,2.8955,2.8086,2.7698,2.7947,2.7725,2.771,2.7947,2.8161,2.8283,2.8283,2.8283,2.8484,0.0,3.2903,0.0,0.0,0.0,0.0,0.0,0.0,0.0,2.675,2.675,2.6733,2.6708,2.67,2.6716,2.6767,0.0,0.0,0.0,0.0,0.0,0.0,0.0,0.0,0.0,0.0,0.0,0.0,0.0,0.0,4.6478,4.6424,4.6064,4.536,4.5218,4.4817,4.4085,4.3321,4.2879,4.2759,4.2152,4.2172,4.274,4.2142,4.1877,0.0,0.0,0.0,0.0,4.3286,4.347,4.3392,4.2892,4.2711,4.2445,4.0287,3.9188,3.8534,3.6946,3.6043,3.56,3.56,3.56,3.56,3.56,3.56,3.56,3.56,3.56,3.56,3.56,3.515,3.4676,3.4676,3.3671,3.2736,3.2682,3.2106,3.1553,3.1511,3.1511,3.1511,3.1511,3.1511,3.1511,3.1511,3.1511,3.1511,3.1511,3.1511,3.1511,3.1511,3.1511,3.1511,3.1511,3.1511,3.1227,3.0598,2.9993,2.9652,2.9565,2.8336,2.7944,2.8559,2.8018,2.8005,2.8571,2.9123,2.9395,2.9395,2.9395,2.9417,2.7935,0.0,2.8789,2.8789,2.8273,2.7835,0.0,0.0,0.0,0.0,0.0,2.7059,2.6758,2.67,2.6877,0.0,0.0,0.0,0.0,0.0,0.0,0.0,0.0,0.0,0.0,0.0,0.0,0.0,0.0,4.6629,4.7139,4.6575,4.6371,4.6645,4.5472,4.4505,4.3886,4.3536,4.3351,4.3322,4.2742,4.2789,4.3286,4.2751,4.2714,0.0,0.0,0.0,4.3312,4.3444,4.3259,4.2883,4.2759,4.2711,4.2445,4.0287,3.9451,3.91,3.7102,3.6043,3.56,3.56,3.56,3.56,3.56,3.56,3.56,3.56,3.56,3.56,3.56,3.5481,3.5362,3.5362,3.474,3.3987,3.3482,3.2841,3.216,3.1611,3.1511,3.1511,3.1511,3.1511,3.1511,3.1511,3.1511,3.1511,3.1511,3.1511,3.1511,3.1511,3.1511,3.1511,3.1511,3.1511,3.1436,3.1271,3.0641,3.0274,3.0273,2.8987,2.8567,2.918,2.9054,2.9054,2.918,2.9327,2.9395,2.9395,2.9395,2.9651,2.7479,2.7147,2.675,2.6931,2.6849,2.6758,2.698,0.0,0.0,0.0,0.0,2.7295,2.7264,0.0,0.0,0.0,0.0,0.0,0.0,0.0,0.0,0.0,0.0,0.0,0.0,0.0,0.0,0.0,0.0,4.7276,4.725,4.6842,4.6424,4.6003,4.5159,4.4547,4.4222,4.3732,4.3506,4.3506,4.3205,4.3214,4.3479,4.3205,4.3223,0.0,0.0,0.0,4.3506,4.3506,4.3339,4.3078,4.3078,4.3078,4.2859,4.1032,4.0042,3.9335,3.7526,3.6334,3.56,3.56,3.56,3.56,3.56,3.56,3.56,3.56,3.56,3.56,3.56,3.56,3.56,3.56,3.5086,3.4419,3.3748,3.3066,3.2382,3.1654,3.1511,3.1611,3.1937,3.2007,3.2007,3.2007,3.2007,3.2007,3.2007,3.171,3.164,3.1965,3.2007,3.2007,3.2007,3.2284,3.2339,3.2021,3.135,3.1075,3.1361,2.9785,2.9081,2.9395,2.9673,2.9816,2.9816,3.0091,3.0219,3.0219,3.0219,3.0404,2.7776,2.7765,2.7569,2.7345,2.7091,2.6882,2.6882,0.0,0.0,0.0,0.0,0.0,0.0,0.0,0.0,0.0,0.0,0.0,0.0,0.0,0.0,0.0,0.0,0.0,0.0,0.0,0.0,0.0,0.0,4.7819,4.7131,4.6874,4.6104,4.4737,4.4571,4.4516,4.4516,4.3836,4.3506,4.3506,4.3506,4.3506,4.3506,4.3506,4.3506,4.3506,0.0,0.0,4.3506,4.3506,4.3506,4.3506,4.3506,4.3506,4.3334,4.2014,4.0756,3.9487,3.7878,3.6574,3.56,3.56,3.56,3.56,3.56,3.56,3.56,3.56,3.56,3.56,3.56,3.56,3.56,3.56,3.5086,3.4419,3.3748,3.3066,3.2424,3.1782,3.1668,3.1894,3.2627,3.2747,3.2747,3.2747,3.2747,3.2747,3.2747,3.2216,3.2048,3.2695,3.2747,3.2747,3.2747,3.3365,3.3505,3.2949,3.2217,3.1943,3.2251,3.0596,2.9629,2.954,3.0134,3.0445,3.0445,3.0938,3.12,3.12,3.12,3.12,2.7699,2.9794,3.106,2.8045,2.7507,2.7725,2.7725,0.0,0.0,0.0,0.0,0.0,0.0,0.0,0.0,0.0,0.0,0.0,0.0,0.0,0.0,0.0,0.0,0.0,0.0,0.0,0.0,0.0,0.0,4.7223,4.7113,4.581,4.4957,4.4718,4.403,4.369,4.369,4.3561,4.3506,4.3506,4.3506,4.3506,4.3506,4.3506,4.3506,4.3506,0.0,4.3506,4.3506,4.3506,4.3506,4.3506,4.3506,4.3506,4.3387,4.2485,4.1323,3.9839,3.7401,3.6146,3.56,3.56,3.56,3.56,3.56,3.56,3.56,3.56,3.56,3.56,3.56,3.56,3.56,3.56,3.5086,3.4419,3.3748,3.3066,3.2574,3.2451,3.2437,3.2654,3.3326,3.3456,3.3456,3.3456,3.3456,3.3456,3.3456,3.3352,3.331,3.343,3.3456,3.3456,3.3456,3.4062,3.4394,3.4297,3.36,3.2694,3.16,3.116,3.0679,3.0166,3.075,3.1055,3.1055,3.1151,3.12,3.12,3.12,3.12,2.7697,2.9248,3.068,3.0564,3.1833,3.3095,0.0,0.0,0.0,0.0,0.0,0.0,0.0,0.0,0.0,0.0,0.0,0.0,0.0,0.0,0.0,0.0,0.0,0.0,0.0,0.0,0.0,0.0,0.0,0.0,4.5838,4.5104,4.4498,4.4066,4.369,4.3506,4.3506,4.3506,4.3506,4.3506,4.3506,4.3506,4.3506,4.3506,4.3506,4.3506,0.0,4.3506,4.3506,4.3506,4.3506,4.3506,4.3506,4.3506,4.337,4.2275,4.085,3.9206,3.7606,3.6401,3.56,3.56,3.56,3.56,3.56,3.56,3.56,3.56,3.56,3.56,3.56,3.56,3.56,3.56,3.5362,3.497,3.4284,3.3899,3.3569,3.3209,3.3145,3.3352,3.4025,3.4149,3.4149,3.4149,3.4149,3.4149,3.4149,3.3824,3.3735,3.4099,3.4149,3.4149,3.4149,3.4748,3.4966,3.4576,3.3851,3.2977,3.1922,3.1443,3.1065,3.0797,3.1055,3.12,3.12,3.12,3.12,3.12,3.142,3.1509,2.727,2.8586,3.0363,3.2574,3.4333,0.0,0.0,0.0,0.0,0.0,0.0,0.0,0.0,0.0,0.0,0.0,0.0,0.0,0.0,0.0,0.0,0.0,0.0,0.0,0.0,0.0,0.0,0.0,0.0,0.0,4.4737,4.4516,4.414,4.3524,4.3506,4.3506,4.3506,4.3506,4.3506,4.3506,4.3506,4.3506,4.3506,4.3506,4.3506,4.3506,4.3506,4.3506,4.3506,4.3506,4.3506,4.3506,4.3506,4.3506,4.3361,4.215,4.0508,3.8799,3.8049,3.6833,3.56,3.56,3.56,3.56,3.56,3.56,3.56,3.56,3.56,3.56,3.56,3.56,3.56,3.56,3.56,3.5424,3.4748,3.46,3.4443,3.3937,3.3836,3.405,3.4724,3.483,3.483,3.483,3.483,3.483,3.483,3.4399,3.4276,3.4771,3.483,3.483,3.483,3.5299,3.5357,3.4793,3.3897,3.3152,3.2571,3.1674,3.12,3.12,3.12,3.12,3.12,3.12,3.1259,3.1351,3.166,3.187,2.6024,2.9174,3.2393,3.2593,3.112,0.0,3.6773,3.5985,0.0,3.7799,0.0,0.0,0.0,0.0,0.0,0.0,0.0,0.0,0.0,0.0,0.0,0.0,0.0,0.0,0.0,0.0,0.0,0.0,0.0,0.0,4.47,4.3993,4.3561,4.3506,4.3506,4.3506,4.3506,4.3506,4.3506,4.3506,4.3506,4.3506,4.3506,4.3506,4.3506,4.3506,4.3506,4.3506,4.3506,4.3506,4.3506,4.3506,4.3506,4.3506,4.3396,4.2546,4.1089,3.9425,3.8624,3.7134,3.56,3.56,3.56,3.56,3.56,3.56,3.56,3.56,3.56,3.56,3.56,3.56,3.56,3.56,3.56,3.5424,3.4748,3.46,3.4588,3.454,3.4528,3.4736,3.5407,3.5526,3.5526,3.5526,3.5526,3.5526,3.5526,3.5492,3.547,3.5515,3.5526,3.5526,3.5526,3.5577,3.5583,3.5515,3.419,3.3389,3.3311,3.1952,3.12,3.12,3.12,3.12,3.12,3.12,3.1382,3.1752,3.1789,3.203,2.5596,2.8673,3.1971,3.2479,3.1904,0.0,0.0,4.026,4.0037,0.0,0.0,0.0,0.0,0.0,0.0,0.0,0.0,0.0,0.0,0.0,0.0,0.0,0.0,0.0,0.0,0.0,0.0,0.0,0.0,0.0,4.3956,4.3671,4.3506,4.3506,4.3506,4.3506,4.3506,4.3506,4.3506,4.3506,4.3506,4.3506,4.3506,4.3506,4.3506,4.3506,4.3506,4.3506,4.3506,4.3506,4.3506,4.3506,4.3506,4.3506,4.3451,4.3157,4.1588,3.9556,3.9262,3.7579,3.56,3.56,3.56,3.56,3.56,3.56,3.56,3.56,3.56,3.56,3.56,3.56,3.56,3.56,3.56,3.5526,3.5276,3.5219,3.5219,3.5219,3.5219,3.5305,3.5566,3.56,3.56,3.56,3.56,3.56,3.56,3.56,3.56,3.56,3.56,3.56,3.56,3.56,3.56,3.56,3.4647,3.388,3.3413,3.2418,3.1674,3.1217,3.12,3.12,3.12,3.1458,3.165,3.1808,3.24,3.2769,2.5026,2.721,2.9885,0.0,0.0,0.0,4.0175,4.1579,4.1946,0.0,0.0,0.0,0.0,0.0,0.0,0.0,0.0,0.0,0.0,0.0,0.0,0.0,0.0,0.0,0.0,0.0,0.0,0.0,0.0,0.0,0.0,4.3506,4.3506,4.3506,4.3506,4.3506,4.3506,4.3506,4.3506,4.3506,4.3506,4.3506,4.3506,4.3506,4.3506,4.3506,4.3506,4.3506,4.3506,4.3506,4.3506,4.3506,4.3506,4.3506,4.3506,4.3506,4.1841,3.9591,3.9591,3.7843,3.56,3.56,3.56,3.56,3.56,3.56,3.56,3.56,3.56,3.56,3.56,3.56,3.56,3.56,3.56,3.56,3.56,3.56,3.56,3.56,3.56,3.56,3.56,3.56,3.56,3.56,3.56,3.56,3.56,3.56,3.56,3.56,3.56,3.56,3.56,3.56,3.56,3.56,3.5279,3.4655,3.3663,3.2916,3.2159,3.1399,3.1534,3.1543,3.1399,3.1815,3.21,3.2264,3.2895,3.3266,2.4194,2.4824,0.0,0.0,0.0,0.0,3.8781,3.866,3.9126,0.0,0.0,0.0,0.0,0.0,0.0,0.0,0.0,0.0,0.0,0.0,0.0,0.0,0.0,0.0,0.0,0.0,0.0,0.0,0.0,0.0,0.0,4.3506,4.3506,4.3506,4.3506,4.3506,4.3506,4.3506,4.3506,4.3506,4.3506,4.3506,4.3506,4.3506,4.3506,4.3506,4.3506,4.3506,4.3506,4.3506,4.3506,4.3506,4.3506,4.3506,4.3506,4.3488,4.1841,3.9591,3.9591,3.7843,3.56,3.56,3.56,3.56,3.56,3.56,3.56,3.56,3.56,3.56,3.56,3.56,3.56,3.56,3.56,3.56,3.56,3.56,3.56,3.56,3.56,3.56,3.56,3.56,3.56,3.56,3.56,3.56,3.56,3.56,3.56,3.56,3.56,3.56,3.56,3.56,3.56,3.5611,3.6107,3.571,3.4174,3.3417,3.2639,3.1833,3.2273,3.2264,3.1816,3.229,3.2745,3.3199,3.3206,3.343,2.4194,2.7682,0.0,0.0,0.0,0.0,0.0,3.9974,0.0,0.0,0.0,0.0,0.0,0.0,0.0,0.0,0.0,0.0,0.0,0.0,0.0,0.0,0.0,0.0,0.0,0.0,0.0,0.0,0.0,0.0,0.0,4.3506,4.3506,4.3506,4.3506,4.3506,4.3506,4.3506,4.3506,4.3506,4.3506,4.3506,4.3506,4.3506,4.3506,4.3506,4.3506,4.3506,4.3506,4.3506,4.3506,4.3506,4.3506,4.3506,4.3433,4.2855,4.1361,3.952,3.8941,3.7377,3.56,3.56,3.56,3.56,3.56,3.56,3.56,3.56,3.56,3.56,3.56,3.56,3.56,3.56,3.56,3.56,3.56,3.56,3.56,3.56,3.56,3.56,3.56,3.56,3.56,3.56,3.56,3.56,3.56,3.56,3.56,3.56,3.56,3.56,3.56,3.56,3.5761,3.6139,3.6301,3.5955,3.4978,3.4516,3.3917,3.3142,3.2716,3.2434,3.2281,3.2761,3.306,3.3214,3.3494,3.3687,2.5763,0.0,0.0,0.0,0.0,0.0,0.0,0.0,0.0,0.0,0.0,0.0,0.0,0.0,0.0,0.0,0.0,0.0,0.0,0.0,0.0,0.0,0.0,0.0,0.0,0.0,0.0,0.0,0.0,0.0,0.0,4.3506,4.3506,4.3506,4.3506,4.3506,4.3506,4.3506,4.3506,4.3506,4.3506,4.3506,4.3506,4.3506,4.3506,4.3506,4.3506,4.3506,4.3506,4.3506,4.3506,4.3469,4.3157,4.3029,4.2937,4.2121,4.0673,3.9047,3.8567,3.7165,3.56,3.56,3.56,3.56,3.56,3.56,3.56,3.56,3.56,3.56,3.56,3.56,3.56,3.56,3.56,3.56,3.56,3.56,3.56,3.56,3.56,3.56,3.56,3.56,3.56,3.56,3.56,3.5689,3.5887,3.5728,3.5672,3.5898,3.5728,3.57,3.5898,3.592,3.615,3.6684,3.6894,3.6808,3.6351,3.5536,3.473,3.3987,3.3336,3.2934,3.2777,3.3218,3.3451,3.3433,3.3694,3.3807,2.8216,0.0,0.0,0.0,0.0,0.0,0.0,0.0,0.0,0.0,0.0,0.0,0.0,0.0,0.0,0.0,0.0,0.0,0.0,0.0,0.0,0.0,0.0,0.0,0.0,0.0,0.0,0.0,0.0,0.0,0.0,4.3506,4.3506,4.3506,4.3506,4.3506,4.3506,4.3506,4.3506,4.3506,4.3506,4.3506,4.3506,4.3506,4.3506,4.3506,4.3506,4.3451,4.3396,4.3396,4.3341,4.3212,4.2488,4.2194,4.2084,4.1287,3.9895,3.8398,3.8327,3.7113,3.56,3.56,3.56,3.56,3.56,3.56,3.56,3.56,3.56,3.56,3.56,3.56,3.56,3.56,3.56,3.56,3.56,3.56,3.56,3.56,3.56,3.56,3.56,3.56,3.5622,3.5678,3.5672,3.5865,3.6406,3.6043,3.593,3.6416,3.6032,3.5935,3.6426,3.6467,3.6704,3.722,3.7667,3.7929,3.7971,3.6437,3.527,3.4589,3.4056,3.3613,3.3258,3.3613,3.3807,3.3807,3.3807,3.3807,0.0,3.2736,0.0,0.0,0.0,0.0,0.0,0.0,0.0,0.0,0.0,0.0,0.0,0.0,0.0,0.0,0.0,0.0,0.0,0.0,0.0,0.0,0.0,0.0,0.0,0.0,0.0,0.0,0.0,0.0,4.3506,4.3506,4.3506,4.3506,4.3506,4.3506,4.3506,4.3506,4.3506,0.0,4.3506,4.3506,4.3506,4.3506,4.3506,4.3506,4.3506,4.3139,4.2561,4.2561,4.2194,4.1599,4.1434,4.136,4.1268,4.0451,3.9415,3.8309,3.7679,3.664,3.56,3.56,3.56,3.56,3.56,3.56,3.56,3.56,3.56,3.56,3.56,3.56,3.56,3.56,3.56,3.56,3.56,3.56,3.56,3.56,3.56,3.56,3.56,3.56,3.575,3.6161,3.6235,3.6426,3.697,3.6941,3.6894,3.7028,3.6923,3.6894,3.7028,3.7038,3.7239,3.772,3.7842,3.809,3.8504,3.6984,3.6051,3.5893,3.45,3.3755,3.3673,3.3755,3.3807,3.3807,3.3807,3.3807,0.0,0.0,0.0,0.0,0.0,0.0,0.0,0.0,0.0,0.0,0.0,0.0,0.0,0.0,0.0,0.0,0.0,0.0,0.0,0.0,0.0,0.0,0.0,0.0,0.0,0.0,0.0,0.0,0.0,4.2359,4.2359,4.2708,4.2937,4.2937,4.3304,4.3506,4.3506,4.3506,4.3506,4.3506,4.3506,4.3304,4.2937,4.3322,4.3286,4.2937,4.2937,4.247,4.1727,4.1727,4.1489,4.1067,4.0681,4.0524,4.0432,3.9625,3.8827,3.8096,3.7685,3.6847,3.5968,3.5968,3.5816,3.56,3.56,3.5783,3.5968,3.5968,3.6165,3.6312,3.6043,3.5968,3.592,3.565,3.56,3.56,3.56,3.5805,3.5968,3.5968,3.5968,3.5968,3.5968,3.5968,3.6171,3.6704,3.6783,3.698,3.747,3.7332,3.7285,3.7515,3.7332,3.7285,3.7515,3.7542,3.7755,3.8259,3.8283,3.8407,3.8692,3.7522,3.6696,3.631,3.503,3.4185,3.3807,3.3807,3.3807,3.3795,3.3923,3.3999,0.0,0.0,0.0,0.0,0.0,0.0,0.0,0.0,0.0,0.0,0.0,0.0,0.0,0.0,0.0,0.0,0.0,0.0,0.0,0.0,0.0,0.0,0.0,0.0,0.0,0.0,0.0,0.0,0.0,4.1095,4.1095,4.1727,4.2084,4.2084,4.2745,4.3084,4.3084,4.3084,4.3084,4.3084,4.3084,4.2745,4.2121,4.2782,4.2708,4.2084,4.2084,4.1635,4.0883,4.0883,4.081,4.0626,3.9955,3.9688,3.9614,3.8946,3.8366,3.7893,3.7893,3.7295,3.6539,3.6539,3.6228,3.5876,3.5876,3.6192,3.6539,3.6539,3.6793,3.6989,3.6623,3.6467,3.6301,3.5963,3.5876,3.5854,3.5761,3.6161,3.6539,3.6539,3.6539,3.6539,3.6539,3.6539,3.6724,3.7239,3.7323,3.7488,3.7971,3.7703,3.7614,3.8006,3.7694,3.7623,3.8015,3.8048,3.8234,3.8658,3.8699,3.8699,3.8699,3.8054,3.7327,3.6512,3.55,3.4601,3.3807,3.3807,3.3822,3.387,3.4111,3.4223,0.0,0.0,0.0,0.0,0.0,0.0,0.0,0.0,0.0,0.0,0.0,0.0,0.0,0.0,0.0,0.0,0.0,0.0,0.0,0.0,0.0,0.0,0.0,0.0,0.0,0.0,0.0,0.0,4.1095,4.1095,4.1095,4.1195,4.1268,4.1268,4.136,4.1415,4.1415,4.1415,4.1415,4.1415,4.1415,4.136,4.1268,4.1379,4.136,4.1268,4.1268,4.0791,4.0065,4.0065,3.9643,3.9011,3.8909,3.8854,3.8854,3.8744,3.8366,3.7893,3.7893,3.7551,3.7078,3.7078,3.7039,3.6981,3.6981,3.7047,3.7078,3.7078,3.6813,3.661,3.6981,3.6754,3.6498,3.6884,3.6981,3.6855,3.6395,3.6714,3.7078,3.7078,3.7078,3.7078,3.7078,3.7078,3.7257,3.7729,3.7807,3.8006,3.853,3.8538,3.8523,3.8596,3.8538,3.8523,3.8596,3.8585,3.8627,3.8699,3.8699,3.8699,3.8699,3.8597,3.8157,3.7364,3.58,3.4601,3.3807,3.3807,3.3928,3.4153,3.4176,3.4362,3.3189,0.0,0.0,0.0,0.0,0.0,0.0,0.0,0.0,0.0,0.0,0.0,0.0,0.0,0.0,0.0,0.0,0.0,0.0,0.0,0.0,0.0,0.0,0.0,0.0,0.0,0.0,0.0,3.9764,3.9764,3.9764,4.0186,4.0432,4.0432,4.0865,4.1095,4.1095,4.1095,4.1095,4.1095,4.1095,4.0865,4.0432,4.0432,4.0432,4.0432,4.0432,3.9974,3.9239,3.9239,3.9019,3.8699,3.8699,3.8699,3.8699,3.8699,3.8554,3.8358,3.8358,3.8015,3.7596,3.7596,3.7415,3.7209,3.7209,3.7378,3.7596,3.7596,3.7641,3.7667,3.7605,3.7424,3.7221,3.7219,3.7396,3.7533,3.7286,3.7433,3.7596,3.7596,3.7596,3.7596,3.7596,3.7596,3.7773,3.8275,3.8358,3.8423,3.8658,3.8699,3.8699,3.8699,3.8699,3.8699,3.8699,3.8699,3.8699,3.8699,3.8699,3.8699,3.8699,3.8699,3.8322,3.7529,3.6321,3.5305,3.4472,3.4163,3.4074,3.4205,3.4558,3.4784,0.0,0.0,0.0,0.0,0.0,0.0,0.0,0.0,0.0,0.0,0.0,0.0,0.0,0.0,0.0,0.0,0.0,0.0,0.0,0.0,0.0,0.0,0.0,0.0,0.0,0.0,0.0,0.0,3.8699,3.8699,3.8699,3.9276,3.9596,3.9596,4.0186,4.0498,4.0498,4.0498,4.0498,4.0498,4.0498,4.0186,3.9596,3.9596,3.9596,3.9596,3.9596,3.9239,3.8699,3.8699,3.8699,3.8699,3.8699,3.8699,3.8699,3.8699,3.8699,3.8699,3.8699,3.8449,3.8099,3.8099,3.7878,3.7578,3.7578,3.7835,3.8099,3.8099,3.8291,3.8441,3.8175,3.7997,3.786,3.7632,3.7861,3.8099,3.8099,3.8099,3.8099,3.8099,3.8099,3.8099,3.8099,3.8099,3.8251,3.8635,3.8699,3.8699,3.8699,3.8699,3.8699,3.8699,3.8699,3.8699,3.8699,3.8699,3.8699,3.8699,3.8699,3.8699,3.8699,3.8769,3.8516,3.7922,3.7202,3.6271,3.5123,3.4586,3.4355,3.4438,3.4898,3.513,0.0,0.0,0.0,0.0,0.0,0.0,0.0,0.0,0.0,0.0,0.0,0.0,0.0,0.0,0.0,0.0,0.0,0.0,0.0,0.0,0.0,0.0,0.0,0.0,0.0,0.0,0.0,0.0,3.8699,3.8699,3.8699,3.8744,3.8755,3.8755,3.8791,3.8828,3.8828,3.8828,3.8828,3.8828,3.8828,3.8791,3.8755,3.8755,3.8755,3.8755,3.8755,3.8744,3.8699,3.8699,3.8699,3.8699,3.8699,3.8699,3.8699,3.8699,3.8699,3.8699,3.8699,3.8684,3.865,3.865,3.8635,3.8619,3.8619,3.8635,3.865,3.865,3.8308,3.8057,3.8538,3.8283,3.8013,3.8515,3.8635,3.865,3.865,3.865,3.865,3.865,3.865,3.865,3.865,3.865,3.8658,3.8699,3.8699,3.8699,3.8699,3.8699,3.8699,3.8699,3.8699,3.8699,3.8699,3.8699,3.8699,3.8699,3.8699,3.8699,3.8699,3.894,3.906,3.9023,3.8544,3.7354,3.5473,3.4945,3.4803,3.5047,3.5092,3.5231,0.0,0.0,0.0,0.0,0.0,0.0,0.0,0.0,0.0,0.0,0.0,0.0,0.0,0.0,0.0,0.0,0.0,0.0,0.0,0.0,0.0,0.0,0.0,0.0,0.0,0.0,0.0,0.0,0.0,3.8699,3.8699,3.8699,3.8699,3.8699,3.8699,3.8699,3.8699,3.8699,3.8699,3.8699,3.8699,3.8699,3.8699,3.8699,3.8699,3.8699,3.8699,3.8699,3.8699,3.8699,3.8699,3.8699,3.8699,3.8699,3.8699,3.8699,3.8699,3.8699,3.8699,3.8699,3.8699,3.8699,3.8699,3.8699,3.8699,3.8699,3.8699,3.8699,3.8562,3.8465,3.8643,3.8554,3.8465,3.865,3.8699,3.8699,3.8699,3.8699,3.8699,3.8699,3.8699,3.8699,3.8699,3.8699,3.8699,3.8699,3.8699,3.8699,3.8699,3.8699,3.8699,3.8699,3.8699,3.8699,3.8699,3.8699,3.8699,3.8699,3.8855,3.8961,3.8961,3.925,3.9414,3.9414,3.8915,3.7941,3.6526,3.6001,3.5502,3.5105,3.5281,3.5417,0.0,0.0,0.0,0.0,0.0,0.0,0.0,0.0,0.0,0.0,0.0,0.0,0.0,0.0,0.0,0.0,0.0,0.0,0.0,0.0,0.0,0.0,0.0,0.0,0.0,0.0,0.0,0.0,0.0,0.0,3.8699,3.8699,3.8699,3.8699,3.8699,3.8699,3.8699,3.8699,3.8699,3.8699,3.8699,3.8699,3.8699,3.8699,3.8699,3.8699,3.8699,3.8699,3.8699,3.8699,3.8699,3.8699,3.8699,3.8699,3.8699,3.8699,3.8699,3.8699,3.8699,3.8699,3.8699,3.8699,3.8699,3.8699,3.8699,3.8699,3.8699,3.8699,3.8699,3.8699,3.8699,3.8699,3.8699,3.8699,3.8699,3.8699,3.8699,3.8699,3.8699,3.8699,3.8699,3.8699,3.8699,3.8699,3.8699,3.8699,3.8699,3.8699,3.8699,3.8699,3.8699,3.8699,3.8699,3.8699,3.8699,3.8773,3.8837,3.8837,3.9104,3.9264,3.9264,3.9593,3.977,3.977,3.95,3.8869,3.7837,3.6888,3.6153,3.5636,3.554,3.55,0.0,0.0,0.0,0.0,0.0,0.0,0.0,0.0,0.0,0.0,0.0,0.0,0.0,0.0,0.0,0.0,0.0,0.0,0.0,0.0,0.0,0.0,0.0,0.0,0.0,0.0,0.0,0.0,3.8699,3.8699,3.8699,3.8699,3.8699,3.8699,3.8699,3.8699,3.8699,3.8699,3.8699,3.8699,3.8699,3.8699,3.8699,3.8699,3.8699,3.8699,3.8699,3.8699,3.8699,3.8699,3.8699,3.8699,3.8699,3.8699,3.8699,3.8699,3.8699,3.8699,3.8699,3.8699,3.8699,3.8699,3.8699,3.8699,3.8699,3.8699,3.8699,3.8699,3.8699,3.8699,3.8699,3.8699,3.8699,3.8699,3.8699,3.8699,3.8699,3.8699,3.8699,3.8699,3.8699,3.8699,3.8699,3.8715,3.8704,3.8704,3.8712,3.8738,3.8738,3.873,3.873,3.8738,3.873,3.873,3.8738,3.8968,3.91,3.91,3.942,3.9616,3.9616,3.9932,4.011,4.011,4.0368,4.0112,3.9319,3.7603,3.6754,3.6677,3.5865,3.55,2.9705,0.0,0.0,0.0,0.0,0.0,0.0,0.0,0.0,0.0,0.0,0.0,0.0,0.0,0.0,0.0,0.0,0.0,0.0,0.0,0.0,0.0,0.0,0.0,0.0,0.0,0.0,0.0,3.8699,3.8699,3.8699,3.8699,3.8699,3.8699,3.8699,3.8699,3.8699,3.8699,3.8699,3.8699,3.8699,3.8699,3.8699,3.8699,3.8699,3.8699,3.8699,3.8699,3.8699,3.8699,3.8699,3.8699,3.8699,3.8699,3.8699,3.8699,3.8699,3.8699,3.8699,3.8699,3.8699,3.8699,3.8699,3.8699,3.8699,3.8699,3.8699,3.8699,3.8699,3.8699,3.8699,3.8699,3.8699,3.8699,3.8699,3.8699,3.8699,3.8699,3.8699,3.8699,3.8699,3.8699,3.8699,3.8855,3.8985,3.8985,3.919,3.9352,3.9352,3.9131,3.907,3.9327,3.9124,3.9095,3.9327,3.942,3.9456,3.9456,3.9775,3.9953,3.9953,4.0241,4.0385,4.0385,4.0465,4.04,4.0169,3.9107,3.793,3.6677,3.5865,3.55,0.0,0.0,0.0,0.0,0.0,0.0,3.0743,3.1723,0.0,0.0,0.0,0.0,0.0,0.0,0.0,0.0,0.0,0.0,0.0,0.0,0.0,0.0,0.0,0.0,0.0,3.9078,3.9078,3.9078,3.8956,3.8826,3.8715,3.8811,3.8826,3.8707,3.8699,3.8699,3.8699,3.8699,3.8754,3.8862,3.8862,3.8949,3.9078,3.9078,3.9078,3.9071,3.8934,3.8862,3.8855,3.8757,3.8699,3.8699,3.8699,3.8699,3.8699,3.8699,3.8699,3.8699,3.8699,3.8699,3.8699,3.8699,3.8699,3.8699,3.8699,3.8699,3.8699,3.8699,3.8699,3.8699,3.8699,3.8699,3.8699,3.8699,3.8699,3.8735,3.8844,3.8862,3.8862,3.8862,3.8862,3.8913,3.9057,3.9204,3.9302,3.9302,3.9462,3.9599,3.9599,3.942,3.9377,3.9582,3.9439,3.9383,3.9587,3.9737,3.9808,3.9808,4.0101,4.0278,4.0278,4.0429,4.0496,4.0496,4.0496,4.0496,4.0496,3.9685,3.8392,3.6696,3.6212,3.5827,0.0,0.0,0.0,0.0,0.0,0.0,3.1698,3.2237,3.3239,0.0,0.0,0.0,0.0,0.0,0.0,0.0,0.0,0.0,0.0,0.0,0.0,0.0,0.0,0.0,3.9493,3.9529,3.9534,3.9534,3.9295,3.9061,3.8803,3.9027,3.9054,3.8814,3.8799,3.8799,3.8799,3.8799,3.8927,3.9165,3.9165,3.9308,3.9599,3.9599,3.9599,3.9587,3.9257,3.9105,3.9078,3.8818,3.8699,3.8699,3.8699,3.8699,3.8699,3.8699,3.8699,3.8699,3.8699,3.8699,3.8699,3.8699,3.8699,3.8699,3.8699,3.8712,3.8732,3.8732,3.8719,3.8699,3.8699,3.8719,3.8732,3.8732,3.8769,3.8859,3.9092,3.9165,3.9178,3.9193,3.9173,3.9244,3.9558,3.9628,3.9651,3.9651,3.9679,3.9701,3.9701,3.9673,3.9668,3.9701,3.9673,3.9668,3.9701,3.9973,4.0144,4.0144,4.0368,4.0496,4.0496,4.0496,4.0496,4.0496,4.0496,4.0496,4.0496,3.9685,3.8511,3.6984,3.6888,3.6465,0.0,0.0,0.0,0.0,0.0,0.0,2.7561,2.7841,2.8808,0.0,0.0,0.0,0.0,0.0,0.0,0.0,0.0,0.0,0.0,0.0,0.0,0.0,0.0,0.0,3.8884,3.9075,3.9211,3.9211,3.9383,3.9481,3.9439,3.9475,3.9481,3.9433,3.9414,3.9414,3.9414,3.9414,3.9451,3.9492,3.9492,3.9541,3.9599,3.9599,3.9599,3.9587,3.9257,3.9105,3.9078,3.8818,3.8699,3.8699,3.8699,3.8699,3.8699,3.8699,3.8699,3.8699,3.8699,3.8699,3.8699,3.8699,3.8699,3.8699,3.8699,3.884,3.9015,3.9015,3.8862,3.8699,3.8699,3.8855,3.9015,3.9015,3.9236,3.9432,3.9499,3.9492,3.9587,3.984,3.9679,3.951,3.9593,3.9819,4.0002,4.0002,4.0185,4.0309,4.0309,4.0139,4.0086,4.0311,4.0134,4.0091,4.0315,4.0389,4.0414,4.0414,4.0473,4.0496,4.0496,4.0496,4.0496,4.0496,4.0496,4.0496,4.0496,3.9685,3.9127,3.878,3.8065,3.7661,0.0,0.0,0.0,2.6813,0.0,0.0,0.0,2.8176,2.9349,0.0,0.0,0.0,0.0,0.0,0.0,0.0,0.0,0.0,0.0,0.0,0.0,0.0,0.0,0.0,3.9599,3.9599,3.9535,3.9358,3.9775,3.9915,3.9616,3.9765,3.9775,3.9605,3.9599,3.9599,3.9599,3.9599,3.9679,3.9859,3.9859,3.9913,4.0048,4.0048,4.0048,4.0034,3.9735,3.9599,3.9576,3.9262,3.9154,3.9114,3.8822,3.8699,3.8699,3.8699,3.8699,3.8699,3.8699,3.8781,3.8894,3.8894,3.9004,3.9154,3.9154,3.9243,3.9346,3.9346,3.9256,3.9154,3.9154,3.9249,3.9346,3.9346,3.9487,3.9645,3.9808,3.9859,3.9943,4.0241,4.0152,4.0048,4.0048,4.019,4.0308,4.0308,4.0406,4.0496,4.0496,4.0381,4.0351,4.0485,4.0377,4.0356,4.0485,4.0496,4.0496,4.0496,4.0496,4.0496,4.0496,4.0496,4.0496,4.0496,4.0496,4.0523,4.0596,4.0191,3.976,3.9284,3.888,3.8482,0.0,0.0,0.0,0.0,0.0,2.6135,0.0,0.0,0.0,0.0,0.0,0.0,0.0,0.0,0.0,0.0,0.0,0.0,0.0,0.0,0.0,0.0,0.0,0.0,0.0,3.9694,3.9651,3.9751,3.9924,3.9953,3.9781,4.0023,4.0043,3.9784,3.9778,3.9778,3.9778,3.9778,3.9908,4.0172,4.0172,4.03,4.0496,4.0496,4.0496,4.0485,4.0213,4.0101,4.0076,3.9742,3.9599,3.9552,3.9064,3.8877,3.8877,3.8877,3.8877,3.8877,3.8877,3.901,3.9211,3.9211,3.9377,3.9611,3.9673,3.9645,3.9616,3.9673,3.9645,3.9599,3.9599,3.9645,3.9709,3.9709,3.9735,3.9856,4.011,4.0172,4.0236,4.0461,4.0496,4.0496,4.0496,4.0496,4.0496,4.0496,4.0496,4.0496,4.0496,4.0496,4.0496,4.0496,4.0496,4.0496,4.0496,4.0496,4.0496,4.0496,4.0496,4.0496,4.0496,4.0496,4.0496,4.0496,4.0534,4.0586,4.0697,4.071,4.0334,3.9588,3.9633,3.9322,0.0,0.0,0.0,0.0,2.5942,0.0,0.0,0.0,0.0,0.0,0.0,0.0,0.0,0.0,0.0,0.0,0.0,0.0,0.0,0.0,0.0,0.0,0.0,0.0,0.0,3.767,3.8514,4.0274,3.9081,3.8893,4.0329,4.0426,4.0449,4.0406,4.0406,4.0406,4.0406,4.0406,4.0418,4.0457,4.0457,4.0473,4.0496,4.0496,4.0496,4.0485,4.0213,4.0101,4.0076,3.9742,3.9599,3.9593,3.9523,3.9493,3.9493,3.9493,3.9493,3.9493,3.9493,3.9517,3.9534,3.9534,3.957,3.9651,3.9943,3.9848,3.9656,3.9967,3.9824,3.9599,3.9599,3.9813,4.0037,4.0037,4.0212,4.041,4.0453,4.0457,4.0465,4.0492,4.0496,4.0496,4.0496,4.0496,4.0496,4.0496,4.0496,4.0496,4.0496,4.0496,4.0496,4.0496,4.0496,4.0496,4.0496,4.0496,4.0496,4.0496,4.0496,4.0496,4.0496,4.0496,4.0496,4.0496,4.0616,4.068,4.0697,4.0767,4.0736,4.0626,4.0641,4.0589,0.0,0.0,0.0,0.0,0.0,0.0,0.0,0.0,2.9204,0.0,0.0,0.0,0.0,0.0,0.0,0.0,0.0,0.0,0.0,0.0,0.0,0.0,0.0,0.0,0.0,0.0,0.0,0.0,3.8861,3.8723,4.0419,4.0496,4.0496,4.0496,4.0496,4.0496,4.0496,4.0496,4.0496,4.0496,4.0496,4.0496,4.0496,4.0496,4.0496,4.0492,4.0377,4.0334,4.033,4.0171,4.011,4.011,4.011,3.9905,3.9599,3.9599,3.9599,3.9599,3.9599,3.9737,3.9922,4.0063,4.011,4.0148,4.0289,4.023,4.0152,4.0289,4.0226,4.011,4.011,4.0226,4.0334,4.0334,4.0429,4.0496,4.0496,4.0496,4.0496,4.0496,4.0496,4.0496,4.0496,4.0496,4.0496,4.0496,4.0496,4.0496,4.0496,4.0496,4.0496,4.0496,4.0496,4.0496,4.0496,4.0496,4.0496,4.0496,4.0496,4.0526,4.0613,4.0616,4.0626,4.0679,4.0738,4.0799,4.0863,4.0901,4.0957,4.1026,4.0955,4.0917,3.0102,0.0,0.0,0.0,0.0,0.0,0.0,0.0,0.0,0.0,0.0,0.0,0.0,0.0,0.0,0.0,0.0,0.0,0.0,0.0,0.0,0.0,0.0,0.0,0.0,0.0,0.0,3.9387,3.8147,3.8257,4.04,4.0496,4.0496,4.0496,4.0496,4.0496,4.0496,4.0496,4.0496,4.0496,4.0496,4.0496,4.0496,4.0496,4.0496,4.0496,4.0496,4.0496,4.0496,4.0496,4.0496,4.0496,4.0496,4.0239,3.9848,3.9848,3.9848,3.9848,3.9848,4.0013,4.0236,4.0445,4.0496,4.0496,4.0496,4.0496,4.0496,4.0496,4.0496,4.0496,4.0496,4.0496,4.0496,4.0496,4.0496,4.0496,4.0496,4.0496,4.0496,4.0496,4.0496,4.0496,4.0496,4.0496,4.0496,4.0496,4.0496,4.0496,4.0496,4.0496,4.0496,4.0496,4.0496,4.0496,4.0496,4.0496,4.0519,4.0552,4.0563,4.0626,4.0718,4.0721,4.075,4.0797,4.0845,4.0908,4.0996,4.1048,4.1104,4.1191,4.1103,4.1054,0.0,0.0,0.0,2.7406,0.0,0.0,0.0,0.0,3.0365,0.0,0.0,0.0,0.0,0.0,0.0,0.0,0.0,0.0,0.0,0.0,0.0,0.0,0.0,0.0,0.0,0.0,0.0,3.7804,3.6519,3.7023,4.0323,4.0496,4.0496,4.0496,4.0496,4.0496,4.0496,4.0496,4.0496,4.0496,4.0496,4.0496,4.0496,4.0496,4.0496,4.0496,4.0496,4.0496,4.0496,4.0496,4.0496,4.0496,4.0496,4.0489,4.0477,4.0477,4.0477,4.0477,4.0477,4.0481,4.0485,4.0492,4.0496,4.0496,4.0496,4.0496,4.0496,4.0496,4.0496,4.0496,4.0496,4.0496,4.0496,4.0496,4.0496,4.0496,4.0496,4.0496,4.0496,4.0496,4.0496,4.0496,4.0496,4.0496,4.0496,4.0496,4.0496,4.0496,4.0496,4.0496,4.0496,4.0496,4.0496,4.0496,4.0496,4.0496,4.0556,4.0683,4.0745,4.0789,4.0793,4.0793,4.0795,4.0799,4.0922,4.0994,4.0996,4.1128,4.1191,4.1191,4.1191,4.1191,0.0,0.0,3.4905,3.0379,0.0,0.0,0.0,0.0,0.0,0.0,0.0,0.0,0.0,0.0,0.0,0.0,0.0,0.0,0.0,0.0,0.0,0.0,0.0,0.0,0.0,0.0,0.0,3.7834,3.7469,3.8123,4.0381,4.0496,4.0496,4.0496,4.0496,4.0496,4.0496,4.0496,4.0496,4.0496,4.0496,4.0496,4.0496,4.0496,4.0496,4.0496,4.0496,4.0496,4.0496,4.0496,4.0496,4.0496,4.0496,4.0496,4.0496,4.0496,4.0496,4.0496,4.0496,4.0496,4.0496,4.0496,4.0496,4.0496,4.0496,4.0496,4.0496,4.0496,4.0496,4.0496,4.0496,4.0496,4.0496,4.0496,4.0496,4.0496,4.0496,4.0496,4.0496,4.0496,4.0496,4.0496,4.0496,4.0496,4.0496,4.0496,4.0496,4.0496,4.0496,4.0496,4.0496,4.0496,4.0496,4.0549,4.0626,4.0679,4.0716,4.0757,4.0798,4.0848,4.0924,4.0925,4.0965,4.1056,4.1105,4.1128,4.1128,4.1171,4.1191,4.1191,4.1191,4.1191,3.75,3.78,0.0,3.3108,3.3608,0.0,3.1231,0.0,0.0,0.0,0.0,0.0,0.0,0.0,0.0,0.0,0.0,0.0,0.0,0.0,0.0,0.0,0.0,0.0,0.0,0.0,3.4635,3.6946,3.71,3.7834,0.0,0.0,4.0496,4.0496,4.0496,4.0496,4.0496,4.0496,4.0496,4.0496,4.0496,4.0496,4.0496,4.0496,4.0496,4.0496,4.0496,4.0496,4.0496,4.0496,4.0496,4.0496,4.0496,4.0496,4.0496,4.0496,4.0496,4.0496,4.0496,4.0496,4.0496,4.0496,4.0496,4.0496,4.0496,4.0496,4.0496,4.0496,4.0496,4.0496,4.0496,4.0496,4.0496,4.0496,4.0496,4.0496,4.0496,4.0496,4.0496,4.0496,4.053,4.0577,4.0577,4.0594,4.0574,4.0516,4.0496,4.0519,4.057,4.0577,4.0582,4.0607,4.0614,4.0638,4.0731,4.0813,4.0869,4.0869,4.0917,4.0988,4.1076,4.1077,4.1106,4.1191,4.1191,4.1191,4.1191,4.1191,4.1191,4.1191,4.1191,4.1191]}]]